[[{"header":{"parameterUnit":"m.s-1","parameterCategory":1,"la1":30.6,"la2":29.2853,"lo1":-89.7004,"lo2":-87.6739,"dy":0.0162,"dx":0.0183,"nx":112,"ny":82,"refTime":"2026-05-12T12:00:00:Z","depth":0,"parameterNumber":2,"parameterNumberName":"U-component_of_WINDS"},"data":[0.0,0.0,0.0,0.0,0.0,0.0,0.0,0.0,0.0,0.0,0.0,0.0,0.0,0.0,0.0,0.0,0.0,0.0,0.0,0.0,0.0,0.0,0.0,0.0,0.0,0.0,0.0,0.0,0.0,0.0,0.0,0.0,0.0,0.0,0.0,0.0,0.0,0.0,0.0,0.0,0.0,0.0,0.0,0.0,0.0,0.0,0.0,0.0,0.0,0.0,0.0,0.0,0.0,0.0,0.0,0.0,0.0,0.0,0.0,0.0,0.0,0.0,0.0,0.0,0.0,0.0,0.0,0.0,0.0,0.0,0.0,0.0,0.0,0.0,0.0,0.0,0.0,0.0,0.0,0.0,0.0,0.0,0.0,0.0,0.0,0.0,0.0,0.0,0.0,0.0,0.3798,0.4596,0.5337,0.5903,0.6169,0.5943,0.5481,0.4781,0.0,0.0,0.0,0.0,0.0,0.0,0.0,0.0,0.0,0.0,0.0,0.0,0.0,0.0,0.0,0.0,0.0,0.0,0.0,0.0,0.0,0.0,0.0,0.0,0.0,0.0,0.0,0.0,0.0,0.0,0.0,0.0,0.0,0.0,0.0,0.0,0.0,0.0,0.0,0.0,0.0,0.0,0.0,0.0,0.0,0.0,0.0,0.0,0.0,0.0,0.0,0.0,0.0,0.0,0.0,0.0,0.0,0.0,0.0,0.0,0.0,0.0,0.0,0.0,0.0,0.0,0.0,0.0,0.0,0.0,0.0,0.0,0.0,0.0,0.0,0.0,0.0,0.0,0.0,0.0,0.0,0.0,0.0,0.0,0.0,0.0,0.0,0.0,0.0,0.0,0.0,0.0,0.0,0.0,0.0,0.0,0.0,0.0,0.0,0.0,0.0,0.0,0.0,0.0,0.4123,0.5759,0.6048,0.6142,0.6189,0.6156,0.5638,0.4529,0.0,0.0,0.0,0.0,0.0,0.0,0.0,0.0,0.0,0.0,0.0,0.0,0.0,0.0,0.0,0.0,0.0,0.0,0.0,0.0,0.0,0.0,0.0,0.0,0.0,0.0,0.0,0.0,0.0,0.0,0.0,0.0,0.0,0.0,0.0,0.0,0.0,0.0,0.0,0.0,0.0,0.0,0.0,0.0,0.0,0.0,0.0,0.0,0.0,0.0,0.0,0.0,0.0,0.0,0.0,0.0,0.0,0.0,0.0,0.0,0.0,0.0,0.0,0.0,0.0,0.0,0.0,0.0,0.0,0.0,0.0,0.0,0.0,0.0,0.0,0.0,0.0,0.0,0.0,0.0,0.0,0.0,0.0,0.0,0.0,0.0,0.0,0.0,0.0,0.0,0.0,0.0,0.0,0.0,0.0,0.0,0.0,0.0,0.0,0.0,0.0,0.0,0.0,0.3911,0.4482,0.5796,0.5936,0.5936,0.5936,0.5936,0.5609,0.488,0.4684,0.0,0.0,0.0,0.0,0.0,0.0,0.0,0.0,0.0,0.0,0.0,0.0,0.0,0.0,0.0,0.0,0.0,0.0,0.0,0.0,0.0,0.0,0.0,0.0,0.0,0.0,0.0,0.0,0.0,0.0,0.0,0.0,0.0,0.0,0.0,0.0,0.0,0.0,0.0,0.0,0.0,0.0,0.0,0.0,0.0,0.0,0.0,0.0,0.0,0.0,0.0,0.0,0.0,0.0,0.0,0.0,0.0,0.0,0.0,0.0,0.0,0.0,0.0,0.0,0.0,0.0,0.0,0.0,0.0,0.0,0.0,0.0,0.0,0.0,0.0,0.0,0.0,0.0,0.0,0.0,0.0,0.0,0.0,0.0,0.0,0.0,0.0,0.0,0.0,0.0,0.0,0.0,0.0,0.0,0.0,0.0,0.0,0.0,0.0,0.0,0.0,0.0,0.4542,0.4802,0.5608,0.5694,0.5694,0.5694,0.5634,0.5462,0.5125,0.4613,0.0,0.0,0.0,0.0,0.0,0.0,0.0,0.0,0.0,0.0,0.0,0.0,0.0,0.0,0.0,0.0,0.0,0.0,0.0,0.0,0.0,0.0,0.0,0.0,0.0,0.0,0.0,0.0,0.0,0.0,0.0,0.0,0.0,0.0,0.0,0.0,0.0,0.0,0.0,0.0,0.0,0.0,0.0,0.0,0.0,0.0,0.0,0.0,0.0,0.0,0.0,0.0,0.0,0.0,0.0,0.0,0.0,0.0,0.0,0.0,0.0,0.0,0.0,0.0,0.0,0.0,0.0,0.0,0.0,0.0,0.0,0.0,0.0,0.0,0.0,0.0,0.0,0.0,0.0,0.0,0.0,0.0,0.0,0.0,0.0,0.0,0.0,0.0,0.0,0.0,0.0,0.0,0.0,0.0,0.0,0.0,0.0,0.0,0.0,0.0,0.0,0.0,0.4476,0.5007,0.5628,0.5694,0.5694,0.5694,0.5464,0.5179,0.4851,0.4381,0.0,0.0,0.0,0.0,0.0,0.0,0.0,0.0,0.0,0.0,0.0,0.0,0.0,0.0,0.0,0.0,0.0,0.0,0.0,0.0,0.0,0.0,0.0,0.0,0.0,0.0,0.0,0.0,0.0,0.0,0.0,0.0,0.0,0.0,0.0,0.0,0.0,0.0,0.0,0.0,0.0,0.0,0.0,0.0,0.0,0.0,0.0,0.0,0.0,0.0,0.0,0.0,0.0,0.0,0.0,0.0,0.0,0.0,0.0,0.0,0.0,0.0,0.0,0.0,0.0,0.0,0.0,0.0,0.0,0.0,0.0,0.0,0.0,0.0,0.0,0.0,0.0,0.0,0.0,0.0,0.0,0.0,0.0,0.0,0.0,0.0,0.0,0.0,0.0,0.0,0.0,0.0,0.0,0.0,0.0,0.0,0.0,0.0,0.0,0.0,0.0,0.0,0.4575,0.496,0.0,0.5461,0.5461,0.5461,0.536,0.5159,0.4825,0.0,0.0,0.0,0.0,0.0,0.0,0.0,0.0,0.0,0.0,0.0,0.0,0.0,0.0,0.0,0.0,0.0,0.0,0.0,0.0,0.0,0.0,0.0,0.0,0.0,0.0,0.0,0.0,0.0,0.0,0.0,0.0,0.0,0.0,0.0,0.0,0.0,0.0,0.0,0.0,0.0,0.0,0.0,0.0,0.0,0.0,0.0,0.0,0.0,0.0,0.0,0.0,0.0,0.0,0.0,0.0,0.0,0.0,0.0,0.0,0.0,0.0,0.0,0.0,0.0,0.0,0.0,0.0,0.0,0.0,0.0,0.0,0.0,0.0,0.0,0.0,0.0,0.0,0.0,0.0,0.0,0.0,0.0,0.0,0.0,0.0,0.0,0.0,0.0,0.0,0.0,0.0,0.0,0.0,0.0,0.0,0.0,0.0,0.0,0.0,0.0,0.0,0.4302,0.4729,0.5042,0.0,0.5293,0.5293,0.5293,0.5197,0.5085,0.494,0.0,0.0,0.0,0.0,0.0,0.0,0.0,0.0,0.0,0.0,0.0,0.0,0.0,0.0,0.0,0.0,0.0,0.0,0.0,0.0,0.0,0.0,0.0,0.0,0.0,0.0,0.0,0.0,0.0,0.0,0.0,0.0,0.0,0.0,0.0,0.0,0.0,0.0,0.0,0.0,0.0,0.0,0.0,0.0,0.0,0.0,0.0,0.0,0.0,0.0,0.0,0.0,0.0,0.0,0.0,0.0,0.0,0.0,0.0,0.0,0.0,0.0,0.0,0.0,0.0,0.0,0.0,0.0,0.0,0.0,0.0,0.0,0.0,0.0,0.0,0.0,0.0,0.0,0.0,0.0,0.0,0.0,0.0,0.0,0.0,0.0,0.0,0.0,0.0,0.0,0.0,0.0,0.0,0.0,0.0,0.0,0.0,0.0,0.0,0.0,0.0,0.0,0.4329,0.4931,0.5293,0.53,0.53,0.53,0.53,0.5002,0.4921,0.0,0.0,0.0,0.0,0.0,0.0,0.0,0.0,0.0,0.0,0.0,0.0,0.0,0.0,0.0,0.0,0.0,0.0,0.0,0.0,0.0,0.0,0.0,0.0,0.0,0.0,0.0,0.0,0.0,0.0,0.0,0.0,0.0,0.0,0.0,0.0,0.0,0.0,0.0,0.0,0.0,0.0,0.0,0.0,0.0,0.0,0.0,0.0,0.0,0.0,0.0,0.0,0.0,0.0,0.0,0.0,0.0,0.0,0.0,0.0,0.0,0.0,0.0,0.0,0.0,0.0,0.0,0.0,0.0,0.0,0.0,0.0,0.0,0.0,0.0,0.0,0.0,0.0,0.0,0.0,0.0,0.0,0.0,0.0,0.0,0.0,0.0,0.0,0.0,0.0,0.0,0.0,0.0,0.0,0.0,0.0,0.0,0.0,0.0,0.0,0.0,0.0,0.0,0.4329,0.4931,0.5373,0.5564,0.5585,0.5585,0.5585,0.5488,0.5212,0.4668,0.0,0.0,0.0,0.0,0.0,0.0,0.0,0.0,0.0,0.0,0.0,0.0,0.0,0.0,0.0,0.0,0.0,0.0,0.0,0.0,0.0,0.0,0.0,0.0,0.0,0.0,0.0,0.0,0.0,0.0,0.0,0.0,0.0,0.0,0.0,0.0,0.0,0.0,0.0,0.0,0.0,0.0,0.0,0.0,0.0,0.0,0.0,0.0,0.0,0.0,0.0,0.0,0.0,0.0,0.0,0.0,0.0,0.0,0.0,0.0,0.0,0.0,0.0,0.0,0.0,0.0,0.0,0.0,0.0,0.0,0.0,0.0,0.0,0.0,0.0,0.0,0.0,0.0,0.0,0.0,0.0,0.0,0.0,0.0,0.0,0.0,0.0,0.0,0.0,0.0,0.0,0.0,0.0,0.0,0.0,0.0,0.0,0.0,0.0,0.0,0.0,0.0,0.4329,0.5017,0.5518,0.5674,0.5818,0.5845,0.5708,0.5694,0.5416,0.4754,0.0,0.0,0.0,0.0,0.0,0.0,0.0,0.0,0.0,0.0,0.0,0.0,0.0,0.0,0.0,0.0,0.0,0.0,0.0,0.0,0.0,0.0,0.0,0.0,0.0,0.0,0.0,0.0,0.0,0.0,0.0,0.0,0.0,0.0,0.0,0.0,0.0,0.0,0.0,0.0,0.0,0.0,0.0,0.0,0.0,0.0,0.0,0.0,0.0,0.0,0.0,0.0,0.0,0.0,0.0,0.0,0.0,0.0,0.0,0.0,0.0,0.0,0.0,0.0,0.0,0.0,0.0,0.0,0.0,0.0,0.0,0.0,0.0,0.0,0.0,0.0,0.0,0.0,0.0,0.0,0.0,0.0,0.0,0.0,0.0,0.0,0.0,0.0,0.0,0.0,0.0,0.0,0.0,0.0,0.0,0.0,0.0,0.0,0.0,0.0,0.0,0.0,0.4349,0.5168,0.5714,0.5774,0.6057,0.611,0.5818,0.5765,0.5596,0.524,0.0,0.0,0.0,0.0,0.0,0.0,0.0,0.0,0.0,0.0,0.0,0.0,0.0,0.0,0.0,0.0,0.0,0.0,0.0,0.0,0.0,0.0,0.0,0.0,0.0,0.0,0.0,0.0,0.0,0.0,0.0,0.0,0.0,0.0,0.0,0.0,0.0,0.0,0.0,0.0,0.0,0.0,0.0,0.0,0.0,0.0,0.0,0.0,0.0,0.0,0.0,0.0,0.0,0.0,0.0,0.0,0.0,0.0,0.0,0.0,0.0,0.0,0.0,0.0,0.0,0.0,0.0,0.0,0.0,0.0,0.0,0.0,0.0,0.0,0.0,0.0,0.0,0.0,0.0,0.0,0.0,0.0,0.0,0.0,0.0,0.0,0.0,0.0,0.0,0.0,0.0,0.0,0.0,0.0,0.0,0.0,0.0,0.0,0.0,0.0,0.0,0.0,0.4615,0.5295,0.5885,0.6353,0.6479,0.6492,0.6406,0.6211,0.5864,0.5311,0.46,0.0,0.0,0.0,0.0,0.0,0.0,0.0,0.0,0.0,0.0,0.0,0.0,0.0,0.0,0.0,0.0,0.0,0.0,0.0,0.0,0.0,0.0,0.0,0.0,0.0,0.0,0.0,0.0,0.0,0.0,0.0,0.0,0.0,0.0,0.0,0.0,0.0,0.0,0.0,0.0,0.0,0.0,0.0,0.0,0.0,0.0,0.0,0.0,0.0,0.0,0.0,0.0,0.0,0.0,0.0,0.0,0.0,0.0,0.0,0.0,0.0,0.0,0.0,0.0,0.0,0.0,0.0,0.0,0.0,0.0,0.0,0.0,0.0,0.0,0.0,0.0,0.0,0.0,0.0,0.0,0.0,0.0,0.0,0.0,0.0,0.0,0.0,0.0,0.0,0.0,0.0,0.0,0.0,0.0,0.0,0.0,0.0,0.0,0.0,0.0,0.0,0.4714,0.5471,0.611,0.6559,0.6713,0.674,0.662,0.6357,0.6001,0.5518,0.4861,0.0,0.0,0.0,0.0,0.0,0.0,0.0,0.0,0.0,0.0,0.0,0.0,0.0,0.0,0.0,0.0,0.0,0.0,0.0,0.0,0.0,0.0,0.0,0.0,0.0,0.0,0.0,0.0,0.0,0.0,0.0,0.0,0.0,0.0,0.0,0.0,0.0,0.0,0.0,0.0,0.0,0.0,0.0,0.0,0.0,0.0,0.0,0.0,0.0,0.0,0.0,0.0,0.0,-0.1202,-0.1102,-0.1364,-0.1644,-0.1444,-0.0865,-0.0478,-0.0196,0.0,0.0,0.0,0.0,0.0,0.0,0.0,0.0,0.0,0.0,0.0,0.0,0.0,0.0,0.0,0.0,0.0,0.0,0.0,0.0,0.0,0.0,0.0,0.0,0.0,0.0,0.3107,0.3174,0.2838,0.0,0.0,0.0,0.0,0.0,0.0,0.0,0.0,0.0,0.0,0.0,0.4887,0.5735,0.6365,0.6633,0.688,0.6906,0.6687,0.6419,0.6124,0.5812,0.5221,0.4833,0.0,0.0,0.0,0.0,0.0,0.0,0.0,0.0,0.0,0.0,0.0,0.0,0.0,0.0,0.0,0.0,0.0,0.0,0.0,0.0,0.0,0.0,0.0,0.0,0.0,0.0,0.0,0.0,0.0,0.0,0.0,0.0,-0.1083,-0.0626,0.0,0.0,0.0,0.0,0.0,0.0,0.0,0.0,0.0,0.0,0.0,0.0,0.0,-0.1269,-0.1301,-0.1316,-0.1338,-0.1364,-0.1287,-0.1359,-0.1558,-0.1606,-0.1637,-0.1647,-0.1588,0.0,0.0,0.0,0.0,0.0,0.0,0.0,0.0,0.0,0.0,0.0,0.0,0.0,0.0,0.0,0.0,0.0,0.0,0.0,0.0,0.0,0.0,0.0,0.0,0.0,0.2879,0.3039,0.3097,0.3107,0.0,0.327,0.3312,0.2762,0.309,0.0,0.0,0.0,0.0,0.0,0.0,0.0,0.5508,0.6146,0.664,0.6913,0.698,0.6986,0.6946,0.67,0.6425,0.6156,0.5561,0.5205,0.5118,0.454,0.0,0.0,0.0,0.0,0.0,0.0,0.0,0.0,0.0,0.0,0.0,0.0,0.0,0.0,0.0,0.0,0.0,0.0,0.0,0.0,0.0,0.0,0.0,0.0,0.0,0.0,0.0,0.0,0.0,-0.1188,-0.1185,-0.1017,-0.1075,-0.1077,0.0,0.0,0.0,0.0,0.0,0.0,0.0,0.0,0.0,-0.1664,-0.1608,-0.1714,-0.1976,-0.1979,-0.2012,-0.2095,-0.2156,-0.2245,-0.2338,-0.2404,-0.2349,-0.2192,-0.2192,-0.1744,-0.1013,-0.1016,-0.0775,-0.0399,0.0,0.0,0.0,0.0,0.0075,0.0166,0.0113,0.0357,0.0708,0.0771,0.0,0.0,0.0,0.0,0.0,0.0,0.0,0.0,0.0,0.0,0.3151,0.3256,0.3337,0.3354,0.329,0.3545,0.3632,0.0,0.3375,0.3634,0.3532,0.0,0.0,0.0,0.0,0.5297,0.5903,0.6345,0.67,0.6966,0.7,0.7,0.7,0.6754,0.6553,0.6425,0.5863,0.5513,0.549,0.528,0.5078,0.0,0.0,0.0,0.0,0.0,0.0,0.0,0.0,0.0,0.0,0.0,0.0,0.0,0.0,0.0,0.0,0.0,0.0,0.0,0.0,0.0,0.0,0.0,0.0,0.0,0.0,0.0,0.0,-0.1249,-0.1246,-0.1297,-0.1381,-0.1393,0.0,0.0,0.0,0.0,0.0,0.0,-0.1435,-0.1538,-0.1725,-0.1975,-0.2046,-0.2243,-0.2599,-0.2637,-0.2696,-0.2812,-0.291,-0.2985,-0.3025,-0.3111,-0.302,-0.2771,-0.2771,-0.256,-0.2183,-0.1905,-0.1469,-0.0986,-0.1086,-0.0756,-0.0231,-0.0224,-0.014,0.0,0.0,0.023,0.0521,0.0528,0.0806,0.1131,0.103,0.0,0.0,0.0,0.0,0.2953,0.2993,0.3145,0.3319,0.3423,0.3518,0.357,0.3478,0.3646,0.3706,0.0,0.3634,0.3949,0.3944,0.0,0.0,0.0,0.0,0.5616,0.6231,0.6539,0.6787,0.698,0.7,0.7,0.7,0.682,0.6667,0.6613,0.6106,0.5792,0.5701,0.5822,0.5732,0.5386,0.0,0.0,0.0,0.0,0.0,0.0,0.0,0.0,0.0,0.0,0.0,0.0,0.0,0.0,0.0,0.0,0.0,0.0,0.0,0.0,0.0,0.0,0.0,0.0,0.0,0.0,0.0,0.0,0.0,-0.1298,-0.1577,0.0,0.0,0.0,0.0,-0.1608,-0.1831,-0.1915,-0.178,-0.2198,-0.2447,-0.2458,-0.272,-0.2862,-0.2886,-0.3,-0.3071,-0.3077,-0.3087,-0.3185,-0.3372,-0.3313,-0.338,-0.3546,-0.3546,-0.3465,-0.3244,-0.2224,-0.1777,-0.1754,-0.1754,-0.1388,-0.0851,-0.0853,-0.0486,0.0,0.0,0.002,0.0118,0.0699,0.1071,0.1286,0.1278,0.1606,0.0,0.0,0.2519,0.3125,0.3249,0.3296,0.3343,0.3534,0.3597,0.36,0.359,0.3453,0.33,0.0,0.3788,0.4253,0.3874,0.0,0.4576,0.5184,0.5516,0.5903,0.6501,0.682,0.6986,0.7,0.7,0.7,0.7,0.6986,0.686,0.6607,0.6344,0.6023,0.5708,0.5823,0.5883,0.5865,0.5423,0.0,0.0,0.0,0.0,0.0,0.0,0.0,0.0,0.0,0.0,0.0,0.0,0.0,0.0,0.0,0.0,0.0,0.0,0.0,0.0,0.0,0.0,0.0,0.0,0.0,0.0,0.0,0.0,-0.2449,-0.2715,0.0,-0.2822,-0.2867,-0.2876,-0.2829,-0.2745,-0.2692,-0.2634,-0.2625,-0.2662,-0.2761,-0.3228,-0.3525,-0.3605,-0.4045,-0.4266,-0.4252,-0.4357,-0.4217,-0.3909,-0.397,-0.3865,-0.3604,-0.3604,-0.357,-0.3497,-0.3122,-0.2677,-0.2253,-0.2344,-0.2001,-0.1429,-0.1043,-0.0772,-0.0514,-0.0129,0.0,0.0043,0.024,0.0383,0.0472,0.0472,0.085,0.1295,0.1295,0.2038,0.2862,0.291,0.3209,0.351,0.359,0.3604,0.3604,0.3604,0.3609,0.3619,0.3565,0.3626,0.3746,0.3906,0.4042,0.4342,0.4962,0.5414,0.585,0.629,0.6731,0.7,0.7,0.7,0.7,0.7,0.7,0.688,0.6607,0.635,0.6043,0.5708,0.5821,0.6021,0.6283,0.6117,0.5871,0.0,0.0,0.0,0.0,0.0,0.0,0.0,0.0,0.0,0.0,0.0,0.0,0.0,0.0,0.0,0.0,0.0,0.0,0.0,0.0,0.0,0.0,0.0,0.0,0.0,0.0,-0.3089,-0.3218,-0.3451,-0.3608,-0.3608,-0.3635,-0.3668,-0.3668,-0.35,-0.3401,-0.3401,-0.3315,-0.3316,-0.3401,-0.3948,-0.4281,-0.4364,-0.4813,-0.5032,-0.5032,-0.5117,-0.4852,-0.4261,-0.4358,-0.4124,-0.3672,-0.3624,-0.3628,-0.3668,-0.3621,-0.3309,-0.2879,-0.2968,-0.2631,-0.2056,-0.1696,-0.1293,-0.0823,-0.0206,0.0,0.0,0.0,0.0,0.0,0.0,0.0429,0.0901,0.0901,0.1616,0.2406,0.2406,0.2835,0.3306,0.3306,0.3442,0.3614,0.3665,0.3747,0.3809,0.386,0.3687,0.3638,0.3943,0.4008,0.4248,0.4999,0.5503,0.5964,0.6413,0.6873,0.7134,0.7013,0.7,0.7,0.7,0.7,0.692,0.6747,0.6392,0.6102,0.5872,0.6025,0.6229,0.6503,0.6639,0.6401,0.5803,0.0,0.0,0.0,0.0,0.0,0.0,0.0,0.0,0.0,0.0,0.0,0.0,0.0,0.0,0.0,0.0,0.0,0.0,0.0,0.0,0.0,0.0,0.0,-0.3472,-0.3376,-0.3432,-0.3563,-0.3752,-0.3873,-0.3873,-0.3972,-0.4042,-0.4042,-0.4026,-0.4026,-0.4026,-0.4269,-0.441,-0.4403,-0.4877,-0.5131,-0.5136,-0.5281,-0.5346,-0.5346,-0.5346,-0.5043,-0.4456,-0.4461,-0.4253,-0.3852,-0.374,-0.3741,-0.3835,-0.3694,-0.3636,-0.3607,-0.3604,-0.3243,-0.2759,-0.2851,-0.2065,-0.0859,-0.0239,-0.0023,-0.0023,0.0,0.0,0.0,0.0,0.0405,0.0875,0.0875,0.1299,0.1765,0.1765,0.2212,0.2682,0.2707,0.316,0.3629,0.3768,0.3802,0.3849,0.3974,0.4004,0.4004,0.3998,0.3994,0.4336,0.5316,0.5767,0.0,0.6886,0.7279,0.739,0.7046,0.7013,0.7013,0.7,0.7,0.7,0.6986,0.6492,0.6196,0.6196,0.6389,0.6489,0.652,0.6892,0.6683,0.5823,0.0,0.0,0.0,0.0,0.0,0.0,0.0,0.0,0.0,0.0,0.0,0.0,0.0,0.0,0.0,0.0,0.0,0.0,0.0,0.0,0.0,-0.5222,-0.5264,-0.4754,-0.506,-0.5353,-0.5383,-0.5348,-0.5321,-0.5321,-0.5092,-0.4944,-0.4944,-0.4634,-0.4441,-0.4441,-0.4423,-0.4441,-0.4539,-0.5292,-0.5751,-0.5899,-0.6322,-0.6528,-0.6528,-0.6528,-0.6252,-0.5707,-0.5897,-0.5689,-0.5176,-0.5391,-0.5205,-0.4747,-0.4698,-0.4322,-0.3747,-0.3645,-0.3549,-0.3453,-0.3043,-0.244,-0.1736,-0.1043,-0.0789,-0.0709,-0.0172,0.0,0.0,0.0,0.012,0.0258,0.0258,0.068,0.1146,0.1146,0.1599,0.2192,0.2725,0.297,0.3247,0.3826,0.4018,0.4109,0.4127,0.427,0.4273,0.4031,0.3994,0.4101,0.4377,0.5328,0.0,0.6256,0.7153,0.7689,0.7397,0.7363,0.7255,0.702,0.7,0.6913,0.672,0.6378,0.6196,0.6196,0.6027,0.6184,0.6779,0.6987,0.6816,0.0,0.0,0.0,0.0,0.0,0.0,0.0,0.0,0.0,0.0,0.0,0.0,0.0,0.0,0.0,0.0,0.0,0.0,0.0,0.0,0.0,0.0,-0.6548,-0.6781,-0.6711,-0.6462,-0.6261,-0.6261,-0.62,-0.6152,-0.6152,-0.5944,-0.5734,-0.557,-0.541,-0.5232,-0.5074,-0.5228,-0.5366,-0.5429,-0.6049,-0.6414,-0.6541,-0.6852,-0.7,-0.7,-0.7,-0.6732,-0.6212,-0.6353,-0.622,-0.5825,-0.595,-0.5862,-0.5628,-0.5589,-0.5051,0.0,0.0,0.0,0.0,0.0,-0.265,-0.2082,-0.1364,-0.0893,-0.058,-0.0152,0.0,0.0,0.0,0.0,0.0,0.0,0.0244,0.0512,0.0513,0.0967,0.1609,0.2338,0.2713,0.3126,0.3923,0.4133,0.4214,0.4301,0.4433,0.0,0.4236,0.4206,0.4259,0.4444,0.5484,0.6263,0.6336,0.7364,0.8003,0.7689,0.7564,0.7417,0.7221,0.7073,0.0,0.0,0.0,0.6392,0.6446,0.6478,0.0,0.0,0.0,0.0,0.0,0.0,0.0,0.0,0.6706,0.6807,0.0,0.0,0.0,0.0,0.0,0.0,0.0,0.0,0.0,0.0,0.0,0.0,0.0,0.0,0.0,0.0,-0.806,-0.8453,-0.8804,-0.7646,-0.6751,-0.6706,-0.6624,-0.6564,-0.6564,-0.6533,-0.6351,-0.5991,-0.623,-0.6234,-0.5875,0.0,0.0,0.0,0.0,-0.7168,-0.7105,-0.7105,-0.7083,-0.7053,-0.7053,-0.6798,-0.6355,-0.6421,-0.6361,-0.6213,-0.6097,-0.6242,-0.653,-0.6425,-0.5813,-0.4867,-0.4126,-0.3819,-0.3781,-0.3405,-0.2932,-0.2342,-0.1519,0.0,0.0,-0.0051,0.0,0.0,0.0,0.0,0.0,0.0,0.0,0.0,0.0,0.0405,0.0988,0.1721,0.2358,0.3054,0.3924,0.4164,0.4284,0.4464,0.4491,0.4491,0.4491,0.4491,0.4634,0.4985,0.5846,0.6549,0.6753,0.7691,0.8229,0.7985,0.0,0.0,0.7497,0.7228,0.704,0.7006,0.678,0.6694,0.6771,0.7274,0.7741,0.8176,0.8654,0.8936,0.9004,0.9004,0.9023,0.9043,0.7871,0.7754,0.0,0.0,0.0,0.0,0.0,0.0,0.0,0.0,0.0,0.0,0.0,0.0,0.0,0.0,0.0,-0.904,-0.9096,-0.9112,-0.9193,-0.8717,-0.8252,-0.7984,-0.7384,-0.6984,-0.6984,-0.6691,-0.6473,-0.6397,-0.6738,-0.6917,-0.6835,-0.7508,-0.7902,-0.7902,-0.8206,-0.8165,-0.7725,-0.7725,-0.7617,-0.7404,0.0,0.0,-0.7262,-0.7747,-0.7801,-0.7561,-0.8005,-0.7924,-0.7456,-0.743,-0.6535,-0.5128,-0.4292,-0.395,-0.3987,-0.4174,-0.4142,-0.3862,-0.2457,-0.1898,-0.1588,-0.0384,0.0,0.0,0.0,0.0,0.0,0.0,0.0,0.0,0.0,0.0077,0.0369,0.1103,0.1822,0.2548,0.3309,0.3978,0.4457,0.4484,0.4491,0.4491,0.4491,0.4491,0.4532,0.4614,0.5253,0.5923,0.6548,0.7348,0.795,0.8267,0.8261,0.8027,0.7553,0.7437,0.7275,0.7013,0.6946,0.6827,0.665,0.7054,0.7505,0.8023,0.8246,0.8566,0.9004,0.9004,0.9162,0.9474,0.8889,0.8889,0.0,0.0,0.0,0.0,0.0,0.0,0.0,0.0,0.0,0.0,0.0,-0.9133,-0.9405,0.0,-1.0248,-1.1026,-1.0567,-1.0212,-1.0548,-0.9993,-0.9308,-0.8623,-0.8192,-0.7882,-0.7715,-0.7516,-0.7237,-0.6826,-0.7317,-0.756,-0.7356,-0.8063,-0.8442,-0.8442,-0.8625,-0.8574,-0.8296,-0.8154,-0.8041,-0.7892,-0.7759,-0.7638,-0.7527,-0.7943,-0.8045,-0.7932,-0.8397,-0.8456,-0.8223,-0.7766,-0.6899,-0.578,-0.497,-0.4434,-0.4136,-0.4409,-0.4236,-0.379,-0.301,-0.2508,-0.2009,-0.0923,-0.056,-0.0476,-0.0112,0.0,0.0,0.0,0.0,0.0,0.0,0.0,0.0181,0.0932,0.1389,0.1937,0.2968,0.3572,0.3995,0.4301,0.444,0.4491,0.4491,0.4491,0.4491,0.4491,0.5085,0.576,0.6507,0.7235,0.7941,0.8527,0.8489,0.8275,0.7966,0.7665,0.7424,0.7255,0.7101,0.6933,0.6814,0.7287,0.7809,0.8352,0.8689,0.9115,0.9648,0.9853,1.0049,1.0254,1.0303,1.0273,0.0,0.0,0.0,0.0,0.0,0.0,0.0,0.0,-0.9236,-0.9251,-1.0133,-1.104,-1.1459,-1.1502,-1.1779,-1.2836,-1.2081,-1.1556,-1.2098,-1.127,-1.0314,-0.949,-0.9097,-0.8792,-0.8512,-0.8439,-0.8127,-0.7477,-0.8154,-0.8461,-0.814,-0.877,-0.9151,-0.9151,-0.9059,-0.8958,-0.8857,-0.872,-0.8555,-0.8364,-0.8262,-0.8024,-0.7672,-0.7956,-0.8045,-0.8012,-0.833,-0.8591,-0.8738,-0.8049,-0.7226,-0.6369,-0.5776,-0.5019,-0.4277,-0.4447,-0.4098,-0.3511,-0.3345,-0.2926,-0.2313,-0.1563,-0.1229,-0.0978,-0.0392,-0.0112,0.0,0.0,0.0,0.0,0.0,0.0,0.015,0.0749,0.1004,0.1436,0.2641,0.3082,0.3432,0.4046,0.4321,0.445,0.445,0.447,0.4491,0.4491,0.4948,0.5628,0.6475,0.7128,0.783,0.8699,0.8597,0.8462,0.8402,0.7893,0.7578,0.7578,0.7328,0.718,0.718,0.7638,0.8206,0.8882,0.9316,0.9866,1.0547,1.089,1.1035,1.1045,1.1506,1.1516,-1.0646,-0.9547,-0.8981,-0.9344,-0.9435,-0.9811,0.0,0.0,-1.2234,-1.2299,-1.2896,-1.3422,-1.3485,-1.3241,-1.3176,-1.3625,-1.3313,-1.3071,-1.3129,-1.2317,-1.1684,-1.1569,-1.0184,-0.9232,-0.9192,-0.8917,-0.8706,-0.8612,-0.9511,-1.0042,-0.9994,-1.0469,-1.0743,-1.0743,-1.0341,-0.9902,-0.9419,-0.9742,-0.9478,-0.8651,-0.9047,-0.8901,-0.8308,-0.8577,-0.8571,-0.8368,-0.8631,-0.8778,-0.8804,-0.8692,-0.7841,-0.658,-0.6499,-0.5629,-0.4467,-0.4484,-0.4432,-0.4267,-0.3539,-0.3287,-0.3121,-0.2343,-0.1647,-0.109,-0.1006,-0.0532,0.0,0.0,0.0,0.0,0.0,0.0,0.0024,0.0096,0.0616,0.1286,0.1987,0.2647,0.3313,0.3893,0.4142,0.4244,0.4244,0.4379,0.4491,0.4491,0.457,0.5089,0.6426,0.6669,0.7262,0.8646,0.8778,0.8657,0.8422,0.807,0.7852,0.7852,0.7826,0.7806,0.7806,0.7852,0.8437,0.9571,0.9639,1.0264,1.1459,1.1508,1.1506,1.1526,1.1943,1.2106,-1.2752,-1.1931,-1.1314,0.0,-1.2221,-1.2548,-1.3174,-1.3632,-1.3934,-1.3957,-1.4499,-1.4962,-1.4962,-1.4841,-1.4934,0.0,-1.4773,-1.4306,-1.4696,-1.357,-1.2709,-1.2709,-1.139,-1.0305,-0.9919,-0.9754,-0.952,-0.9122,-1.002,-1.05,-1.0311,-1.1032,-1.1319,-1.1008,-1.0821,-1.0476,-0.9981,-0.9969,-0.993,-0.9802,-0.9859,-0.9549,-0.8987,-0.927,-0.9115,-0.8637,-0.8751,-0.8804,-0.8778,-0.8348,-0.753,-0.6561,-0.6118,-0.5359,-0.4491,-0.4491,-0.4491,-0.446,-0.4125,-0.4015,-0.3901,-0.3148,-0.2704,-0.2259,-0.1369,-0.0895,-0.056,-0.0112,0.0,0.0,0.0,0.0,0.0,0.0,0.0234,0.0614,0.1225,0.1939,0.265,0.3254,0.3827,0.4197,0.4197,0.4368,0.4491,0.4491,0.4491,0.5007,0.6426,0.6588,0.7155,0.8646,0.8804,0.8758,0.8637,0.8357,0.819,0.819,0.8005,0.7905,0.7905,0.7905,0.8294,0.9105,0.9128,0.974,1.1016,1.1249,1.1562,1.1963,1.2402,1.2607,-1.4174,0.0,0.0,-1.4068,-1.4559,-1.4889,-1.4671,-1.5091,-1.5446,-1.509,-1.5544,-1.5945,-1.5658,-1.5521,-1.5691,-1.6374,-1.5683,-1.5284,-1.5984,-1.4701,-1.3771,-1.3971,-1.2783,-1.1762,-1.1282,-1.0779,-1.0336,-1.0044,-1.0835,-1.1247,-1.1058,-1.1739,-1.1923,-1.142,-1.13,-1.0981,-1.0505,-1.0545,-1.0579,-1.0593,-1.0638,-1.0336,-0.9793,-0.9804,-0.9439,-0.8804,-0.8804,-0.8758,-0.8658,-0.8103,-0.7348,-0.643,-0.5863,-0.5162,-0.4484,-0.4447,-0.4457,-0.4491,-0.4491,-0.4464,-0.4321,-0.3796,-0.3471,-0.3069,-0.1977,-0.1378,-0.094,-0.0447,-0.0161,0.0,0.0,0.0,0.0,0.0,0.0,0.0157,0.0761,0.1442,0.2123,0.2727,0.3523,0.4095,0.4095,0.4243,0.4382,0.4423,0.4429,0.4876,0.614,0.6664,0.7396,0.8672,0.8804,0.8804,0.8804,0.8617,0.8516,0.8516,0.829,0.8145,0.8145,0.8145,0.8407,0.8991,0.9008,0.9644,1.0929,1.1208,1.1623,1.2111,1.244,1.2608,0.0,0.0,-1.5489,-1.5375,-1.5859,-1.6274,-1.601,-1.6721,-1.7064,-1.5841,-1.6099,-1.6275,-1.5297,-1.4863,-1.4887,-1.5603,-1.5695,-1.593,-1.6674,-1.5555,-1.4911,-1.5642,-1.448,-1.3615,0.0,-1.194,-1.1131,-1.1776,-1.2333,-1.2727,-1.292,-1.3021,-1.2862,-1.2473,-1.2011,-1.1516,-1.0981,-1.1809,-1.1677,-1.0602,-1.1379,-1.1399,-1.0746,-1.0082,-0.9439,-0.8804,-0.8804,-0.8651,-0.8415,-0.8383,-0.7525,-0.6202,-0.6051,-0.5362,-0.4474,-0.4277,-0.4341,-0.4491,-0.4491,-0.4372,-0.4204,-0.4174,-0.3608,-0.2943,-0.3023,-0.2048,-0.0939,-0.1025,-0.0545,0.0,0.0,0.0,0.0,0.0,0.0,0.0157,0.0761,0.1386,0.1988,0.2588,0.3304,0.3805,0.3805,0.3931,0.4058,0.418,0.4204,0.454,0.5412,0.6794,0.7969,0.8725,0.8804,0.8804,0.8804,0.8798,0.8791,0.8791,0.8784,0.8784,0.8784,0.8784,0.9079,0.9758,0.9758,1.0434,1.1753,1.1771,1.1796,1.1796,1.1839,1.1839,-1.5597,0.0,-1.6744,-1.7048,-1.7193,-1.734,-1.7648,-1.8002,-1.7957,-1.6991,-1.6962,-1.6871,-1.5987,-1.5738,-1.5863,-1.6467,-1.6564,-1.6779,-1.7379,-1.6484,-1.5851,-1.6097,-1.5124,0.0,0.0,0.0,0.0,-1.2446,-1.292,-1.3301,-1.3459,-1.356,-1.3416,-1.2896,-1.249,-1.2029,-1.1542,-1.1834,-1.1886,-1.1729,-1.1793,-1.169,-1.1441,-1.0771,-1.009,-0.9465,-0.9465,-0.9155,-0.8618,-0.7955,-0.7493,-0.7065,-0.5772,-0.5178,-0.4956,-0.4302,-0.4166,-0.4308,-0.4457,-0.4368,-0.4197,-0.4197,-0.3939,-0.3549,-0.311,-0.2343,-0.1546,-0.1079,-0.051,0.0,0.0,0.0,0.0,0.0,0.0,0.0045,0.0269,0.0784,0.1385,0.1984,0.2697,0.3339,0.3721,0.3977,0.4193,0.4368,0.4788,0.5344,0.6136,0.7095,0.799,0.8725,0.8804,0.8804,0.8804,0.8804,0.8804,0.8804,0.8804,0.8804,0.8804,0.8804,0.891,0.9133,0.9562,1.0244,1.1141,1.1141,1.1375,1.1792,1.135,1.1539,-1.6888,-1.7392,-1.7909,-1.8522,-1.8559,-1.854,-1.8931,-1.8792,-1.8324,-1.7439,-1.6779,-1.6186,-1.5625,-1.5231,-1.5282,-1.6203,-1.6578,-1.6964,-1.7566,-1.7127,-1.6833,-1.7095,-1.6319,-1.5731,0.0,0.0,0.0,-1.386,-1.4025,-1.4201,-1.4371,-1.4344,-1.4106,-1.3624,-1.3208,-1.2754,-1.2271,-1.2484,-1.2662,-1.282,-1.2406,-1.2055,-1.1789,-1.1366,-1.0788,-1.0141,-0.9917,-0.9496,-0.8959,-0.805,-0.7647,-0.7437,-0.6171,-0.5553,-0.5287,-0.4642,-0.4317,-0.42,-0.429,-0.4243,-0.4132,-0.4078,-0.396,-0.3726,-0.3088,-0.2455,-0.1798,-0.1161,-0.0506,0.0,0.0,0.0,0.0,0.0,0.0,0.0,0.0,0.0471,0.1073,0.1674,0.2347,0.3028,0.3688,0.4021,0.4254,0.4372,0.4832,0.5492,0.648,0.702,0.7696,0.8699,0.8804,0.8804,0.8804,0.8804,0.8804,0.8804,0.8804,0.8804,0.8804,0.8804,0.8804,0.8804,0.9211,0.9821,1.0631,1.0631,1.0878,1.1401,1.0946,1.1307,-1.8357,-1.8801,-1.9047,-1.9748,-1.9865,-1.9794,-1.9756,-1.9092,-1.82,-1.7126,-1.5641,-1.4452,0.0,0.0,-1.3345,-1.489,-1.5811,-1.6568,-1.7303,-1.7489,-1.7817,0.0,0.0,0.0,0.0,0.0,0.0,-1.6012,0.0,-1.5435,-1.5646,-1.533,-1.4953,-1.458,-1.4149,-1.368,-1.3145,-1.3698,-1.3925,-1.3742,-1.3218,-1.255,-1.1864,-1.1864,-1.1466,-1.0762,-1.0141,-0.9667,-0.9308,-0.867,-0.7999,-0.7361,-0.7133,-0.6436,-0.551,-0.5165,-0.4679,-0.416,-0.4028,-0.3977,-0.396,-0.3839,-0.372,-0.3513,-0.3039,-0.239,-0.1711,-0.1219,-0.0557,0.0,0.0,0.0,0.0,0.0,0.0,0.0,0.0,0.0448,0.1051,0.1674,0.2319,0.2982,0.3681,0.4018,0.4187,0.4204,0.4375,0.5007,0.6367,0.6588,0.7155,0.8593,0.8778,0.8804,0.8804,0.8804,0.8804,0.8804,0.8824,0.8831,0.8831,0.8844,0.8851,0.8851,0.8878,0.938,1.031,1.031,1.0439,1.0708,1.0651,1.1105,-1.8969,-1.9441,-1.9886,-2.0076,-2.0038,-1.9784,-1.9126,-1.8812,-1.8037,-1.5881,-1.5094,-1.4395,0.0,0.0,0.0,-1.4331,-1.5569,0.0,-1.7321,-1.7922,0.0,-1.8577,0.0,-1.8284,-1.8218,-1.8218,0.0,0.0,-1.6703,-1.612,-1.6475,-1.5834,-1.5433,-1.533,-1.4694,-1.4136,-1.3696,-1.3893,-1.3737,-1.3216,-1.3443,-1.3252,-1.2608,-1.2608,-1.194,-1.0788,-1.0618,-0.9941,-0.893,-0.8558,-0.8395,-0.8274,-0.6853,-0.6242,-0.5993,-0.4634,-0.4091,-0.4014,-0.3782,-0.3761,-0.3843,-0.3802,-0.372,-0.3496,-0.2934,-0.2313,-0.1679,-0.1109,-0.0495,0.0,0.0,0.0,0.0,0.0,0.0,0.0,0.0,0.0112,0.0538,0.1607,0.2657,0.3498,0.3893,0.4001,0.4129,0.4375,0.4467,0.4814,0.5683,0.6258,0.6966,0.7883,0.848,0.8804,0.8804,0.8804,0.8804,0.8804,0.8984,0.9098,0.9098,0.9345,0.9459,0.9459,0.9946,1.034,1.0589,1.0589,1.0626,1.0686,1.0186,1.0848,-1.9706,-2.0068,-2.032,-2.032,-1.9961,-1.9377,-1.8508,-1.7751,-1.6692,-1.4887,-1.3892,0.0,-1.2595,-1.2764,0.0,0.0,0.0,0.0,-1.7095,-1.7871,-1.8509,0.0,-1.8904,0.0,-1.8789,-1.878,-1.8734,0.0,-1.7509,-1.6951,-1.717,-1.6528,-1.618,-1.6346,-1.574,-1.5193,-1.469,-1.4406,-1.399,-1.3447,-1.3691,-1.3486,-1.2933,-1.2904,-1.228,-1.1216,-1.0939,-1.0218,-0.9197,-0.8753,-0.8657,-0.8666,-0.7272,-0.6615,-0.6233,-0.4873,-0.4189,-0.3887,-0.3682,-0.3655,-0.372,-0.372,-0.3668,-0.349,-0.2876,-0.2289,-0.1684,-0.1067,-0.0461,0.0,0.0,0.0,0.0,0.0,0.0,0.0,0.0,0.0,0.0359,0.1563,0.2873,0.3826,0.3967,0.4128,0.427,0.4464,0.4491,0.4625,0.5003,0.5959,0.6885,0.7616,0.8374,0.8804,0.8804,0.8804,0.8864,0.8958,0.9124,0.9271,0.9397,0.9593,0.9715,0.9715,1.0077,1.0336,1.0441,1.0441,1.0512,1.0647,1.0271,1.1076,-2.0391,-2.0563,-2.0512,-2.0512,-1.9809,-1.8861,-1.7881,-1.644,-1.4997,-1.389,0.0,-1.1611,-1.2251,-1.2356,-1.2589,-1.3334,0.0,-1.6023,-1.6835,-1.7644,-1.8444,-1.9262,-1.935,-1.9259,-1.9102,-1.9052,-1.894,-1.8716,-1.818,-1.7836,-1.7776,-1.7227,-1.7021,-1.7225,-1.6743,-1.6208,-1.5681,-1.5027,-1.4446,-1.3971,-1.4005,-1.3671,-1.2995,-1.3013,-1.2574,-1.1765,-1.1091,-1.0415,-0.9736,-0.9087,-0.8752,-0.8593,-0.783,-0.7024,-0.6164,-0.5299,-0.448,-0.3802,-0.3679,-0.3617,-0.3604,-0.3604,-0.3604,-0.349,-0.2876,-0.2273,-0.1679,-0.1079,-0.0477,0.0,0.0,0.0,0.0,0.0,0.0,0.0,0.0,0.0135,0.0538,0.1607,0.2966,0.3971,0.3991,0.425,0.4467,0.4487,0.4491,0.4491,0.4491,0.5719,0.6858,0.7482,0.8295,0.8804,0.8804,0.8844,0.8944,0.9198,0.9284,0.9444,0.9733,0.9809,0.9829,0.9829,0.9829,0.992,1.0174,1.0174,1.0307,1.0593,1.0593,1.1452,-2.0566,-2.0586,-2.0585,-2.0585,-1.992,-1.8845,-1.7243,-1.611,0.0,0.0,-1.1699,-1.1316,-1.0735,-1.1113,-1.1765,-1.2551,0.0,0.0,0.0,0.0,-1.8744,0.0,0.0,-1.9534,-1.9499,-1.9353,0.0,0.0,-1.8939,-1.8577,-1.8139,-1.7743,-1.7332,-1.69,-1.6157,-1.5713,-1.5624,-1.533,-1.4725,-1.384,-1.4704,-1.437,-1.3017,-1.3453,-1.2972,-1.1765,-1.1091,0.0,-0.9736,-0.9087,-0.8427,-0.7803,-0.7074,-0.6311,-0.5555,-0.4673,-0.4187,-0.3958,-0.3809,-0.3703,-0.3604,-0.3604,-0.3604,-0.349,-0.2876,-0.2273,-0.1669,-0.1067,-0.0467,0.0,0.0,0.0,0.0,0.0,0.0,0.0,0.0,0.0784,0.1541,0.1762,0.2899,0.387,0.3974,0.4142,0.4297,0.447,0.4491,0.4491,0.4491,0.5719,0.6642,0.6777,0.7996,0.8804,0.8804,0.8998,0.9158,0.9211,0.9664,0.9957,1.004,1.0311,1.0439,1.0439,1.0439,1.0466,1.0512,1.0512,1.0539,1.0593,1.0593,1.1452,-2.0488,-2.0605,-2.0488,-2.0039,-1.9277,-1.8047,-1.5859,0.0,0.0,0.0,-0.981,-0.9482,-0.9513,-1.0173,0.0,0.0,0.0,0.0,0.0,0.0,0.0,0.0,0.0,0.0,0.0,-1.955,-1.9464,-1.9464,-1.9277,-1.899,-1.865,-1.8353,-1.8009,-1.7591,-1.6862,-1.6379,-1.6129,-1.558,-1.4812,-1.3864,-1.4407,-1.4078,-1.3011,-1.3269,-1.2801,-1.1765,-1.1091,-1.0415,-0.9736,-0.9087,-0.8374,-0.7616,-0.6885,-0.6111,-0.5302,-0.4411,-0.4008,-0.388,-0.3734,-0.3658,-0.3604,-0.3604,-0.3604,-0.3556,-0.3262,-0.2743,-0.2136,-0.155,-0.0939,-0.0397,-0.0079,0.0,0.0,0.0,0.0,0.0,0.0,0.0939,0.1808,0.1808,0.2881,0.3839,0.3967,0.4119,0.4271,0.4467,0.4491,0.4491,0.4491,0.5719,0.6588,0.6588,0.791,0.8804,0.8804,0.9044,0.9277,0.9459,0.9873,1.0187,1.0341,1.0512,1.0593,1.0593,1.0593,1.0593,1.0593,1.0593,1.0593,1.0593,1.0593,1.1452,-2.0076,-2.0312,-2.0156,-1.9452,-1.8632,-1.7324,-1.4707,-1.2753,0.0,0.0,-0.8268,-0.7825,-0.8507,0.0,-0.997,0.0,-1.1592,-1.2675,0.0,0.0,0.0,0.0,0.0,0.0,-1.9871,-1.9749,0.0,-1.9596,-1.9402,-1.918,-1.8931,-1.871,-1.8483,-1.8199,-1.7615,-1.7089,-1.6651,-1.589,-1.5055,-1.4163,-1.4229,-1.3872,-1.3146,-1.3194,-1.2775,-1.1996,-1.13,-1.0618,-0.9969,-0.9283,-0.8501,-0.7643,-0.7074,-0.6214,-0.5215,-0.4576,-0.4098,-0.3782,-0.37,-0.3655,-0.3604,-0.3604,-0.3604,-0.3604,-0.3604,-0.3081,-0.2402,-0.1925,-0.1274,-0.0604,-0.0128,0.0,0.0,0.0,0.0,0.0,0.0,0.0939,0.1808,0.1808,0.2881,0.3839,0.3967,0.4119,0.4271,0.4467,0.4491,0.4491,0.4491,0.5578,0.6421,0.6588,0.791,0.8804,0.8804,0.9104,0.9411,0.9666,1.002,1.0314,1.0579,1.0593,1.0593,1.0593,1.0593,1.0593,1.0593,1.0593,1.0593,1.0593,1.0593,1.1519,-1.9104,-1.9361,-1.9394,-1.9246,-1.8609,-1.7324,-1.4707,0.0,0.0,-0.9354,-0.8298,-0.7692,-0.7715,-0.7832,-0.8456,0.0,0.0,-1.152,0.0,0.0,0.0,0.0,0.0,0.0,-2.0088,-1.995,-1.9801,-1.9616,-1.9402,-1.9115,-1.8651,-1.8383,-1.8121,-1.785,-1.7491,-1.7137,-1.6794,-1.639,-1.5799,-1.4997,-1.5131,-1.4642,-1.3642,-1.3766,-1.344,-1.2749,-1.2033,-1.1334,0.0,-0.9987,-0.8928,-0.7696,-0.7616,-0.6665,-0.5293,-0.5356,-0.4707,-0.3809,-0.3934,-0.3802,-0.3604,-0.3604,-0.3604,-0.3604,-0.3604,-0.279,-0.1875,-0.1817,-0.0971,-0.0072,-0.0024,0.0,0.0,0.0,0.0,0.0,0.0,0.0939,0.1808,0.1808,0.2881,0.3839,0.3967,0.4119,0.4271,0.4467,0.4491,0.4491,0.4491,0.5136,0.5869,0.6534,0.791,0.8804,0.8804,0.9319,0.9653,0.9686,1.0238,1.0566,1.0593,1.0593,1.0593,1.0593,1.0593,1.0593,1.0593,1.0593,1.0593,1.0593,1.0593,1.166,-1.804,-1.8443,-1.8321,-1.7779,-1.7008,-1.5847,-1.3782,0.0,-0.9684,-0.8476,-0.7108,-0.6288,-0.6777,-0.6894,-0.748,-0.9194,-0.9482,-1.0308,-1.2637,0.0,0.0,0.0,0.0,0.0,0.0,0.0,-1.9907,-1.9623,-1.9527,-1.9289,-1.8861,-1.8585,-1.832,-1.8057,-1.7567,-1.7138,-1.6802,-1.6198,-1.5607,-1.5104,-1.491,-1.4445,-1.3772,-1.4146,-1.381,-1.2939,-1.2551,-1.178,0.0,-1.009,-0.8981,-0.7696,-0.7696,-0.6712,-0.531,-0.5356,-0.47,-0.3799,-0.3863,-0.3748,-0.3604,-0.3604,-0.335,-0.3056,-0.3056,-0.2477,-0.1719,-0.1362,-0.0906,-0.0462,-0.0095,0.0,0.0,0.0,0.0,0.0,0.0,0.0939,0.1808,0.1808,0.2827,0.3733,0.3856,0.3984,0.4136,0.4284,0.4433,0.4491,0.4491,0.5081,0.5787,0.6529,0.7536,0.8315,0.8752,0.9345,0.9715,0.9715,1.0265,1.0593,1.0593,1.0593,1.0593,1.0593,1.0593,1.0593,1.0593,1.0593,1.0593,1.0593,1.0774,1.1825,-1.67,-1.7297,-1.7313,-1.6438,-1.5746,-1.473,0.0,-1.0431,-0.8659,-0.7537,-0.613,-0.5288,-0.5897,-0.6014,-0.6581,-0.834,-0.8612,-0.9387,-1.1583,-1.3118,0.0,0.0,0.0,-1.9113,0.0,-2.0088,-2.0009,-1.9771,-1.9663,-1.9478,-1.919,-1.8896,-1.8556,-1.8208,-1.7794,-1.7363,-1.6939,-1.638,-1.5876,-1.5448,-1.5031,-1.4523,-1.3997,-1.4256,-1.3789,-1.2787,-1.269,-1.1877,0.0,-1.0113,-0.9184,-0.8023,-0.8023,-0.7034,-0.5617,-0.568,-0.4885,-0.3799,-0.3843,-0.3737,-0.3578,-0.3398,-0.2923,-0.2406,-0.2228,-0.1873,-0.1451,-0.1029,-0.0761,-0.0541,-0.0116,0.0,0.0,0.0,0.0,0.0,0.0,0.0939,0.1808,0.1808,0.2771,0.3648,0.3768,0.3917,0.4048,0.4174,0.4368,0.4491,0.4491,0.4924,0.5574,0.6507,0.7074,0.7779,0.8817,0.9392,0.9719,0.9806,1.0311,1.0593,1.0593,1.0593,1.0593,1.0593,1.0593,1.0593,1.0593,1.0593,1.0593,1.0593,1.0801,1.1945,-1.5006,-1.5909,-1.6404,-1.5532,-1.5313,-1.4417,0.0,-0.9537,-0.8419,-0.6761,-0.5705,-0.5095,-0.5116,-0.5121,-0.5692,-0.7438,-0.7714,-0.8905,-1.2308,-1.3532,0.0,0.0,0.0,-1.8338,-1.9121,-1.9746,-2.0108,-2.0104,-1.9781,0.0,-1.9582,-1.9206,-1.8752,-1.8218,-1.8187,-1.7904,-1.7308,-1.7296,-1.6948,-1.6287,-1.5805,-1.5169,-1.4384,-1.3984,-1.3256,-1.2309,-1.2319,-1.1513,0.0,-1.0197,-0.9647,-0.8778,-0.8778,-0.78,-0.6411,-0.653,-0.54,-0.3812,-0.394,-0.3826,-0.3512,-0.2898,-0.2295,-0.1697,-0.1096,-0.0918,-0.0918,-0.0895,-0.0471,0.0,0.0,0.0,0.0,0.0,0.0,0.0,0.0,0.0939,0.1808,0.1808,0.2771,0.3648,0.3768,0.3917,0.4048,0.4174,0.4368,0.4491,0.4491,0.4519,0.5034,0.6453,0.6615,0.7307,0.9039,0.9512,0.9806,1.0094,1.0425,1.0593,1.0593,1.0593,1.0593,1.0593,1.0593,1.0593,1.0593,1.0593,1.0593,1.0593,1.0593,1.1914,-1.2363,-1.2813,-1.2844,-1.1966,-1.175,-1.131,-0.9687,-0.8633,-0.77,-0.6623,-0.5702,-0.511,-0.51,-0.5101,-0.5861,-0.8138,-0.8566,0.0,0.0,0.0,0.0,-1.6561,-1.8515,-1.9862,0.0,0.0,-2.0308,-2.0104,-2.0009,-1.9834,-1.9609,-1.9478,-1.9204,-1.8761,-1.8391,-1.8012,-1.7574,-1.7399,-1.696,-1.6301,-1.616,-1.5507,-1.4487,-1.4724,-1.3926,-1.2398,-1.2766,-1.1995,-1.047,-1.0281,-0.9757,-0.9044,-0.8881,-0.7826,-0.6411,-0.6556,-0.5404,-0.3812,-0.3944,-0.3826,-0.3512,-0.2898,-0.2297,-0.1697,-0.1073,-0.0605,-0.0292,-0.0292,-0.0157,0.0,0.0,0.0,0.0,0.0,0.0,0.0,0.0,0.0939,0.1808,0.1808,0.2771,0.3617,0.3662,0.3768,0.3917,0.4045,0.4193,0.4351,0.4477,0.4491,0.5034,0.6453,0.6588,0.7307,0.9046,0.9512,0.9806,1.007,1.0394,1.0593,1.0593,1.0593,1.0593,1.0593,1.0593,1.0593,1.0593,1.0593,1.0801,1.1149,1.1848,1.314,0.0,-1.0675,-1.0714,-0.9863,-0.9652,-0.9353,-0.8175,-0.7497,-0.6882,-0.6084,-0.548,-0.5107,-0.51,-0.5367,-0.6217,-0.8144,-0.9019,-1.0215,0.0,0.0,0.0,-1.7045,0.0,0.0,0.0,-2.0317,-2.0425,-2.0263,-2.0169,-2.0014,-1.9798,-1.9663,-1.9485,-1.923,-1.8762,-1.8296,-1.7902,-1.7721,-1.7256,-1.6488,-1.6488,-1.588,-1.4735,-1.5065,-1.4296,-1.2677,-1.2831,-1.2023,0.0,-1.0107,-0.9643,-0.9175,-0.8892,-0.7834,-0.6476,-0.6565,-0.5452,-0.3866,-0.3714,-0.3488,-0.3126,-0.2297,-0.1607,-0.1051,-0.0672,-0.0292,0.0,0.0,0.0,0.0,0.0,0.0,0.0,0.0,0.0,0.0,0.0,0.0939,0.1808,0.1808,0.2825,0.3665,0.361,0.3744,0.391,0.3981,0.4126,0.4274,0.447,0.4491,0.5034,0.6453,0.6588,0.7346,0.9225,0.9579,0.9853,1.0254,1.0486,1.0593,1.0593,1.0593,1.0593,1.0593,1.0593,1.0593,1.0593,1.0593,1.0834,1.1263,1.2014,1.3283,0.0,-0.921,-0.9633,-0.8823,-0.867,-0.8268,-0.6599,-0.6254,0.0,-0.5257,-0.5092,-0.5131,-0.5248,-0.5895,-0.6739,-0.7791,-0.9265,-1.0895,0.0,-1.444,0.0,0.0,-1.8906,0.0,-1.9394,-2.0072,-2.051,-2.0508,-2.0263,-2.0123,-2.0108,-1.9781,-1.9603,-1.9608,-1.9222,-1.878,-1.8259,-1.8218,-1.7743,-1.6841,-1.6815,-1.62,-1.5104,-1.5104,-1.4367,0.0,-1.2606,-1.1726,-1.0563,-0.9778,-0.9369,-0.9188,-0.889,-0.7871,-0.6588,-0.6588,-0.5501,-0.392,-0.3318,-0.2913,-0.2495,-0.1297,-0.0493,0.0,0.0,0.0,0.0,0.0,0.0,0.0,0.0,0.0,0.0,0.0,0.0,0.0,0.0,0.0939,0.1808,0.1808,0.2881,0.3748,0.3638,0.3832,0.3998,0.4008,0.4132,0.4274,0.447,0.4491,0.5034,0.6453,0.6588,0.7433,0.9517,0.9715,0.9963,1.0553,1.0593,1.0593,1.0593,1.0593,1.0593,1.0593,1.0593,1.0593,1.0593,1.0613,1.0774,1.1029,1.1323,1.2591,-0.5885,0.0,-0.7001,-0.6192,-0.6462,-0.6636,0.0,-0.5848,-0.6082,0.0,0.0,-0.5487,-0.6772,-0.6634,-0.7246,-1.0064,-1.09,-1.1784,-1.3477,0.0,0.0,-1.9715,-2.0135,-2.0273,-2.0224,-2.0449,-2.0562,-2.0509,-2.0397,-2.0266,-2.0115,-1.9884,-1.9713,-1.9596,-1.9368,-1.9109,-1.8807,-1.841,-1.7837,-1.7089,-1.6898,-1.62,-1.5104,-1.5104,-1.4367,-1.3077,-1.2606,-1.1818,-1.0831,-0.9661,-0.9273,-0.9377,-0.8742,-0.7709,-0.6588,-0.6588,-0.5501,-0.392,-0.3318,-0.2913,-0.2495,-0.1297,-0.0493,0.0,0.0,0.0,0.0,0.0,0.0,0.0,0.0,0.0,0.0,0.0,0.0,0.0,0.0,0.0939,0.1808,0.1808,0.2881,0.3782,0.3748,0.3897,0.4035,0.4149,0.4174,0.4274,0.447,0.4491,0.5034,0.6453,0.6588,0.7433,0.9517,0.9715,0.9963,1.0553,1.0593,1.0593,1.0593,1.0593,1.0593,1.0593,1.0593,1.0593,1.0593,1.0814,1.1042,1.1295,1.1623,1.2551,-0.5057,-0.5666,-0.6195,-0.5752,-0.5983,-0.6195,-0.5752,0.0,0.0,0.0,0.0,-0.5925,-0.6832,-0.758,-0.8656,-1.0502,-1.1806,0.0,0.0,0.0,-1.895,-2.033,-2.0538,-2.0542,0.0,-2.0585,-2.0585,-2.0541,-2.0481,-2.0371,-2.0255,-2.0048,-1.9858,-1.9701,-1.9523,-1.93,-1.8992,-1.8585,-1.8062,-1.7421,-1.6994,-1.6405,-1.5652,-1.5492,-1.4817,-1.3723,-1.326,-1.2413,-1.1276,-0.996,-0.9446,-0.9437,-0.8686,-0.7656,-0.6588,-0.6588,-0.5531,-0.3961,-0.3009,-0.2152,-0.1362,-0.0694,-0.0269,0.0,0.0,0.0,0.0,0.0,0.0,0.0,0.0,0.0,0.0,0.0,0.0,0.0067,0.0359,0.114,0.1873,0.2162,0.3112,0.3873,0.3802,0.395,0.4129,0.4184,0.4197,0.4274,0.447,0.4491,0.5034,0.6453,0.6588,0.7433,0.9517,0.9715,0.9963,1.0553,1.0593,1.0593,1.0593,1.0593,1.0593,1.0593,1.0593,1.0593,1.0593,1.1295,1.1568,1.143,1.2179,1.2942,-0.5149,-0.581,-0.6447,-0.6317,-0.6369,-0.646,-0.646,0.0,0.0,0.0,0.0,0.0,0.0,-0.872,0.0,0.0,0.0,0.0,-1.7648,-1.8626,-1.9445,-2.0361,-2.0485,0.0,-2.0585,-2.0586,-2.0605,-2.0605,-2.0539,-2.0475,-2.0393,-2.0205,-2.0014,-1.9836,-1.9682,-1.9435,-1.9094,-1.8816,-1.8365,-1.7742,-1.7203,-1.6709,-1.6301,-1.6011,-1.5374,-1.447,-1.3923,0.0,-1.1686,-1.0224,-0.9563,-0.9357,-0.8616,-0.7596,-0.6538,-0.6573,-0.5517,-0.3827,-0.2482,-0.1121,0.0,0.0,0.0,0.0,0.0,0.0,0.0,0.0,0.0,0.0,0.0,0.0,0.0,0.0,0.0069,0.0269,0.0784,0.1451,0.2095,0.2605,0.3389,0.3951,0.3843,0.4035,0.4204,0.425,0.4254,0.4351,0.4608,0.457,0.5089,0.6615,0.6669,0.7433,0.9517,0.9715,0.9963,1.0553,1.0593,1.0593,1.0593,1.0593,1.0593,1.0593,1.0593,1.0613,1.066,1.1722,1.1997,1.1496,1.2627,1.33,-0.5833,-0.6603,-0.7061,-0.6386,-0.6732,-0.7239,-0.7239,0.0,0.0,0.0,0.0,0.0,0.0,-1.0242,-1.0986,0.0,0.0,-1.6757,0.0,0.0,-1.9432,-2.0303,0.0,-2.0509,-2.0513,-2.0564,-2.0605,-2.0605,-2.0539,-2.0475,-2.0393,-2.0205,-2.0071,-1.9964,-1.9726,-1.9562,-1.9506,-1.9125,-1.8652,-1.8025,-1.7709,-1.7126,-1.6301,-1.6246,-1.5594,-1.444,0.0,-1.2622,-1.1645,-0.9674,-0.8985,-0.9087,-0.8292,-0.7264,-0.6292,-0.6513,-0.5187,-0.3049,-0.1598,-0.0606,0.0,0.0,0.0,0.0,0.0,0.0,0.0,0.0,0.0,0.0,0.0,0.0,0.0,0.0,0.0393,0.0784,0.0873,0.1784,0.2583,0.2672,0.3313,0.386,0.3944,0.4105,0.4264,0.4436,0.4457,0.4679,0.5269,0.4838,0.5281,0.7316,0.6966,0.7433,0.9517,0.9715,0.9963,1.0553,1.0593,1.0593,1.0593,1.0593,1.0593,1.0593,1.0593,1.0713,1.0929,1.135,1.1648,1.1839,1.2243,1.2614,-0.5385,-0.6434,-0.7315,-0.6932,-0.7509,-0.827,-0.8715,0.0,0.0,0.0,0.0,0.0,0.0,0.0,-1.2933,-1.5497,0.0,-1.812,-1.8937,-1.9442,-1.9903,0.0,0.0,-2.047,-2.0506,-2.0563,-2.0605,-2.0605,-2.0565,-2.0516,-2.0468,-2.0339,-2.0209,-2.0059,-1.9828,-1.9669,-1.9589,-1.9315,-1.8964,-1.8579,-1.7986,-1.7379,-1.6773,-1.6459,-1.5637,-1.447,-1.4017,-1.3056,-1.1671,-1.0099,-0.9325,-0.9012,-0.8047,-0.7068,-0.6082,-0.5197,-0.3901,-0.2464,-0.1391,-0.0568,0.0,0.0,0.0,0.0,0.0,0.0,0.0,0.0,0.0,0.0068,0.039,0.0478,0.0563,0.0894,0.1179,0.1474,0.1808,0.2317,0.2785,0.3126,0.353,0.3816,0.3883,0.3998,0.4149,0.4324,0.4345,0.4615,0.5393,0.5246,0.5737,0.7503,0.7396,0.7874,0.9546,0.9715,0.9963,1.0553,1.0593,1.0593,1.0593,1.0593,1.0593,1.0593,1.0747,1.0894,1.0995,1.1949,1.2528,1.2643,1.2913,1.3232,-0.5097,-0.624,-0.7429,-0.7619,0.0,-0.9256,-1.0081,0.0,0.0,0.0,0.0,0.0,0.0,-1.3511,0.0,-1.6561,-1.8199,-1.93,-1.93,-1.9888,-2.0307,-2.0301,-2.0354,-2.0429,-2.0485,-2.0563,-2.0605,-2.0605,-2.0605,-2.0565,-2.0509,-2.0435,-2.0323,-2.0145,-1.9955,-1.9792,-1.9656,-1.9459,-1.9253,-1.8984,-1.8251,-1.7665,-1.7193,-1.6651,-1.5766,-1.4627,-1.441,-1.3407,-1.1843,-1.049,-0.9569,-0.8896,-0.7894,-0.6955,-0.5944,-0.3854,-0.2715,-0.206,-0.1148,-0.0476,0.0,0.0,0.0,0.0,0.0,0.009,0.0202,0.0202,0.0314,0.0493,0.0806,0.1006,0.1228,0.1697,0.1919,0.214,0.2605,0.2807,0.3056,0.3512,0.3692,0.3751,0.3785,0.3917,0.4048,0.4174,0.425,0.4629,0.5634,0.5597,0.6136,0.7777,0.7803,0.8236,0.9575,0.9746,1.0007,1.0559,1.0593,1.0593,1.0593,1.0593,1.0626,1.0693,1.0914,1.1062,1.1196,1.2401,1.2988,1.3068,1.3273,1.3601,-0.5724,-0.6604,-0.7478,-0.8238,-0.9082,0.0,-1.0898,-1.102,0.0,-1.2065,0.0,0.0,0.0,-1.5699,-1.7468,-1.7584,-1.9061,-2.0212,-2.0212,0.0,-2.0307,-2.0301,-2.0354,-2.0429,-2.0485,-2.0563,-2.0605,-2.0605,-2.0605,-2.0565,-2.0509,-2.0435,-2.0361,-2.0285,-2.0082,-1.9927,-1.9797,-1.9643,-1.9383,-1.9002,-1.8679,-1.807,-1.7193,-1.6894,-1.6145,-1.5014,-1.4194,-1.3281,-1.22,-1.0243,-0.9153,-0.8647,-0.7816,-0.6955,-0.588,-0.3112,-0.2148,-0.2004,-0.0582,-0.0047,0.0,0.0,0.0,0.0,0.0,0.0381,0.0828,0.0828,0.1228,0.1541,0.1029,0.1318,0.1741,0.1784,0.2228,0.2652,0.2694,0.3148,0.3556,0.3604,0.361,0.3658,0.3768,0.3917,0.4048,0.4174,0.4362,0.4968,0.634,0.5923,0.6325,0.848,0.8103,0.8236,0.9575,0.9927,1.0221,1.0573,1.0593,1.0593,1.0593,1.0593,1.072,1.0955,1.0982,1.1296,1.1846,1.195,1.2112,1.2382,1.2402,1.2725,-0.5161,-0.6715,-0.8166,-0.7879,0.0,0.0,0.0,-1.198,-1.2401,-1.3737,-1.4073,0.0,0.0,0.0,-1.7699,-1.7699,-1.9158,-2.0308,-2.0308,-2.0308,-2.0304,-2.0303,-2.0368,-2.0416,-2.0435,-2.0539,-2.0605,-2.0605,-2.0605,-2.0586,-2.0564,-2.0507,-2.0432,-2.0359,-2.0171,-1.9988,-1.9796,-1.9663,-1.9464,-1.9182,-1.8789,-1.8101,-1.7193,-1.6919,-1.6186,-1.5074,-1.4489,-1.3541,-1.2289,-1.0906,-0.968,-0.8545,-0.6887,-0.6046,-0.5456,-0.2919,-0.2037,-0.1877,-0.0484,0.0,0.0,0.0,0.0247,0.056,0.056,0.0984,0.1451,0.1451,0.1895,0.2317,0.2073,0.225,0.2557,0.2854,0.3163,0.3358,0.3277,0.3442,0.3604,0.3604,0.3604,0.3621,0.3672,0.3707,0.3795,0.3941,0.4466,0.5272,0.6331,0.6711,0.7364,0.8672,0.8878,0.9149,0.9659,1.0151,1.0472,1.0586,1.0593,1.0673,1.0854,1.0861,1.0962,1.1256,1.1443,1.1678,1.1906,1.2087,1.2832,1.4055,1.2879,1.3245,-0.5247,-0.6947,-0.8641,0.0,0.0,0.0,0.0,-1.2824,-1.3367,-1.506,-1.5477,0.0,0.0,0.0,0.0,0.0,-1.9331,-2.0308,-2.0308,-2.0308,-2.0308,-2.0308,-2.0349,-2.0408,-2.0408,-2.0515,-2.0605,-2.0605,-2.0605,-2.0605,-2.0605,-2.0539,-2.0474,-2.0391,-2.0246,-2.0071,-1.9869,-1.9726,-1.9525,-1.9253,-1.8816,-1.821,-1.7473,-1.7007,-1.6324,-1.5433,-1.4769,-1.3772,-1.25,-1.137,-0.9808,-0.7979,-0.6151,-0.5353,-0.4977,-0.2766,-0.1956,-0.1819,-0.0475,0.0,0.0023,0.0226,0.056,0.094,0.1118,0.1607,0.2073,0.2073,0.2519,0.299,0.299,0.3081,0.3272,0.3579,0.3758,0.3836,0.3741,0.3703,0.3682,0.371,0.3703,0.3668,0.3668,0.3687,0.3734,0.3785,0.4589,0.5455,0.6283,0.7165,0.799,0.8725,0.9172,0.9486,0.9695,1.0084,1.0392,1.0579,1.068,1.0821,1.0982,1.1082,1.1397,1.2006,1.194,1.2089,1.2464,1.2351,1.3127,1.47,1.3339,1.3754,-0.6207,-0.7376,-0.88,0.0,0.0,0.0,-1.3105,-1.35,-1.4026,-1.5906,0.0,-1.6609,-1.7528,0.0,0.0,-1.8846,-1.9735,-2.0308,-2.0308,-2.0308,-2.0308,-2.0308,-2.0349,-2.0408,-2.0408,-2.0515,-2.0605,-2.0605,-2.0605,-2.0605,-2.0605,-2.0539,-2.0475,-2.0391,-2.0349,-2.019,-1.9993,-1.9869,-1.9607,-1.919,-1.8798,-1.8434,-1.8066,-1.7199,-1.662,-1.6231,-1.5015,-1.3939,-1.2888,-1.1476,-0.9342,-0.6883,-0.5749,-0.5044,-0.4461,-0.251,-0.1879,-0.1817,-0.0455,0.0,0.009,0.0694,0.0895,0.1029,0.163,0.2228,0.2719,0.2719,0.3148,0.3604,0.3604,0.3709,0.3792,0.3788,0.3907,0.3994,0.3994,0.39,0.3839,0.3964,0.3897,0.3792,0.3792,0.3917,0.3965,0.3839,0.4666,0.5582,0.6329,0.716,0.7996,0.8725,0.8811,0.9045,0.9662,0.9715,0.9963,1.0553,1.0835,1.0995,1.0995,1.1276,1.2013,1.3294,1.236,1.2513,1.3709,1.2769,1.2806,1.3709,1.3709,1.4022,-0.6059,-0.7334,0.0,-0.9613,0.0,0.0,0.0,-1.35,0.0,0.0,-1.6788,-1.7305,-1.7647,0.0,0.0,-1.8958,-1.9731,-2.0308,-2.0308,-2.0308,-2.0308,-2.0308,-2.0349,-2.0408,-2.0408,-2.0515,-2.0605,-2.0605,-2.0605,-2.0605,-2.0605,-2.0585,-2.0514,-2.0393,-2.0372,-2.0253,-1.9993,-1.9869,-1.9682,-1.9488,-1.9074,-1.8512,-1.7797,-1.7105,-1.662,-1.6231,-1.5015,-1.3939,-1.2807,-1.0357,-0.8638,-0.7404,-0.5888,-0.4972,-0.4266,-0.246,-0.1833,-0.1676,-0.0432,0.0,0.0093,0.0701,0.1185,0.1652,0.2251,0.2857,0.3328,0.3328,0.3464,0.3604,0.3604,0.3709,0.3768,0.3689,0.3836,0.3964,0.3883,0.3907,0.394,0.3987,0.3957,0.3951,0.3951,0.4258,0.4479,0.4427,0.5448,0.6607,0.7672,0.8203,0.8566,0.8778,0.8964,0.9237,0.9653,0.9873,1.0154,1.0566,1.0835,1.1082,1.1255,1.1583,1.2325,1.356,1.2673,1.2679,1.3709,1.3419,1.3774,1.4772,1.4772,1.504,-0.6952,-0.8393,0.0,-1.0681,-1.2222,-1.3638,-1.3901,0.0,0.0,0.0,0.0,-1.8208,-1.8643,-1.8839,0.0,-1.9454,-1.9962,-2.0308,-2.0308,-2.0308,-2.0308,-2.0308,-2.0343,-2.0363,-2.0406,-2.0507,-2.0565,-2.0605,-2.0605,-2.0605,-2.0605,-2.0605,-2.0539,-2.0393,-2.0408,-2.0311,-2.012,-1.9953,-1.9807,-1.9676,-1.9279,-1.8726,-1.8035,-1.729,-1.6796,-1.6392,-1.4655,-1.3372,-1.2313,-0.9759,-0.8208,-0.7293,-0.5861,-0.4809,-0.3891,-0.2361,-0.179,-0.1617,-0.043,0.016,0.0464,0.106,0.1673,0.2273,0.2876,0.3306,0.3604,0.3604,0.3604,0.3604,0.3604,0.3665,0.3723,0.3696,0.3894,0.4058,0.3967,0.4021,0.4102,0.4185,0.4375,0.4509,0.4509,0.4993,0.5319,0.5134,0.6066,0.7217,0.842,0.8697,0.8804,0.8804,0.9038,0.9331,0.9659,0.9953,1.0241,1.0573,1.1145,1.1441,1.141,1.171,1.2671,1.4271,1.2981,1.2952,1.4271,1.3882,1.4312,1.5441,1.5808,1.6097,-0.8354,0.0,0.0,-1.2272,-1.3059,0.0,-1.4667,-1.6182,-1.7653,-1.851,0.0,-1.922,-2.0123,-1.9556,-1.9239,-2.0142,-2.0308,-2.0308,-2.0308,-2.0308,-2.0308,-2.0308,-2.0299,-2.0316,-2.0377,-2.0467,-2.0536,-2.0586,-2.0605,-2.0566,-2.0488,-2.0488,-2.0383,-2.0179,-2.0175,-2.0135,-2.0062,-1.9877,-1.9753,-1.9694,-1.9316,-1.8937,-1.8586,-1.7631,-1.6983,-1.6454,-1.4047,-1.2506,-1.156,-0.9531,-0.7967,-0.6734,-0.569,-0.457,-0.3376,-0.2233,-0.1739,-0.1472,-0.0314,0.0471,0.1073,0.1697,0.2251,0.2807,0.342,0.3604,0.3604,0.3604,0.3644,0.3667,0.3667,0.3667,0.372,0.3899,0.4091,0.4258,0.4258,0.4252,0.4363,0.4607,0.5007,0.5327,0.5405,0.601,0.6357,0.596,0.6648,0.7585,0.8619,0.8791,0.8804,0.8804,0.9038,0.9331,0.9659,0.9953,1.0241,1.0573,1.1585,1.1905,1.1404,1.1865,1.309,1.5155,1.3448,1.3484,1.534,1.4414,1.4631,1.5956,1.6883,1.7142,0.0,-0.8997,0.0,0.0,-1.3523,-1.4839,-1.5746,-1.6785,-1.7619,-1.7812,-1.8988,-2.0038,-2.0265,-2.0123,-2.0057,-2.0265,-2.0308,-2.0308,-2.0308,-2.0308,-2.0308,-2.0308,-2.0299,-2.0316,-2.0313,-2.043,-2.051,-2.0515,-2.0565,-2.0293,-1.9629,-1.957,-1.9232,-1.8465,-1.8443,-1.837,-1.8257,-1.8104,-1.8374,-1.9016,-1.8653,-1.8585,-1.8726,-1.7679,-1.6394,-1.4925,-1.3582,-1.2277,-1.0975,-0.9363,-0.7749,-0.6214,-0.5545,-0.4321,-0.281,-0.2075,-0.1203,-0.0289,0.0447,0.1096,0.1697,0.2317,0.2583,0.2807,0.342,0.3604,0.3604,0.3604,0.3902,0.422,0.422,0.422,0.436,0.486,0.4786,0.4582,0.4582,0.4748,0.5102,0.5705,0.5624,0.5649,0.6218,0.6764,0.718,0.7402,0.7809,0.8224,0.845,0.8664,0.8804,0.8804,0.9038,0.9331,0.9659,0.9953,1.0241,1.0573,1.1409,1.1652,1.1109,1.293,1.434,1.519,1.4807,1.5155,1.628,1.607,1.6272,1.6919,1.787,1.8164,0.0,0.0,0.0,0.0,0.0,0.0,-1.5571,-1.6349,-1.6999,-1.7064,-1.8801,-2.0308,-2.0308,-2.0308,-2.0308,-2.0308,-2.0308,-2.0308,-2.0308,-2.0308,-2.0308,-2.0308,-2.0295,-2.0305,-2.0307,-2.0383,-2.0472,-2.0507,-2.0173,-1.9785,-1.9316,-1.8906,-1.8433,-1.7926,-1.7907,-1.7858,-1.7747,-1.7641,-1.7794,-1.8173,-1.7934,-1.7845,-1.7868,-1.7271,-1.6188,-1.468,-1.3516,-1.2195,-1.0795,-0.9304,-0.7666,-0.6056,-0.5508,-0.423,-0.2583,-0.169,-0.0778,0.0134,0.1027,0.1719,0.2273,0.2605,0.307,0.3532,0.3575,0.3774,0.3987,0.3987,0.4176,0.4478,0.4761,0.4822,0.4937,0.539,0.5172,0.4972,0.5258,0.5492,0.5782,0.6278,0.6386,0.6537,0.7026,0.7512,0.793,0.8275,0.8363,0.8449,0.8564,0.8711,0.8858,0.8971,0.9251,0.9573,0.9866,1.016,1.0574,1.1125,1.1934,1.2297,1.2161,1.4336,1.538,1.496,1.5107,1.5649,1.6602,1.6602,1.681,1.7225,1.8373,1.8692,0.0,0.0,0.0,0.0,0.0,0.0,-1.5032,-1.5704,-1.6376,-1.6471,-1.8407,-2.0081,-2.0081,-2.0192,-2.0308,-2.0308,-2.0308,-2.0308,-2.0308,-2.0308,-2.0308,-2.0308,-2.0308,-2.0307,-2.0301,-2.0354,-2.037,-2.0271,-1.9665,-1.918,-1.8867,-1.8164,-1.7673,-1.7454,-1.7447,-1.7419,-1.7355,-1.7305,-1.7285,-1.7337,-1.7269,-1.7089,-1.6793,-1.6581,-1.5949,-1.4929,-1.3572,-1.216,-1.0642,-0.9264,-0.7625,-0.5913,-0.5465,-0.4164,-0.2406,-0.1309,-0.0377,0.0468,0.1582,0.2342,0.2854,0.2854,0.3554,0.4303,0.3774,0.3965,0.4408,0.4408,0.4474,0.4691,0.5303,0.5485,0.5596,0.5855,0.5709,0.5647,0.6083,0.6292,0.6483,0.6844,0.7257,0.7632,0.7847,0.821,0.8556,0.8771,0.8604,0.8537,0.8778,0.8851,0.8944,0.9184,0.9552,0.986,1.0094,1.0419,1.0926,1.1741,1.2543,1.311,1.3312,1.5518,1.6127,1.485,1.5402,1.6079,1.6853,1.6853,1.7064,1.7486,1.8711,1.9058,0.0,0.0,0.0,0.0,0.0,-1.5032,0.0,0.0,-1.6471,0.0,-1.793,-1.9165,-1.9165,-1.9792,-2.0308,-2.0308,-2.0308,-2.0308,-2.0308,-2.0308,-2.0308,-2.0308,-2.0308,-2.0307,-2.0301,-2.0354,-2.0115,-1.943,-1.9333,-1.8633,-1.7129,-1.6934,-1.65,-1.5675,-1.5649,-1.5623,-1.5553,-1.5544,-1.5898,-1.6634,-1.6855,-1.6753,-1.6342,-1.559,-1.5143,-1.4929,-1.3572,-1.1936,-1.0136,-0.9116,-0.7404,-0.5405,-0.5324,-0.3916,-0.1828,-0.1154,0.0133,0.1649,0.2339,0.2968,0.349,0.349,0.3895,0.4303,0.3774,0.3965,0.4408,0.4408,0.4783,0.5329,0.5916,0.6255,0.6505,0.6763,0.7017,0.7143,0.6995,0.7054,0.7347,0.8031,0.8391,0.86,0.8639,0.8692,0.8764,0.8798,0.8778,0.8764,0.8804,0.8998,0.9171,0.9211,0.9704,1.0074,1.0114,1.0419,1.0926,1.1741,1.2543,1.3033,1.3044,1.5401,1.6284,1.5402,1.6867,1.7691,1.7794,1.7794,1.8006,1.8431,1.901,1.9438,-0.6535,-0.8717,-1.1013,0.0,0.0,0.0,-1.5087,0.0,-1.5772,-1.5772,-1.6756,-1.7895,-1.8838,-1.9719,-2.0308,-2.0308,-2.0308,-2.0308,-2.0308,-2.0308,-2.0308,-2.0308,-2.0299,-2.0308,-2.0307,-1.9953,-1.9574,-1.9236,-1.8356,-1.7519,-1.6738,-1.623,-1.578,-1.5361,-1.5316,-1.5297,-1.5252,-1.5215,-1.5338,-1.5602,-1.5715,-1.5711,-1.5555,-1.4973,-1.4698,-1.4572,-1.2852,-1.1331,-1.0021,-0.8803,-0.7106,-0.5303,-0.5303,-0.3873,-0.1695,-0.0754,0.0533,0.1941,0.2879,0.3376,0.3604,0.3604,0.4184,0.4805,0.4224,0.4679,0.5416,0.5416,0.561,0.5971,0.6727,0.7014,0.7209,0.7593,0.7843,0.8012,0.805,0.798,0.8012,0.8352,0.8611,0.8804,0.8804,0.8804,0.8804,0.8804,0.8918,0.9024,0.9024,0.9305,0.9524,0.9684,0.993,1.018,1.0347,1.0937,1.1624,1.242,1.3243,1.3876,1.4332,1.5849,1.6529,1.6192,1.7392,1.8008,1.8008,1.8008,1.8105,1.8256,1.8721,1.915,-0.6737,-0.8412,-1.0094,-1.164,0.0,0.0,0.0,0.0,-1.492,0.0,-1.5888,-1.6872,-1.8126,-1.9238,-1.9965,-1.9962,-2.0154,-2.0308,-2.0308,-2.0308,-2.0219,-2.0027,-2.0173,-2.0147,-1.9733,-1.9382,-1.9025,-1.86,-1.7401,-1.6602,-1.6387,-1.5742,-1.5391,-1.5409,-1.5325,-1.5292,-1.53,-1.5238,-1.512,-1.4928,-1.4917,-1.4855,-1.4765,-1.4346,-1.4078,-1.3828,-1.2203,-1.0881,-0.9793,-0.8516,-0.6887,-0.5206,-0.5283,-0.3873,-0.1649,-0.0444,0.0755,0.1964,0.3173,0.3604,0.3622,0.3751,0.4487,0.5216,0.4761,0.5373,0.6206,0.6206,0.6253,0.65,0.7297,0.7605,0.7799,0.8052,0.8317,0.8544,0.8758,0.8637,0.8509,0.8509,0.8657,0.8804,0.8804,0.8804,0.8804,0.8804,0.9024,0.9211,0.9211,0.9566,0.9873,1.0094,1.0356,1.0616,1.0874,1.1655,1.2451,1.3243,1.3885,1.4569,1.5381,1.6229,1.6697,1.6697,1.7578,1.8008,1.8008,1.8008,1.8008,1.8018,1.8403,1.8831,-0.6005,-0.7449,0.0,-0.9982,0.0,0.0,0.0,0.0,-1.4206,-1.5038,-1.5888,-1.6526,-1.6603,-1.7972,-1.9065,-1.9073,-1.9769,-2.0308,-2.0308,-2.0308,-2.0027,-1.9249,-1.9834,-1.9697,-1.8169,-1.8746,-1.8543,-1.6953,-1.6758,-1.6348,-1.5508,-1.543,-1.5409,-1.5396,-1.5334,-1.5297,-1.5304,-1.5234,-1.5133,-1.4984,-1.4936,-1.465,-1.4128,-1.3532,-1.3025,-1.2576,-1.2021,-1.0843,-0.927,-0.8365,-0.6783,-0.4953,-0.5201,-0.3873,-0.1649,-0.0444,0.0755,0.1964,0.3173,0.3604,0.3689,0.4198,0.4783,0.5303,0.526,0.5696,0.6206,0.6206,0.6377,0.6724,0.735,0.7919,0.8288,0.7985,0.8352,0.8791,0.8804,0.8798,0.8784,0.8784,0.8798,0.8804,0.8804,0.8804,0.8804,0.8804,0.9024,0.9211,0.9211,0.971,1.007,1.0083,1.1081,1.1726,1.1741,1.2481,1.3282,1.4094,1.4183,1.4569,1.5381,1.6229,1.6697,1.6697,1.7578,1.8008,1.8008,1.8008,1.8008,1.8018,1.8403,1.8831,-0.5949,-0.6618,0.0,0.0,-1.0149,-1.1185,-1.2091,-1.3132,-1.3995,-1.4302,-1.5058,-1.5673,-1.5673,-1.7487,-1.8992,-1.9007,-1.9735,-2.0308,-2.0308,-1.9812,-1.936,-1.9139,-1.8906,-1.8535,-1.7961,-1.7726,-1.7342,-1.6758,-1.6172,-1.5723,-1.543,-1.5391,-1.539,-1.5408,-1.5323,-1.528,-1.5234,-1.5207,-1.5133,-1.4991,-1.4921,-1.4617,-1.4075,-1.3616,-1.2967,-1.2182,-1.12,-1.0266,-0.9316,-0.7895,-0.6502,-0.5267,-0.5101,-0.3471,-0.1132,-0.031,0.0999,0.2539,0.3715,0.388,0.3751,0.4679,0.513,0.5367,0.5766,0.6258,0.677,0.6971,0.71,0.7328,0.7919,0.8234,0.8422,0.8477,0.9102,0.9536,0.8929,0.8804,0.8804,0.8804,0.8804,0.8804,0.8804,0.9159,0.9353,0.9106,0.9681,1.0251,1.0502,1.0474,1.0612,1.1147,1.155,1.1803,1.1803,1.3023,1.3876,1.4183,1.4688,1.5108,1.5381,1.6229,1.6697,1.6697,1.7578,1.8008,1.8008,1.8008,1.8008,1.8018,1.8164,1.8432,-0.5593,0.0,0.0,0.0,0.0,-0.9611,-1.1077,0.0,-1.286,-1.3725,-1.4363,-1.4843,-1.5154,-1.6814,-1.8164,-1.8164,-1.8873,-1.9434,-1.9456,-1.8965,-1.8499,-1.829,-1.8049,-1.7677,-1.7116,-1.6834,-1.6582,-1.6289,-1.5723,-1.5391,-1.5391,-1.5391,-1.539,-1.5365,-1.5319,-1.527,-1.5192,-1.5192,-1.5168,-1.5075,-1.4956,-1.4637,-1.4156,-1.3636,-1.2853,-1.1866,-1.0738,-0.9851,-0.9119,-0.7547,-0.6283,-0.5275,-0.4788,-0.3212,-0.1087,-0.0066,0.1198,0.2583,0.3928,0.4158,0.4052,0.5221,0.561,0.5717,0.6285,0.6711,0.7066,0.7404,0.7564,0.7765,0.8268,0.8646,0.8915,0.9091,0.9788,1.0167,0.9309,0.9133,0.9133,0.9133,0.9133,0.9211,0.9439,0.984,1.0037,0.9765,1.0392,1.1051,1.1461,1.1323,1.1452,1.2128,1.2443,1.2626,1.2626,1.3837,1.4599,1.4599,1.5108,1.5478,1.5625,1.6307,1.6775,1.6943,1.7646,1.8008,1.8008,1.8008,1.8008,1.8008,1.8008,1.8208,0.0,0.0,0.0,0.0,0.0,0.0,-1.0703,0.0,-1.0786,-1.3303,-1.3841,-1.4129,-1.5,-1.5868,-1.6465,-1.6465,-1.716,-1.7726,-1.7786,-1.7777,-1.7473,-1.6688,-1.7321,-1.7194,-1.5566,-1.6172,-1.6309,-1.5469,-1.5391,-1.5391,-1.5391,-1.5391,-1.5366,-1.5299,-1.5296,-1.527,-1.5192,-1.5192,-1.5192,-1.5209,-1.5007,-1.4681,-1.428,-1.3537,-1.262,-1.1576,-1.0666,-0.9691,-0.8631,-0.7409,-0.6159,-0.4939,-0.4253,-0.3068,-0.1535,0.0244,0.1311,0.2095,0.3836,0.4413,0.4604,0.583,0.6206,0.6307,0.6831,0.7,0.7066,0.7417,0.7718,0.802,0.8378,0.914,0.9814,0.9814,1.033,1.0628,0.9961,0.9832,0.9825,0.984,0.984,1.0038,1.0695,1.0813,1.0821,1.083,1.1109,1.1463,1.1873,1.2212,1.2553,1.2981,1.3726,1.4213,1.4213,1.4932,1.541,1.541,1.541,1.5596,1.6056,1.6484,1.6902,1.7353,1.7793,1.8008,1.8008,1.8008,1.8008,1.8008,1.8008,1.8208,-0.52,0.0,0.0,0.0,0.0,0.0,0.0,0.0,-0.9767,-1.1692,-1.2599,-1.3272,-1.4113,-1.4978,-1.5558,-1.5558,-1.6796,-1.7777,-1.7791,-1.7292,-1.6857,-1.6631,-1.6308,-1.5908,-1.5449,-1.5625,-1.5664,0.0,-1.5391,-1.5391,-1.5391,-1.5391,-1.5366,-1.5299,-1.5296,-1.527,-1.5192,-1.5192,-1.5192,-1.5209,-1.5007,-1.4681,-1.428,-1.3537,-1.2744,-1.1891,-1.0528,-0.9639,-0.9022,-0.7578,-0.6306,-0.518,-0.4064,-0.2289,-0.0255,0.0591,0.1844,0.3281,0.4587,0.4761,0.467,0.6252,0.652,0.6307,0.6831,0.7,0.7113,0.7632,0.8201,0.8851,0.9872,0.9969,0.9917,1.0415,1.0813,1.0988,1.0612,1.0689,1.0753,1.057,1.0517,1.0593,1.0771,1.1191,1.1437,1.1194,1.1651,1.2157,1.2559,1.2498,1.266,1.3374,1.3894,1.4213,1.4213,1.4932,1.541,1.541,1.541,1.5469,1.5586,1.6297,1.6755,1.6882,1.7637,1.8008,1.8008,1.8008,1.8008,1.8008,1.8008,1.8208,-0.6319,0.0,0.0,0.0,0.0,0.0,-0.7868,-0.8252,-0.8944,0.0,-1.1793,-1.2409,-1.3253,-1.3807,-1.4284,-1.4642,-1.5575,-1.6365,-1.6719,-1.6371,-1.6098,-1.6103,-1.5696,-1.5407,-1.5391,-1.5391,-1.5391,-1.5391,-1.5391,-1.5391,-1.5391,-1.5391,-1.5387,-1.5337,-1.5335,-1.5318,-1.5242,-1.524,-1.5224,-1.5209,-1.5007,-1.4681,-1.428,-1.3618,-1.2878,-1.2041,-1.0905,-0.9994,-0.9193,-0.7826,-0.6511,-0.5241,-0.3718,-0.1915,-0.0063,0.092,0.2103,0.3435,0.4826,0.5065,0.5017,0.6522,0.6789,0.6647,0.7196,0.7189,0.7206,0.8132,0.8904,0.9636,1.0494,1.0556,1.0434,1.0667,1.1039,1.1287,1.103,1.1304,1.153,1.1272,1.1216,1.1316,1.1609,1.199,1.2196,1.1995,1.2304,1.2691,1.3089,1.314,1.3362,1.4044,1.4455,1.4688,1.4688,1.5138,1.541,1.541,1.541,1.5498,1.5674,1.6182,1.6621,1.697,1.749,1.7832,1.8008,1.8008,1.8008,1.8008,1.8008,1.8144,-0.7899,-0.7693,0.0,0.0,-0.7082,0.0,-0.8421,-0.8157,-0.8239,0.0,-1.0985,-1.1235,-1.2122,-1.2423,-1.28,-1.359,-1.3853,-1.4271,-1.5187,-1.5366,-1.5403,-1.5391,-1.5391,-1.5391,-1.5391,-1.5391,-1.5391,-1.5391,-1.5391,-1.5391,-1.5391,-1.5391,-1.5409,-1.5395,-1.5394,-1.5369,-1.53,-1.53,-1.5263,-1.5177,-1.4984,-1.4672,-1.4257,-1.3751,-1.3008,-1.2127,-1.1534,-1.0557,-0.9261,-0.808,-0.6717,-0.5202,-0.3323,-0.1783,-0.0411,0.1199,0.2196,0.3005,0.4699,0.5283,0.5497,0.6634,0.7,0.7105,0.7725,0.7468,0.7293,0.8719,0.9632,1.0282,1.0677,1.0985,1.1124,1.0849,1.1148,1.1479,1.1333,1.1742,1.2099,1.1938,1.1922,1.2129,1.2798,1.2905,1.2905,1.2905,1.2905,1.3042,1.3389,1.3773,1.4202,1.4668,1.5088,1.5361,1.541,1.541,1.541,1.541,1.541,1.5586,1.6007,1.6065,1.6457,1.7259,1.7367,1.7588,1.8008,1.8008,1.8008,1.8008,1.8008,1.8008,-0.8853,-0.8628,-0.8481,-0.7777,-0.8003,0.0,-0.7928,-0.7719,-0.7738,0.0,-0.8335,-0.8601,-0.9481,-1.0741,-1.1712,-1.1871,-1.2555,-1.3597,-1.5152,-1.5385,-1.539,-1.5391,-1.5391,-1.5391,-1.5391,-1.5391,-1.5391,-1.5391,-1.5391,-1.5391,-1.5391,-1.5391,-1.5409,-1.5395,-1.5394,-1.5369,-1.53,-1.53,-1.5204,-1.5035,-1.4948,-1.4627,-1.4125,-1.3711,-1.3143,-1.2453,-1.1587,-1.0647,-0.9589,-0.8126,-0.6616,-0.5065,-0.3293,-0.1524,0.0149,0.1249,0.2285,0.3367,0.4681,0.5214,0.5497,0.6634,0.7,0.7105,0.7725,0.7468,0.7314,0.8827,0.9709,1.046,1.1593,1.1552,1.1322,1.1788,1.1443,1.1207,1.1859,1.1853,1.1901,1.2561,1.2691,1.2715,1.2881,1.2905,1.2905,1.2905,1.2905,1.2935,1.3023,1.3369,1.3773,1.4192,1.4648,1.5039,1.5381,1.541,1.541,1.541,1.541,1.5449,1.5537,1.5909,1.6173,1.6349,1.7054,1.7588,1.8008,1.8008,1.8008,1.8008,1.8008,1.8008,-0.9844,-0.9498,-0.9402,-0.8963,0.0,0.0,0.0,-0.8199,-0.7969,-0.9238,-0.8487,-0.7987,-0.9267,-0.9849,-1.0294,-1.0728,-1.1569,-1.246,-1.3328,-1.3865,-1.4141,-1.4141,-1.4512,-1.4746,-1.4746,-1.5137,-1.5391,-1.5391,-1.5391,-1.5391,-1.5391,-1.5391,-1.539,-1.5406,-1.5406,-1.5371,-1.5303,-1.5301,-1.5226,-1.5095,-1.4964,-1.47,-1.4328,-1.3901,-1.3341,-1.2704,-1.1969,-1.0946,-0.9704,-0.8352,-0.6778,-0.5023,-0.3286,-0.1453,0.0307,0.1249,0.2275,0.3383,0.4647,0.5142,0.5408,0.6611,0.7,0.7168,0.8041,0.8464,0.8692,0.8931,0.974,1.065,1.1137,1.1159,1.107,1.1213,1.0918,1.083,1.1709,1.1741,1.1871,1.2729,1.2905,1.2905,1.2905,1.2905,1.2905,1.2905,1.2905,1.2905,1.2905,1.3242,1.3636,1.4065,1.4521,1.4951,1.5381,1.541,1.541,1.541,1.541,1.541,1.541,1.5625,1.5947,1.6387,1.7051,1.7588,1.8008,1.8008,1.8008,1.8008,1.8008,1.8008,-1.1212,-1.0712,-1.0558,-1.0385,0.0,-0.9671,0.0,0.0,0.0,-1.0314,-0.9026,0.0,0.0,0.0,0.0,-0.9582,0.0,0.0,0.0,-1.158,0.0,-1.2617,-1.3379,-1.3867,-1.3867,-1.4355,-1.4805,-1.5137,-1.5019,-1.5059,-1.5371,-1.5391,-1.5391,-1.5391,-1.5391,-1.5365,-1.5297,-1.5296,-1.5245,-1.5168,-1.5,-1.4794,-1.4558,-1.4129,-1.3555,-1.2864,-1.2405,-1.1318,-0.9805,-0.8664,-0.7057,-0.5122,-0.3297,-0.1477,0.0266,0.1195,0.2194,0.3246,0.4529,0.5018,0.5319,0.6641,0.7259,0.762,0.8329,0.9359,1.0098,0.9119,0.984,1.083,1.0488,1.0654,1.085,1.0606,1.042,1.0567,1.1506,1.1643,1.1871,1.2729,1.2905,1.2905,1.2905,1.2905,1.2905,1.2905,1.2905,1.2905,1.2905,1.3174,1.3584,1.4055,1.4453,1.4834,1.5254,1.5371,1.5381,1.5293,1.5371,1.541,1.541,1.541,1.5751,1.656,1.6953,1.7383,1.7891,1.7891,1.793,1.8008,1.8008,1.8008,0.0,0.0,0.0,0.0,-1.1755,-1.1699,-0.9537,0.0,-0.9483,-0.8276,0.0,0.0,0.0,0.0,0.0,0.0,0.0,0.0,-0.8232,-0.8893,-1.0016,-1.1562,-1.252,-1.3047,-1.3047,-1.2422,-1.2656,-1.4141,-1.3594,-1.3828,-1.5312,-1.5391,-1.5391,-1.5391,-1.5391,-1.5365,-1.5297,-1.5296,-1.5207,-1.5028,-1.5007,-1.4782,-1.4399,-1.4186,-1.3646,-1.2889,-1.2645,-1.167,-1.0157,-0.9014,-0.7399,-0.5435,-0.3396,-0.1524,0.0134,0.101,0.2011,0.3079,0.4115,0.4759,0.5352,0.6869,0.819,0.907,0.8234,0.9079,1.0186,0.9578,1.0134,1.0898,1.0829,1.0879,1.0996,1.1349,1.0851,1.0645,1.1862,1.1836,1.1871,1.2729,1.2905,1.2905,1.2905,1.2905,1.2905,1.2905,1.2905,1.2905,1.2905,1.2944,1.3262,1.4026,1.4153,1.4385,1.4814,1.5195,1.5254,1.4883,1.5205,1.541,1.541,1.541,1.5644,1.6163,1.6222,1.6652,1.7484,1.7484,1.7646,1.8008,1.8008,1.8008,0.0,0.0,0.0,0.0,0.0,0.0,-1.0598,-0.9865,-0.9479,0.0,0.0,0.0,0.0,0.0,0.0,0.0,-0.7944,0.0,0.0,0.0,-0.871,-0.9941,0.0,0.0,-1.2793,-1.2109,-1.2109,-1.3301,-1.2617,-1.2871,-1.4551,-1.4648,-1.4883,-1.5371,-1.5391,-1.5388,-1.5362,-1.5325,-1.5255,-1.5177,-1.5062,-1.4891,-1.469,-1.4393,-1.3838,-1.3067,-1.2862,-1.183,-1.0232,-0.9323,-0.7675,-0.552,-0.367,-0.174,0.0133,0.128,0.2315,0.3292,0.441,0.4924,0.5311,0.6537,0.8106,0.9299,0.8221,0.9019,1.0186,0.9657,1.0005,1.0547,1.0547,1.0732,1.0957,1.1143,1.1124,1.1271,1.2028,1.2333,1.2656,1.3297,1.3695,1.3931,1.3931,1.3368,1.2905,1.2905,1.2905,1.2905,1.2905,1.3214,1.3518,1.3727,1.4086,1.4298,1.4402,1.4805,1.4971,1.4795,1.5176,1.541,1.541,1.541,1.5615,1.6085,1.6095,1.6408,1.7002,1.7256,1.7471,1.7656,1.79,1.8008,-1.3544,0.0,0.0,0.0,-1.2219,-1.1639,-1.1156,-1.0288,-0.9865,-1.0848,0.0,0.0,0.0,0.0,0.0,0.0,0.0,-0.7318,0.0,-0.6794,0.0,0.0,0.0,0.0,0.0,-1.0684,-1.0723,-1.209,-1.1387,-1.1738,-1.3672,-1.3984,-1.4394,-1.5019,-1.5273,-1.5388,-1.5367,-1.5328,-1.5287,-1.5272,-1.5127,-1.5,-1.4895,-1.4587,-1.4062,-1.3347,-1.3032,-1.2034,-1.0542,-0.9591,-0.7883,-0.5687,-0.3893,-0.1895,0.0166,0.1506,0.2554,0.3459,0.4576,0.5258,0.5761,0.6431,0.7962,0.9355,0.8427,0.9151,1.0225,0.9824,1.0,1.0332,1.0449,1.0684,1.0946,1.119,1.1567,1.1951,1.2308,1.2896,1.346,1.3731,1.4283,1.4698,1.4698,1.3836,1.32,1.3358,1.3113,1.2968,1.3128,1.3529,1.3789,1.3741,1.4138,1.4412,1.4428,1.4644,1.4946,1.5251,1.5349,1.5497,1.569,1.5497,1.5557,1.5909,1.5919,1.6103,1.6553,1.6992,1.7266,1.7393,1.7812,1.8008,-1.5135,-1.5115,-1.4731,-1.3104,-1.2683,-1.2219,-1.0538,-1.0752,-1.1098,-1.0308,-1.0752,0.0,0.0,0.0,0.0,0.0,0.0,0.0,0.0,0.0,0.0,0.0,0.0,0.0,0.0,-0.707,-0.7637,-1.0195,-0.957,-1.0215,-1.2793,-1.3672,-1.4102,-1.4141,-1.4961,-1.5365,-1.5299,-1.5297,-1.527,-1.5195,-1.5189,-1.508,-1.49,-1.4695,-1.4305,-1.3754,-1.3152,-1.2349,-1.1335,-0.9828,-0.8048,-0.6068,-0.4009,-0.1895,0.0166,0.1506,0.2554,0.3421,0.4312,0.5672,0.7008,0.6853,0.8071,0.9502,0.8939,0.9478,1.0303,1.0283,1.0283,1.0391,1.0781,1.0898,1.1102,1.196,1.2323,1.2547,1.2809,1.3491,1.4016,1.3825,1.4283,1.4698,1.4698,1.4167,1.3956,1.4537,1.3658,1.3104,1.3708,1.3802,1.3947,1.4324,1.4401,1.4623,1.5196,1.4989,1.5261,1.6384,1.5806,1.5729,1.6436,1.5777,1.542,1.543,1.543,1.5644,1.6114,1.6533,1.6973,1.7393,1.7812,1.8008,-1.5192,-1.5192,-1.4923,-1.3788,-1.3082,-1.2392,-1.1235,-1.1194,-1.1169,-1.0334,-1.0816,-1.1158,0.0,0.0,0.0,0.0,0.0,0.0,0.0,0.0,0.0,0.0,0.0,0.0,0.0,0.0,-0.7246,-0.9277,-0.8633,-0.9277,-1.1895,-1.2305,-1.2949,-1.4062,-1.4394,-1.4802,-1.5365,-1.5326,-1.5287,-1.5265,-1.5218,-1.5084,-1.49,-1.4822,-1.4287,-1.3395,-1.3185,-1.2431,-1.1277,-1.0092,-0.8416,-0.6435,-0.4442,-0.216,0.0199,0.18,0.298,0.3886,0.4762,0.5963,0.7033,0.6615,0.7885,0.9501,0.8958,0.9507,1.0303,1.0303,1.0303,1.04,1.0801,1.1427,1.2097,1.266,1.3404,1.3868,1.3561,1.4336,1.4944,1.4481,1.5197,1.5876,1.5876,1.5387,1.4915,1.4721,1.434,1.4154,1.4376,1.4732,1.488,1.4618,1.4956,1.5267,1.5428,1.5483,1.6008,1.7169,1.6539,1.6236,1.6492,1.6726,1.6415,1.541,1.5892,1.5973,1.5635,1.6074,1.6514,1.6963,1.7393,1.7744,-1.5192,-1.5212,-1.5022,-1.4152,-1.3541,-1.2866,-1.1701,-1.1682,-1.165,-1.0828,-1.1079,-1.1363,-1.1166,0.0,0.0,0.0,0.0,0.0,0.0,-0.5937,0.0,0.0,0.0,0.0,0.0,0.0,-0.6797,-0.8847,-0.8183,-0.8711,0.0,-1.1426,-1.2246,-1.3633,-1.3945,-1.4509,-1.5364,-1.5326,-1.5285,-1.5265,-1.5218,-1.5101,-1.4925,-1.4902,-1.443,-1.3599,-1.3323,-1.2634,-1.1584,-1.0324,-0.8614,-0.6616,-0.4661,-0.2299,0.0215,0.1964,0.3387,0.457,0.5271,0.6112,0.6858,0.665,0.7857,0.9315,0.8983,0.9544,1.0303,1.0303,1.0428,1.0635,1.1049,1.1943,1.285,1.3238,1.4203,1.4846,1.426,1.5073,1.5732,1.5141,1.5832,1.65,1.65,1.6194,1.5776,1.5399,1.4971,1.4766,1.4983,1.5365,1.5454,1.505,1.5365,1.5646,1.5736,1.628,1.7015,1.7927,1.7302,1.7006,1.7274,1.7495,1.7152,1.6187,1.6397,1.6265,1.5777,1.5999,1.6242,1.6514,1.71,1.7529]},{"header":{"parameterUnit":"m.s-1","parameterCategory":1,"la1":30.6,"la2":29.2853,"lo1":-89.7004,"lo2":-87.6739,"dy":0.0162,"dx":0.0183,"nx":112,"ny":82,"refTime":"2026-05-12T12:00:00:Z","depth":0,"parameterNumber":3,"parameterNumberName":"V-component_of_WINDS"},"data":[0.0,0.0,0.0,0.0,0.0,0.0,0.0,0.0,0.0,0.0,0.0,0.0,0.0,0.0,0.0,0.0,0.0,0.0,0.0,0.0,0.0,0.0,0.0,0.0,0.0,0.0,0.0,0.0,0.0,0.0,0.0,0.0,0.0,0.0,0.0,0.0,0.0,0.0,0.0,0.0,0.0,0.0,0.0,0.0,0.0,0.0,0.0,0.0,0.0,0.0,0.0,0.0,0.0,0.0,0.0,0.0,0.0,0.0,0.0,0.0,0.0,0.0,0.0,0.0,0.0,0.0,0.0,0.0,0.0,0.0,0.0,0.0,0.0,0.0,0.0,0.0,0.0,0.0,0.0,0.0,0.0,0.0,0.0,0.0,0.0,0.0,0.0,0.0,0.0,0.0,1.0506,1.2627,1.4664,1.6163,1.6835,1.6273,1.4757,1.2097,0.0,0.0,0.0,0.0,0.0,0.0,0.0,0.0,0.0,0.0,0.0,0.0,0.0,0.0,0.0,0.0,0.0,0.0,0.0,0.0,0.0,0.0,0.0,0.0,0.0,0.0,0.0,0.0,0.0,0.0,0.0,0.0,0.0,0.0,0.0,0.0,0.0,0.0,0.0,0.0,0.0,0.0,0.0,0.0,0.0,0.0,0.0,0.0,0.0,0.0,0.0,0.0,0.0,0.0,0.0,0.0,0.0,0.0,0.0,0.0,0.0,0.0,0.0,0.0,0.0,0.0,0.0,0.0,0.0,0.0,0.0,0.0,0.0,0.0,0.0,0.0,0.0,0.0,0.0,0.0,0.0,0.0,0.0,0.0,0.0,0.0,0.0,0.0,0.0,0.0,0.0,0.0,0.0,0.0,0.0,0.0,0.0,0.0,0.0,0.0,0.0,0.0,0.0,0.0,1.1365,1.5716,1.6505,1.6762,1.689,1.6798,1.5386,1.2277,0.0,0.0,0.0,0.0,0.0,0.0,0.0,0.0,0.0,0.0,0.0,0.0,0.0,0.0,0.0,0.0,0.0,0.0,0.0,0.0,0.0,0.0,0.0,0.0,0.0,0.0,0.0,0.0,0.0,0.0,0.0,0.0,0.0,0.0,0.0,0.0,0.0,0.0,0.0,0.0,0.0,0.0,0.0,0.0,0.0,0.0,0.0,0.0,0.0,0.0,0.0,0.0,0.0,0.0,0.0,0.0,0.0,0.0,0.0,0.0,0.0,0.0,0.0,0.0,0.0,0.0,0.0,0.0,0.0,0.0,0.0,0.0,0.0,0.0,0.0,0.0,0.0,0.0,0.0,0.0,0.0,0.0,0.0,0.0,0.0,0.0,0.0,0.0,0.0,0.0,0.0,0.0,0.0,0.0,0.0,0.0,0.0,0.0,0.0,0.0,0.0,0.0,0.0,1.0819,1.2357,1.5869,1.6255,1.6255,1.6255,1.6255,1.5001,1.2079,1.1484,0.0,0.0,0.0,0.0,0.0,0.0,0.0,0.0,0.0,0.0,0.0,0.0,0.0,0.0,0.0,0.0,0.0,0.0,0.0,0.0,0.0,0.0,0.0,0.0,0.0,0.0,0.0,0.0,0.0,0.0,0.0,0.0,0.0,0.0,0.0,0.0,0.0,0.0,0.0,0.0,0.0,0.0,0.0,0.0,0.0,0.0,0.0,0.0,0.0,0.0,0.0,0.0,0.0,0.0,0.0,0.0,0.0,0.0,0.0,0.0,0.0,0.0,0.0,0.0,0.0,0.0,0.0,0.0,0.0,0.0,0.0,0.0,0.0,0.0,0.0,0.0,0.0,0.0,0.0,0.0,0.0,0.0,0.0,0.0,0.0,0.0,0.0,0.0,0.0,0.0,0.0,0.0,0.0,0.0,0.0,0.0,0.0,0.0,0.0,0.0,0.0,0.0,1.2522,1.3238,1.546,1.5698,1.5698,1.5698,1.5533,1.4368,1.1892,1.09,0.0,0.0,0.0,0.0,0.0,0.0,0.0,0.0,0.0,0.0,0.0,0.0,0.0,0.0,0.0,0.0,0.0,0.0,0.0,0.0,0.0,0.0,0.0,0.0,0.0,0.0,0.0,0.0,0.0,0.0,0.0,0.0,0.0,0.0,0.0,0.0,0.0,0.0,0.0,0.0,0.0,0.0,0.0,0.0,0.0,0.0,0.0,0.0,0.0,0.0,0.0,0.0,0.0,0.0,0.0,0.0,0.0,0.0,0.0,0.0,0.0,0.0,0.0,0.0,0.0,0.0,0.0,0.0,0.0,0.0,0.0,0.0,0.0,0.0,0.0,0.0,0.0,0.0,0.0,0.0,0.0,0.0,0.0,0.0,0.0,0.0,0.0,0.0,0.0,0.0,0.0,0.0,0.0,0.0,0.0,0.0,0.0,0.0,0.0,0.0,0.0,0.0,1.2338,1.3849,1.5515,1.5698,1.5698,1.5698,1.5013,1.3807,1.2006,1.0383,0.0,0.0,0.0,0.0,0.0,0.0,0.0,0.0,0.0,0.0,0.0,0.0,0.0,0.0,0.0,0.0,0.0,0.0,0.0,0.0,0.0,0.0,0.0,0.0,0.0,0.0,0.0,0.0,0.0,0.0,0.0,0.0,0.0,0.0,0.0,0.0,0.0,0.0,0.0,0.0,0.0,0.0,0.0,0.0,0.0,0.0,0.0,0.0,0.0,0.0,0.0,0.0,0.0,0.0,0.0,0.0,0.0,0.0,0.0,0.0,0.0,0.0,0.0,0.0,0.0,0.0,0.0,0.0,0.0,0.0,0.0,0.0,0.0,0.0,0.0,0.0,0.0,0.0,0.0,0.0,0.0,0.0,0.0,0.0,0.0,0.0,0.0,0.0,0.0,0.0,0.0,0.0,0.0,0.0,0.0,0.0,0.0,0.0,0.0,0.0,0.0,0.0,1.2614,1.3721,0.0,1.4952,1.4952,1.4952,1.4677,1.3752,1.2017,0.0,0.0,0.0,0.0,0.0,0.0,0.0,0.0,0.0,0.0,0.0,0.0,0.0,0.0,0.0,0.0,0.0,0.0,0.0,0.0,0.0,0.0,0.0,0.0,0.0,0.0,0.0,0.0,0.0,0.0,0.0,0.0,0.0,0.0,0.0,0.0,0.0,0.0,0.0,0.0,0.0,0.0,0.0,0.0,0.0,0.0,0.0,0.0,0.0,0.0,0.0,0.0,0.0,0.0,0.0,0.0,0.0,0.0,0.0,0.0,0.0,0.0,0.0,0.0,0.0,0.0,0.0,0.0,0.0,0.0,0.0,0.0,0.0,0.0,0.0,0.0,0.0,0.0,0.0,0.0,0.0,0.0,0.0,0.0,0.0,0.0,0.0,0.0,0.0,0.0,0.0,0.0,0.0,0.0,0.0,0.0,0.0,0.0,0.0,0.0,0.0,0.0,1.182,1.3036,1.3899,0.0,1.4493,1.4493,1.4493,1.4279,1.3466,1.1927,0.0,0.0,0.0,0.0,0.0,0.0,0.0,0.0,0.0,0.0,0.0,0.0,0.0,0.0,0.0,0.0,0.0,0.0,0.0,0.0,0.0,0.0,0.0,0.0,0.0,0.0,0.0,0.0,0.0,0.0,0.0,0.0,0.0,0.0,0.0,0.0,0.0,0.0,0.0,0.0,0.0,0.0,0.0,0.0,0.0,0.0,0.0,0.0,0.0,0.0,0.0,0.0,0.0,0.0,0.0,0.0,0.0,0.0,0.0,0.0,0.0,0.0,0.0,0.0,0.0,0.0,0.0,0.0,0.0,0.0,0.0,0.0,0.0,0.0,0.0,0.0,0.0,0.0,0.0,0.0,0.0,0.0,0.0,0.0,0.0,0.0,0.0,0.0,0.0,0.0,0.0,0.0,0.0,0.0,0.0,0.0,0.0,0.0,0.0,0.0,0.0,0.0,1.1893,1.3503,1.4493,1.4512,1.4512,1.4512,1.4512,1.3789,1.286,0.0,0.0,0.0,0.0,0.0,0.0,0.0,0.0,0.0,0.0,0.0,0.0,0.0,0.0,0.0,0.0,0.0,0.0,0.0,0.0,0.0,0.0,0.0,0.0,0.0,0.0,0.0,0.0,0.0,0.0,0.0,0.0,0.0,0.0,0.0,0.0,0.0,0.0,0.0,0.0,0.0,0.0,0.0,0.0,0.0,0.0,0.0,0.0,0.0,0.0,0.0,0.0,0.0,0.0,0.0,0.0,0.0,0.0,0.0,0.0,0.0,0.0,0.0,0.0,0.0,0.0,0.0,0.0,0.0,0.0,0.0,0.0,0.0,0.0,0.0,0.0,0.0,0.0,0.0,0.0,0.0,0.0,0.0,0.0,0.0,0.0,0.0,0.0,0.0,0.0,0.0,0.0,0.0,0.0,0.0,0.0,0.0,0.0,0.0,0.0,0.0,0.0,0.0,1.1893,1.3503,1.4714,1.5288,1.5343,1.5343,1.5343,1.5129,1.4128,1.212,0.0,0.0,0.0,0.0,0.0,0.0,0.0,0.0,0.0,0.0,0.0,0.0,0.0,0.0,0.0,0.0,0.0,0.0,0.0,0.0,0.0,0.0,0.0,0.0,0.0,0.0,0.0,0.0,0.0,0.0,0.0,0.0,0.0,0.0,0.0,0.0,0.0,0.0,0.0,0.0,0.0,0.0,0.0,0.0,0.0,0.0,0.0,0.0,0.0,0.0,0.0,0.0,0.0,0.0,0.0,0.0,0.0,0.0,0.0,0.0,0.0,0.0,0.0,0.0,0.0,0.0,0.0,0.0,0.0,0.0,0.0,0.0,0.0,0.0,0.0,0.0,0.0,0.0,0.0,0.0,0.0,0.0,0.0,0.0,0.0,0.0,0.0,0.0,0.0,0.0,0.0,0.0,0.0,0.0,0.0,0.0,0.0,0.0,0.0,0.0,0.0,0.0,1.1893,1.3783,1.516,1.5643,1.5986,1.6059,1.5735,1.5698,1.4781,1.2631,0.0,0.0,0.0,0.0,0.0,0.0,0.0,0.0,0.0,0.0,0.0,0.0,0.0,0.0,0.0,0.0,0.0,0.0,0.0,0.0,0.0,0.0,0.0,0.0,0.0,0.0,0.0,0.0,0.0,0.0,0.0,0.0,0.0,0.0,0.0,0.0,0.0,0.0,0.0,0.0,0.0,0.0,0.0,0.0,0.0,0.0,0.0,0.0,0.0,0.0,0.0,0.0,0.0,0.0,0.0,0.0,0.0,0.0,0.0,0.0,0.0,0.0,0.0,0.0,0.0,0.0,0.0,0.0,0.0,0.0,0.0,0.0,0.0,0.0,0.0,0.0,0.0,0.0,0.0,0.0,0.0,0.0,0.0,0.0,0.0,0.0,0.0,0.0,0.0,0.0,0.0,0.0,0.0,0.0,0.0,0.0,0.0,0.0,0.0,0.0,0.0,0.0,1.1989,1.4248,1.5753,1.5919,1.6585,1.6732,1.5986,1.5839,1.5068,1.3344,0.0,0.0,0.0,0.0,0.0,0.0,0.0,0.0,0.0,0.0,0.0,0.0,0.0,0.0,0.0,0.0,0.0,0.0,0.0,0.0,0.0,0.0,0.0,0.0,0.0,0.0,0.0,0.0,0.0,0.0,0.0,0.0,0.0,0.0,0.0,0.0,0.0,0.0,0.0,0.0,0.0,0.0,0.0,0.0,0.0,0.0,0.0,0.0,0.0,0.0,0.0,0.0,0.0,0.0,0.0,0.0,0.0,0.0,0.0,0.0,0.9062,0.0,0.0,0.0,0.0,0.0,0.0,0.0,0.0,0.0,0.0,0.0,0.0,0.0,0.0,0.0,0.0,0.0,0.0,0.0,0.0,0.0,0.0,0.0,0.0,0.0,0.0,0.0,0.0,0.0,0.0,0.0,0.0,0.0,0.0,0.0,0.0,0.0,0.0,0.0,0.0,0.0,1.2766,1.4597,1.6169,1.7454,1.7741,1.7777,1.7601,1.7007,1.5948,1.4299,1.2063,0.0,0.0,0.0,0.0,0.0,0.0,0.0,0.0,0.0,0.0,0.0,0.0,0.0,0.0,0.0,0.0,0.0,0.0,0.0,0.0,0.0,0.0,0.0,0.0,0.0,0.0,0.0,0.0,0.0,0.0,0.0,0.0,0.0,0.0,0.0,0.0,0.0,0.0,0.0,0.0,0.0,0.0,0.0,0.0,0.0,0.0,0.0,0.0,0.0,0.0,0.0,0.0,0.0,0.0,0.0,0.0,0.0,0.0,0.0,0.0,1.0234,0.0,0.0,0.0,0.0,0.0,0.0,0.0,0.0,0.0,0.0,0.0,0.0,0.0,0.0,0.0,0.0,0.0,0.0,0.0,0.0,0.0,0.0,0.0,0.0,0.0,0.0,0.0,0.0,0.0,0.0,0.0,0.0,0.0,0.0,0.0,0.0,0.0,0.0,0.0,0.0,1.3041,1.5031,1.6732,1.7961,1.8445,1.8519,1.8126,1.7348,1.6376,1.516,1.3133,0.0,0.0,0.0,0.0,0.0,0.0,0.0,0.0,0.0,0.0,0.0,0.0,0.0,0.0,0.0,0.0,0.0,0.0,0.0,0.0,0.0,0.0,0.0,0.0,0.0,0.0,0.0,0.0,0.0,0.0,0.0,0.0,0.0,0.0,0.0,0.0,0.0,0.0,0.0,0.0,0.0,0.0,0.0,0.0,0.0,0.0,0.0,0.0,0.0,0.0,0.0,0.0,0.0,1.1205,1.1314,1.2209,1.3514,1.4342,1.4662,1.3273,1.2831,1.3008,1.1719,0.0,0.0,0.0,0.0,0.0,0.0,0.0,0.0,0.0,0.0,0.0,0.0,0.0,0.0,0.0,0.0,0.0,0.0,0.0,0.0,0.0,0.0,0.0,0.0,1.5532,1.5778,1.2934,0.0,0.0,0.0,0.0,0.0,0.0,0.0,0.0,0.0,0.0,0.0,1.3519,1.5704,1.7429,1.8225,1.8904,1.904,1.8372,1.7575,1.6768,1.5967,1.4395,1.3102,0.0,0.0,0.0,0.0,0.0,0.0,0.0,0.0,0.0,0.0,0.0,0.0,0.0,0.0,0.0,0.0,0.0,0.0,0.0,0.0,0.0,0.0,0.0,0.0,0.0,0.0,0.0,0.0,0.0,0.0,0.0,0.0,0.6651,0.4961,0.0,0.0,0.0,0.0,0.0,0.0,0.0,0.0,0.0,0.0,0.0,0.0,0.0,1.0333,1.1312,1.133,1.174,1.2582,1.3219,1.3957,1.4821,1.5778,1.6619,1.7305,1.7075,0.0,1.3984,1.4512,0.0,0.0,0.0,0.0,0.0,0.0,0.0,0.0,0.0,0.0,0.0,0.0,0.0,0.0,0.0,0.0,0.0,0.0,0.0,0.0,0.0,0.0,1.633,1.7016,1.7343,1.74,0.0,1.4379,1.1891,1.1027,1.0145,0.0,0.0,0.0,0.0,0.0,0.0,0.0,1.5184,1.6885,1.8243,1.9058,1.9242,1.926,1.915,1.8408,1.7594,1.6798,1.5227,1.3922,1.2993,1.1562,0.0,0.0,0.0,0.0,0.0,0.0,0.0,0.0,0.0,0.0,0.0,0.0,0.0,0.0,0.0,0.0,0.0,0.0,0.0,0.0,0.0,0.0,0.0,0.0,0.0,0.0,0.0,0.0,0.0,0.6871,0.699,0.6562,0.6513,0.6394,0.0,0.0,0.0,0.0,0.0,0.0,0.0,0.0,0.0,1.0889,1.1351,1.2007,1.2837,1.2856,1.3266,1.4123,1.4982,1.5601,1.6002,1.6841,1.7696,1.8523,1.8523,1.7904,1.6864,1.6316,1.5097,1.3549,0.0,0.0,0.0,0.0,1.3711,1.3847,1.4843,1.4859,1.4416,1.4413,0.0,0.0,0.0,0.0,0.0,0.0,0.0,0.0,0.0,0.0,1.7988,1.8346,1.8808,1.9023,1.8538,1.7137,1.5578,0.0,1.3289,1.2469,1.197,0.0,0.0,0.0,0.0,1.4554,1.6163,1.7374,1.8408,1.9205,1.9297,1.9297,1.9297,1.8555,1.7942,1.7594,1.6053,1.4995,1.4587,1.2865,1.1507,0.0,0.0,0.0,0.0,0.0,0.0,0.0,0.0,0.0,0.0,0.0,0.0,0.0,0.0,0.0,0.0,0.0,0.0,0.0,0.0,0.0,0.0,0.0,0.0,0.0,0.0,0.0,0.0,0.7177,0.7158,0.7546,0.7987,0.8005,0.0,0.0,0.0,0.0,0.0,0.0,0.9896,1.1302,1.2084,1.2046,1.3103,1.3962,1.4555,1.4766,1.5192,1.5846,1.6503,1.6926,1.7157,1.7757,1.8545,1.9412,1.9412,1.9284,1.8976,1.775,1.638,1.5046,1.5059,1.5059,1.5154,1.5799,1.6054,1.625,1.7559,1.7577,1.7062,1.7277,1.7169,1.67,1.5454,0.0,0.0,0.0,0.0,1.6853,1.7083,1.8068,1.9069,1.9288,1.9827,2.0115,1.9477,1.9089,1.842,0.0,1.6059,1.534,1.4654,0.0,0.0,0.0,0.0,1.5913,1.7062,1.7906,1.8647,1.9242,1.9297,1.9297,1.9297,1.8739,1.8317,1.8108,1.6775,1.5912,1.5717,1.4057,1.2799,1.1991,0.0,0.0,0.0,0.0,0.0,0.0,0.0,0.0,0.0,0.0,0.0,0.0,0.0,0.0,0.0,0.0,0.0,0.0,0.0,0.0,0.0,0.0,0.0,0.0,0.0,0.0,0.0,0.0,0.0,0.7605,0.9003,0.0,0.0,0.0,0.0,1.1174,1.1318,1.168,1.2471,1.3316,1.3788,1.3767,1.5426,1.6333,1.6369,1.7122,1.7526,1.7564,1.7622,1.8061,1.8881,1.8911,1.9415,2.0239,2.0239,1.9777,1.9002,1.8972,1.845,1.7608,1.7608,1.7641,1.7714,1.7753,1.7806,1.7871,1.7969,1.7969,1.8066,1.8835,1.8504,1.7825,1.7727,1.7073,0.0,0.0,1.6982,1.7834,1.8665,1.8934,1.9203,2.0042,2.0269,2.0288,2.0231,1.9581,1.8715,0.0,1.7445,1.7297,1.7386,0.0,1.7154,1.7021,1.7695,1.8167,1.8044,1.8739,1.926,1.9297,1.9297,1.9297,1.9297,1.926,1.8911,1.8151,1.7312,1.6493,1.5735,1.4689,1.3692,1.2759,1.1089,0.0,0.0,0.0,0.0,0.0,0.0,0.0,0.0,0.0,0.0,0.0,0.0,0.0,0.0,0.0,0.0,0.0,0.0,0.0,0.0,0.0,0.0,0.0,0.0,0.0,0.0,0.0,0.0,0.9776,1.0837,0.0,1.1112,1.1342,1.1642,1.1955,1.2575,1.3085,1.3396,1.4252,1.5,1.5558,1.6046,1.6583,1.7145,1.7347,1.7435,1.7458,1.7976,1.845,1.8897,1.9403,1.9882,2.0308,2.0308,2.0115,1.9831,1.9854,1.9051,1.7866,1.8426,1.8643,1.8676,1.8721,1.9105,1.9622,1.9668,1.9668,1.9726,2.0018,1.9508,1.8803,1.8803,1.8535,1.8235,1.8235,1.8796,1.9439,1.9767,1.984,1.9908,2.0231,2.0308,2.0308,2.0308,2.0465,2.0523,2.0215,1.9212,1.8412,1.8378,1.8329,1.826,1.8122,1.8277,1.8553,1.9006,1.9206,1.9297,1.9297,1.9297,1.9297,1.9297,1.9297,1.8967,1.8151,1.733,1.6548,1.5735,1.4731,1.3973,1.3513,1.2336,1.1013,0.0,0.0,0.0,0.0,0.0,0.0,0.0,0.0,0.0,0.0,0.0,0.0,0.0,0.0,0.0,0.0,0.0,0.0,0.0,0.0,0.0,0.0,0.0,0.0,0.0,0.0,1.0553,1.141,1.2237,1.2741,1.2741,1.2997,1.3171,1.3171,1.3781,1.4168,1.4168,1.5029,1.5768,1.6349,1.6768,1.725,1.7833,1.8041,1.8143,1.8143,1.8687,1.902,1.9221,1.9759,2.0268,2.0692,2.0423,2.0442,2.0673,2.0404,1.9645,1.8705,1.9285,1.9491,1.956,1.9889,2.0408,2.0941,2.1015,2.0859,2.0605,2.0605,2.0215,1.9746,1.9746,1.9683,1.9647,1.9647,1.9974,2.0327,2.0327,2.0331,2.0299,2.0299,2.0296,2.0365,2.0654,2.1115,2.16,2.1889,2.1047,2.0242,2.0165,2.0152,1.9983,1.9506,1.9593,1.9662,1.952,1.9612,1.9601,1.9334,1.9297,1.9297,1.9297,1.9297,1.9077,1.8537,1.7502,1.6652,1.6133,1.4818,1.4031,1.3906,1.2926,1.1637,1.0001,0.0,0.0,0.0,0.0,0.0,0.0,0.0,0.0,0.0,0.0,0.0,0.0,0.0,0.0,0.0,0.0,0.0,0.0,0.0,0.0,0.0,0.0,0.0,0.9669,1.0547,1.145,1.2226,1.3086,1.362,1.362,1.4383,1.4891,1.4891,1.4895,1.4895,1.4895,1.5659,1.6106,1.6149,1.7659,1.8501,1.852,1.9371,1.9778,1.9778,1.9778,1.9858,1.9998,2.0017,2.0561,2.1434,2.068,2.0819,2.1477,2.0688,2.0361,2.0327,2.0308,2.0329,2.044,2.1294,2.1699,2.1858,2.1913,2.1387,2.0684,2.0684,2.0684,2.0684,2.0684,2.0621,2.0548,2.0548,2.0506,2.0432,2.0432,2.0408,2.0371,2.0387,2.0381,2.0581,2.137,2.1562,2.1831,2.2682,2.2855,2.2855,2.2816,2.2797,2.2436,2.132,2.1809,0.0,1.9649,2.0068,2.0236,1.9426,1.9334,1.9334,1.9297,1.9297,1.9297,1.926,1.7777,1.6908,1.6908,1.5005,1.3956,1.3942,1.286,1.1545,1.0035,0.0,0.0,0.0,0.0,0.0,0.0,0.0,0.0,0.0,0.0,0.0,0.0,0.0,0.0,0.0,0.0,0.0,0.0,0.0,0.0,0.0,0.9744,1.0645,1.0196,1.1366,1.2347,1.2567,1.3448,1.4045,1.4045,1.4379,1.4616,1.4616,1.4697,1.4756,1.4756,1.5616,1.6361,1.6941,1.7865,1.8665,1.9294,1.9386,1.9441,1.9441,1.9441,1.9532,1.9738,2.0314,2.0778,2.1153,2.1523,2.189,2.2213,2.1984,2.1603,2.1115,2.0538,2.0654,2.1205,2.1485,2.2053,2.2688,2.2749,2.2603,2.2411,2.246,2.2441,2.2422,2.2461,2.2031,2.1522,2.1522,2.1474,2.1415,2.1415,2.1836,2.2256,2.2197,2.2185,2.2225,2.241,2.2932,2.3451,2.3706,2.4216,2.4235,2.3009,2.2797,2.2679,2.2389,2.2302,0.0,2.1552,2.1456,2.1125,2.0254,2.0162,1.9932,1.9352,1.9297,1.9058,1.8463,1.7465,1.6908,1.6908,1.5804,1.5069,1.479,1.3141,1.1806,0.0,0.0,0.0,0.0,0.0,0.0,0.0,0.0,0.0,0.0,0.0,0.0,0.0,0.0,0.0,0.0,0.0,0.0,0.0,0.0,0.0,0.0,1.0556,1.1397,1.128,1.238,1.32,1.32,1.3723,1.4065,1.4065,1.4175,1.4282,1.4368,1.4763,1.5034,1.5108,1.6271,1.7149,1.762,1.8345,1.8964,1.9478,1.935,1.9297,1.9297,1.9297,1.9413,1.9626,2.0073,2.0748,2.1551,2.1638,2.2168,2.2892,2.252,2.1986,0.0,0.0,0.0,0.0,0.0,2.3032,2.3502,2.3574,2.3381,2.3118,2.3183,2.3144,2.3105,2.3184,2.2832,2.2402,2.2441,2.2401,2.2357,2.2377,2.2714,2.301,2.2967,2.2926,2.2972,2.3285,2.3744,2.4206,2.4548,2.4981,0.0,2.4024,2.3851,2.3702,2.3271,2.3289,2.3071,2.2281,2.2251,2.1987,2.1125,2.0713,2.0309,1.984,1.9499,0.0,0.0,0.0,1.7211,1.6793,1.6236,0.0,0.0,0.0,0.0,0.0,0.0,0.0,0.0,1.1645,1.1789,0.0,0.0,0.0,0.0,0.0,0.0,0.0,0.0,0.0,0.0,0.0,0.0,0.0,0.0,0.0,0.0,1.1043,1.1796,1.2457,1.3244,1.3766,1.3788,1.3849,1.3878,1.3878,1.3892,1.3976,1.4156,1.4902,1.5429,1.5611,0.0,0.0,0.0,0.0,1.9235,1.9259,1.9259,1.9329,1.9444,1.9444,1.9535,1.9704,1.9908,2.0807,2.2214,2.1618,2.2226,2.3545,2.2783,2.208,2.1507,2.1602,2.1658,2.1863,2.3663,2.4316,2.4321,2.4406,0.0,0.0,2.3457,2.3437,2.3398,2.3457,2.3379,2.3262,2.332,2.3223,2.3125,2.3184,2.3219,2.3221,2.3159,2.3161,2.3395,2.4097,2.4235,2.4452,2.5154,2.5308,2.5308,2.5308,2.5308,2.5004,2.4099,2.4468,2.4228,2.2525,2.2821,2.284,2.2014,0.0,0.0,2.0529,1.9858,1.9407,1.9315,1.8629,1.7786,1.6813,1.658,1.6367,1.6176,1.5814,1.5634,1.5595,1.5595,1.5629,1.5663,1.3633,1.343,0.0,0.0,0.0,0.0,0.0,0.0,0.0,0.0,0.0,0.0,0.0,0.0,0.0,0.0,0.0,1.0308,1.1257,1.2038,1.2172,1.2565,1.2922,1.3158,1.3459,1.3671,1.3671,1.3795,1.392,1.3955,1.4658,1.5092,1.5129,1.6668,1.7541,1.7541,1.8324,1.8834,1.906,1.906,1.9461,2.0272,0.0,0.0,2.0365,2.1726,2.2184,2.1957,2.3085,2.3855,2.4292,2.4116,2.3766,2.325,2.2743,2.2547,2.2759,2.4451,2.509,2.5095,2.5232,2.5163,2.5067,2.5173,2.5215,2.5195,2.5215,2.4727,0.0,2.416,2.3652,2.3125,2.3184,2.3672,2.4138,2.4057,2.4522,2.5027,2.5135,2.5117,2.5115,2.5269,2.5308,2.5308,2.5308,2.5308,2.5221,2.5047,2.4981,2.479,2.433,2.4222,2.3846,2.2868,2.2621,2.1979,2.0613,2.0364,1.9987,1.9334,1.915,1.8695,1.7844,1.7625,1.7417,1.7206,1.636,1.5818,1.5595,1.5595,1.591,1.6451,1.5436,1.5436,0.0,0.0,0.0,0.0,0.0,0.0,0.0,0.0,0.0,0.0,0.0,0.9153,0.9488,0.0,1.0846,1.1318,1.1457,1.1593,1.187,1.1935,1.2158,1.2724,1.2983,1.3151,1.3295,1.3386,1.3539,1.3729,1.4837,1.5544,1.5642,1.7144,1.8002,1.8002,1.8391,1.8651,1.8798,1.9327,1.9839,2.036,2.0891,2.0914,2.0539,2.1822,2.218,2.1867,2.307,2.3879,2.4311,2.3989,2.3765,2.3619,2.3384,2.3352,2.3605,2.4846,2.5312,2.5363,2.5428,2.5463,2.5526,2.5628,2.5658,2.566,2.5683,2.5391,2.5059,2.5059,2.4414,2.3769,2.3789,2.3789,2.3749,2.3712,2.4003,2.4278,2.4174,2.4447,2.4699,2.4707,2.5019,2.5308,2.5308,2.5308,2.5308,2.5308,2.5135,2.4949,2.4825,2.4623,2.4261,2.3667,2.3244,2.2657,2.1813,2.0988,2.0327,1.9932,1.951,1.9113,1.872,1.8499,1.8285,1.8065,1.7427,1.6964,1.6712,1.7067,1.745,1.7805,1.78,1.7794,0.0,0.0,0.0,0.0,0.0,0.0,0.0,0.0,0.81,0.8348,0.9265,1.0183,1.0709,1.0891,1.1251,1.2181,1.1641,1.1257,1.1708,1.1544,1.1633,1.2339,1.2463,1.2585,1.2799,1.2871,1.307,1.3385,1.4863,1.583,1.5975,1.7495,1.8353,1.8353,1.842,1.8469,1.8518,1.9528,2.0154,2.0445,2.1452,2.1605,2.1006,2.1859,2.218,2.2088,2.2887,2.3602,2.4172,2.3627,2.3545,2.3771,2.3942,2.4132,2.4413,2.5058,2.5335,2.5383,2.5406,2.5438,2.5481,2.5558,2.5595,2.5606,2.5661,2.5683,2.5703,2.5703,2.4941,2.4141,2.4141,2.3516,2.2871,2.2878,2.2986,2.3061,2.2954,2.3411,2.3856,2.3859,2.4505,2.5077,2.5077,2.5192,2.5308,2.5308,2.5163,2.4999,2.4814,2.4654,2.4461,2.4228,2.3621,2.3171,2.3006,2.1612,2.0749,2.0749,2.0134,1.9793,1.9793,1.9641,1.939,1.9047,1.8838,1.8556,1.8222,1.8814,1.9113,1.913,1.9879,1.9896,0.4852,0.4838,0.5068,0.5796,0.6127,0.6759,0.0,0.0,0.8847,0.9982,1.0702,1.1138,1.1215,1.1561,1.1812,1.1714,1.1804,1.1899,1.1951,1.1791,1.1684,1.1798,1.2004,1.2168,1.2198,1.2472,1.2668,1.2708,1.4034,1.4853,1.4886,1.6512,1.7446,1.7446,1.7732,1.8003,1.8239,1.9017,2.004,2.1277,2.2044,2.2524,2.2749,2.3566,2.3547,2.2914,2.3712,2.4116,2.419,2.4126,2.4314,2.4665,2.4686,2.4879,2.5173,2.5269,2.5298,2.5327,2.5379,2.5394,2.5415,2.5498,2.5552,2.5602,2.5605,2.5658,2.5703,2.5703,2.4512,2.3242,2.3242,2.2637,2.2031,2.2031,2.2589,2.3089,2.3,2.3012,2.3025,2.2953,2.3644,2.4221,2.4221,2.4832,2.5308,2.5308,2.5274,2.5154,2.4847,2.4782,2.4615,2.4247,2.4116,2.3786,2.3061,2.2171,2.1647,2.1647,2.1574,2.1519,2.1519,2.1502,2.1216,2.0643,2.0611,2.0308,1.9748,1.9833,1.9879,1.9913,2.0686,2.1021,0.5347,0.5469,0.5672,0.0,0.7074,0.7746,0.8865,0.9303,0.9622,1.0164,1.068,1.1072,1.1072,1.1234,1.1434,0.0,1.1259,1.1002,1.1327,1.0988,1.0712,1.0712,1.0951,1.1246,1.1588,1.1753,1.1968,1.2299,1.3603,1.4485,1.4692,1.6165,1.7101,1.728,1.7444,1.7653,1.796,1.8899,1.9863,2.0902,2.1822,2.2427,2.2742,2.3533,2.3823,2.3731,2.4043,2.419,2.4199,2.433,2.4534,2.4811,2.4884,2.5078,2.5308,2.5308,2.5308,2.5293,2.533,2.5348,2.5346,2.5411,2.5462,2.5506,2.5588,2.5629,2.5658,2.5683,2.4473,2.3144,2.3105,2.2129,2.1133,2.1133,2.1405,2.1632,2.1567,2.1887,2.2186,2.2105,2.3182,2.411,2.411,2.4774,2.5308,2.5308,2.5308,2.5171,2.4847,2.4804,2.4647,2.4247,2.419,2.4061,2.3731,2.296,2.2501,2.2501,2.2069,2.1794,2.1794,2.1794,2.1607,2.1193,2.1183,2.0888,2.0288,2.0717,2.0858,2.072,2.1481,2.1837,0.553,0.0,0.0,0.671,0.7478,0.8147,0.8534,0.909,0.9558,0.9683,1.0167,1.0554,1.0561,1.0692,1.0961,1.1518,1.0905,1.0554,1.1088,1.0535,1.012,1.0244,1.0191,1.0315,1.0753,1.1041,1.1404,1.1944,1.3115,1.4014,1.4509,1.5756,1.6638,1.701,1.7113,1.732,1.7658,1.883,1.9792,2.0512,2.1692,2.242,2.2726,2.3379,2.3886,2.419,2.419,2.4061,2.3869,2.4042,2.4222,2.4422,2.4303,2.4681,2.5269,2.5058,2.5115,2.5308,2.5308,2.5154,2.4981,2.5026,2.4896,2.4771,2.5118,2.5236,2.5334,2.5602,2.4648,2.3457,2.3184,2.2031,2.0898,2.0664,2.0605,2.0585,2.0513,2.0946,2.132,2.1251,2.24,2.3374,2.3374,2.4062,2.4692,2.4923,2.4962,2.4938,2.4858,2.4763,2.4575,2.4237,2.419,2.419,2.419,2.3676,2.3318,2.3318,2.2776,2.2455,2.2455,2.2455,2.2337,2.2046,2.2018,2.1725,2.1108,2.1645,2.1802,2.1625,2.2157,2.2398,0.0,0.0,0.581,0.6212,0.6875,0.7524,0.7852,0.7998,0.8185,0.8646,0.9225,0.9659,0.9722,1.0167,1.0644,1.1053,1.1092,1.1232,1.1703,1.0917,1.0441,1.0826,1.0069,0.9533,0.0,1.0379,1.1131,1.1674,1.236,1.3151,1.4069,1.5078,1.5848,1.6328,1.6646,1.6993,1.732,1.8761,1.9824,2.053,2.1975,2.2863,2.3177,2.3537,2.3886,2.419,2.419,2.3768,2.3043,2.3033,2.3246,2.3452,2.2683,2.3578,2.5212,2.4413,2.462,2.5308,2.5308,2.4793,2.4149,2.4134,2.3613,2.3134,2.397,2.4328,2.4591,2.5389,2.4994,2.418,2.332,2.248,2.1641,2.0801,2.0605,2.0585,2.0513,2.0461,2.0411,2.0344,2.1011,2.1581,2.1581,2.2293,2.3163,2.4014,2.4149,2.4346,2.4927,2.4708,2.4436,2.4218,2.419,2.419,2.419,2.4171,2.4153,2.4153,2.4135,2.4135,2.4135,2.4135,2.3963,2.3631,2.3631,2.3298,2.2638,2.2673,2.266,2.266,2.2682,2.2682,0.4491,0.0,0.5602,0.6268,0.6925,0.7584,0.8276,0.8442,0.8445,0.8379,0.8526,0.8619,0.8456,0.859,0.8929,0.9603,0.9708,0.9958,1.0702,1.0476,1.0269,1.0428,1.013,0.0,0.0,0.0,0.0,1.0987,1.1659,1.2513,1.3637,1.4701,1.5433,1.582,1.6241,1.6633,1.6952,1.7462,1.8434,1.9862,2.1777,2.2759,2.2885,2.323,2.3555,2.3876,2.3876,2.385,2.3759,2.335,2.3584,2.4042,2.2937,2.3239,2.4225,2.3496,2.3778,2.4586,2.5115,2.4774,2.411,2.411,2.354,2.2891,2.323,2.3791,2.4404,2.4722,2.4604,2.4336,2.4043,2.2949,2.1836,2.1523,2.1016,2.0586,2.0565,2.0512,2.0441,2.0372,2.1019,2.154,2.1516,2.2701,2.3932,2.4774,2.4776,2.4742,2.4839,2.4643,2.4409,2.4218,2.419,2.419,2.419,2.419,2.419,2.419,2.419,2.419,2.419,2.419,2.4151,2.4026,2.3816,2.3488,2.3033,2.3033,2.294,2.2773,2.2952,2.3207,0.3686,0.4195,0.4778,0.5552,0.621,0.6794,0.7362,0.745,0.7357,0.7201,0.7058,0.6954,0.6875,0.6941,0.7248,0.7991,0.8333,0.8737,0.9439,0.9469,0.9475,0.9647,0.9469,0.9429,0.0,0.0,0.0,1.0684,1.1357,1.2183,1.3313,1.4188,1.4832,1.5197,1.5637,1.6034,1.6358,1.7027,1.8338,2.027,2.1817,2.2612,2.2708,2.2923,2.32,2.3533,2.3649,2.3653,2.3569,2.3297,2.3535,2.395,2.2833,2.3132,2.4095,2.3073,2.3295,2.4129,2.4332,2.4062,2.3586,2.3278,2.2605,2.1971,2.2326,2.2876,2.3505,2.4171,2.4389,2.4394,2.4394,2.3398,2.2285,2.1973,2.123,2.0605,2.0605,2.0541,2.048,2.042,2.0805,2.1211,2.1463,2.2951,2.4279,2.4793,2.5006,2.503,2.4832,2.4685,2.4503,2.4228,2.419,2.419,2.419,2.419,2.419,2.419,2.419,2.419,2.419,2.419,2.419,2.419,2.3996,2.3858,2.3808,2.3808,2.3869,2.397,2.4159,2.4316,0.2703,0.3146,0.3444,0.413,0.4769,0.5211,0.5201,0.5116,0.5047,0.5175,0.4951,0.4818,0.0,0.0,0.5751,0.6359,0.7081,0.7726,0.8138,0.8109,0.819,0.0,0.0,0.0,0.0,0.0,0.0,1.0699,0.0,1.2032,1.2984,1.3563,1.4035,1.4422,1.4845,1.5226,1.5562,1.7454,1.9432,2.1467,2.1998,2.2409,2.2669,2.2669,2.2873,2.3212,2.3533,2.3267,2.2612,2.2885,2.3149,2.3257,2.2367,2.3206,2.4726,2.3061,2.3125,2.3898,2.299,2.2701,2.2605,2.1773,2.0962,2.0443,2.1288,2.1606,2.2043,2.3758,2.4329,2.4414,2.4453,2.3848,2.2988,2.2168,2.1269,2.0605,2.0605,2.0542,2.0481,2.042,2.0357,2.0566,2.1424,2.2932,2.4052,2.4149,2.4812,2.5171,2.4842,2.4804,2.4647,2.4266,2.4199,2.419,2.419,2.419,2.419,2.419,2.4245,2.4263,2.4263,2.43,2.4318,2.4318,2.4308,2.4517,2.4967,2.4967,2.5357,2.6091,2.6115,2.5925,0.1889,0.2409,0.2906,0.309,0.3556,0.3958,0.3957,0.3934,0.3916,0.396,0.3886,0.3857,0.0,0.0,0.0,0.5772,0.6609,0.0,0.81,0.8381,0.0,0.8687,0.0,0.8575,0.8714,0.8714,0.0,0.0,1.0161,1.1131,1.208,1.2879,1.3357,1.3444,1.4221,1.4831,1.5211,1.7349,1.8821,1.9686,2.1101,2.2001,2.2398,2.2398,2.2695,2.32,2.33,2.3491,2.3727,2.3198,2.3382,2.386,2.2679,2.2895,2.3707,2.2277,2.2343,2.2913,2.1446,2.1331,2.1793,2.1562,2.0962,2.0346,2.0553,2.1124,2.1948,2.3079,2.3882,2.4551,2.5195,2.4297,2.3125,2.2852,2.168,2.0605,2.0605,2.0586,2.054,2.0425,2.0355,2.0762,2.222,2.2836,2.3567,2.4812,2.5173,2.5208,2.4987,2.4869,2.47,2.4444,2.4284,2.419,2.419,2.419,2.419,2.419,2.4768,2.5081,2.5081,2.5676,2.5988,2.5988,2.5743,2.5672,2.5802,2.5802,2.5893,2.6121,2.6362,2.6435,0.0903,0.1403,0.1912,0.1912,0.234,0.2745,0.2745,0.2792,0.2849,0.2843,0.2842,0.0,0.2922,0.3375,0.0,0.0,0.0,0.0,0.7213,0.7586,0.7833,0.0,0.7951,0.0,0.8316,0.8337,0.8439,0.0,0.9706,1.0541,1.1071,1.2008,1.2727,1.3178,1.3895,1.4801,1.5891,1.736,1.8315,1.8765,2.0684,2.1582,2.1577,2.2071,2.2558,2.2996,2.3129,2.35,2.3959,2.3647,2.3786,2.4136,2.351,2.3359,2.3363,2.2326,2.2067,2.2043,2.075,2.0596,2.0962,2.0962,2.0673,2.0308,2.0305,2.0694,2.1399,2.2729,2.3452,2.4121,2.5371,2.4727,2.3613,2.3203,2.2109,2.1074,2.0684,2.0605,2.0563,2.0429,2.0937,2.1696,2.2643,2.3408,2.4216,2.5154,2.5308,2.5264,2.5152,2.4942,2.4723,2.4528,2.4321,2.419,2.419,2.419,2.4355,2.4695,2.5154,2.5558,2.5907,2.6355,2.6602,2.6602,2.6425,2.6493,2.685,2.685,2.7032,2.7378,2.7562,2.7502,0.0,0.0381,0.0784,0.0784,0.1168,0.1567,0.1564,0.1655,0.1742,0.1782,0.0,0.1852,0.205,0.2458,0.295,0.3588,0.0,0.5168,0.5879,0.6227,0.6486,0.675,0.6852,0.7105,0.7621,0.7746,0.7966,0.8431,0.9363,0.9963,1.0108,1.1054,1.2057,1.3068,1.3619,1.469,1.638,1.706,1.7681,1.8207,2.0235,2.1001,2.0645,2.1711,2.2395,2.2721,2.3057,2.3392,2.3724,2.4064,2.4209,2.4266,2.4461,2.4196,2.3623,2.2951,2.2269,2.1562,2.0731,2.0385,2.0308,2.0308,2.0308,2.0308,2.0305,2.0342,2.0752,2.2455,2.3003,2.3477,2.5098,2.4961,2.418,2.3301,2.248,2.166,2.0781,2.0585,2.054,2.0425,2.1614,2.2663,2.2778,2.4101,2.5173,2.5288,2.5308,2.5308,2.5308,2.5019,2.4731,2.4569,2.4348,2.419,2.419,2.43,2.4658,2.5356,2.5595,2.6035,2.6741,2.6859,2.6914,2.6914,2.6914,2.7255,2.7952,2.7952,2.8319,2.9005,2.9005,2.8614,0.0,0.0067,0.0157,0.0157,0.0239,0.0308,0.032,0.0334,0.0,0.0,0.0677,0.0841,0.1354,0.1748,0.222,0.2941,0.0,0.0,0.0,0.0,0.5419,0.0,0.0,0.6371,0.6477,0.6901,0.0,0.0,0.7917,0.8687,0.9569,1.0167,1.0962,1.2027,1.2851,1.342,1.3762,1.5164,1.6282,1.7091,1.8527,1.9688,2.0631,2.1373,2.2077,2.2721,2.3057,0.0,2.3724,2.4064,2.4303,2.4469,2.467,2.4735,2.4675,2.4042,2.3299,2.2447,2.16,2.0865,2.0308,2.0308,2.0308,2.0308,2.0305,2.0342,2.0636,2.1712,2.2534,2.334,2.4355,2.4512,2.418,2.3301,2.248,2.166,2.0781,2.0512,2.043,2.0393,2.113,2.1947,2.2682,2.3644,2.4529,2.5192,2.5308,2.5308,2.5308,2.5019,2.479,2.4753,2.4428,2.419,2.419,2.4805,2.5246,2.5393,2.6641,2.7449,2.7585,2.8235,2.8583,2.8583,2.8583,2.8656,2.8785,2.8785,2.8858,2.9005,2.9005,2.8614,0.0,0.0,0.0,0.0,0.0,0.0,0.0,0.0,0.0,0.0,0.0536,0.0746,0.1042,0.1283,0.0,0.0,0.0,0.0,0.0,0.0,0.0,0.0,0.0,0.0,0.0,0.6258,0.6583,0.6583,0.7112,0.7793,0.8622,0.9913,1.0982,1.1782,1.2706,1.3323,1.3564,1.485,1.5643,1.5949,1.7712,1.8982,1.9799,2.0679,2.1678,2.2721,2.3057,2.3392,2.3724,2.4064,2.4321,2.4528,2.4723,2.4624,2.4291,2.3655,2.2874,2.2004,2.1177,2.0615,2.0308,2.0308,2.0308,2.0296,2.0306,2.0323,2.0534,2.1487,2.207,2.2731,2.4062,2.4062,2.3613,2.3203,2.2148,2.1113,2.0684,2.0486,2.0408,2.0408,2.0995,2.1773,2.2643,2.3509,2.4375,2.5173,2.5308,2.5308,2.5308,2.5019,2.4804,2.4804,2.4435,2.419,2.419,2.4934,2.5576,2.5988,2.7126,2.7989,2.8411,2.8785,2.9005,2.9005,2.9005,2.9005,2.9005,2.9005,2.9005,2.9005,2.9005,2.8614,-0.0285,-0.0177,-0.0022,-0.017,-0.0102,0.0,0.0,0.0139,0.0,0.0,0.046,0.0642,0.0698,0.0,0.0993,0.0,0.1849,0.2349,0.0,0.0,0.0,0.0,0.0,0.0,0.4908,0.5454,0.0,0.6179,0.6704,0.7314,0.8036,0.974,1.0914,1.1455,1.2334,1.3053,1.3514,1.4402,1.4859,1.4859,1.6845,1.816,1.8906,1.9982,2.1262,2.2621,2.2977,2.33,2.3628,2.3947,2.4257,2.452,2.467,2.4356,2.377,2.3404,2.2521,2.1446,2.0985,2.0596,2.0308,2.0308,2.0308,2.0308,2.0308,2.0314,2.0485,2.1202,2.1603,2.214,2.3515,2.3477,2.3066,2.2871,2.1699,2.0605,2.0605,2.0486,2.0408,2.0408,2.0995,2.1773,2.2643,2.3509,2.4375,2.5173,2.5308,2.5308,2.5308,2.5031,2.4828,2.4804,2.4435,2.419,2.419,2.5099,2.5944,2.6557,2.753,2.8338,2.8968,2.9005,2.9005,2.9005,2.9005,2.9005,2.9005,2.9005,2.9005,2.9005,2.9005,2.8692,-0.1189,-0.074,-0.0127,-0.0672,-0.0406,0.0,0.0,0.0,0.0,-0.0143,-0.0217,-0.021,0.0034,-0.0009,0.0157,0.0,0.0,0.1198,0.0,0.0,0.0,0.0,0.0,0.0,0.361,0.4218,0.5029,0.6114,0.6704,0.7482,0.8574,0.9266,0.989,1.041,1.093,1.1477,1.2007,1.252,1.3198,1.4016,1.5197,1.6696,1.8478,1.9569,2.0895,2.2363,2.269,2.2982,0.0,2.3599,2.404,2.4503,2.4528,2.4237,2.3873,2.4539,2.3398,2.16,2.2312,2.1562,2.0308,2.0308,2.0308,2.0308,2.0308,2.0337,2.0402,2.0506,2.1189,2.1933,2.209,2.2617,2.293,2.2187,2.1289,2.0605,2.0605,2.0486,2.0408,2.0408,2.0995,2.1773,2.2643,2.3509,2.4375,2.5173,2.5308,2.5308,2.5308,2.5105,2.4924,2.4818,2.4435,2.419,2.419,2.5603,2.6521,2.6612,2.8033,2.8932,2.9005,2.9005,2.9005,2.9005,2.9005,2.9005,2.9005,2.9005,2.9005,2.9005,2.9005,2.8951,-0.1281,-0.1108,-0.084,-0.1087,-0.0891,-0.0623,-0.0451,0.0,-0.0275,-0.0111,-0.0124,-0.0123,-0.0022,-0.0045,0.0016,0.0311,0.0445,0.0698,0.1217,0.0,0.0,0.0,0.0,0.0,0.0,0.0,0.4504,0.6093,0.6392,0.7021,0.8152,0.8716,0.9259,0.9804,1.0581,1.1263,1.1792,1.2514,1.3213,1.3901,1.4588,1.5798,1.747,1.8269,1.9586,2.1323,2.2071,2.269,0.0,2.3555,2.402,2.4503,2.4503,2.4204,2.383,2.4159,2.3101,2.1543,2.1908,2.1254,2.0308,2.0308,2.0292,2.0299,2.0299,2.0358,2.0416,2.0443,2.0742,2.1186,2.1758,2.2148,2.2168,2.1328,2.0859,2.0605,2.0605,2.0486,2.0408,2.0408,2.0608,2.1038,2.187,2.274,2.3605,2.4452,2.4981,2.5308,2.5308,2.5116,2.4943,2.4799,2.4553,2.4321,2.4209,2.5676,2.6602,2.6602,2.8106,2.9005,2.9005,2.9005,2.9005,2.9005,2.9005,2.9005,2.9005,2.9005,2.9005,2.9005,2.95,2.9453,-0.1608,-0.1513,-0.1325,-0.1474,-0.1308,-0.103,0.0,-0.0615,-0.0463,-0.0181,-0.0194,-0.0237,-0.0135,-0.0118,-0.0108,-0.0064,0.0132,0.0379,0.0658,0.0831,0.0,0.0,0.0,0.1337,0.0,0.2734,0.4025,0.5298,0.5894,0.6541,0.7342,0.807,0.8777,0.9478,1.0196,1.0876,1.156,1.2176,1.2827,1.3488,1.3894,1.4973,1.6607,1.7179,1.8466,2.0315,2.1016,2.1932,0.0,2.3119,2.3692,2.4419,2.4419,2.4132,2.3739,2.4005,2.2983,2.1543,2.1793,2.1196,2.0292,2.0304,2.0318,2.0327,2.0347,2.0383,2.0437,2.0482,2.0513,2.0676,2.1347,2.1523,2.1367,2.0742,2.0605,2.0605,2.0605,2.0486,2.0408,2.0408,2.0359,2.0558,2.137,2.2216,2.3105,2.3975,2.4774,2.5308,2.5308,2.5187,2.5011,2.4825,2.467,2.4579,2.4559,2.5805,2.6704,2.6943,2.8235,2.9005,2.9005,2.9005,2.9005,2.9005,2.9005,2.9005,2.9005,2.9005,2.9005,2.9005,2.9574,2.9658,-0.2393,-0.2006,-0.1417,-0.1873,-0.1542,-0.1024,0.0,-0.0803,-0.0801,-0.0465,-0.0656,-0.079,-0.0459,-0.0397,-0.0354,-0.0219,-0.0084,0.0165,0.0632,0.031,0.0,0.0,0.0,0.026,0.0856,0.249,0.35,0.3522,0.5185,0.0,0.6221,0.7301,0.8398,0.9459,0.9518,1.0001,1.1,1.1019,1.1512,1.2526,1.2914,1.4176,1.6116,1.6592,1.7792,1.9508,1.9524,2.0505,0.0,2.2118,2.2936,2.4199,2.4199,2.3916,2.3618,2.4476,2.3389,2.162,2.2489,2.1696,2.0304,2.0302,2.034,2.0418,2.0478,2.0507,2.0507,2.0508,2.0541,2.0605,2.0605,2.0605,2.0605,2.0605,2.0605,2.0605,2.0605,2.0486,2.0408,2.0408,2.0359,2.0558,2.137,2.2216,2.3105,2.3975,2.4774,2.5308,2.5308,2.5303,2.5165,2.484,2.4797,2.4968,2.5351,2.6135,2.6943,2.7732,2.8546,2.9005,2.9005,2.9005,2.9005,2.9005,2.9005,2.9005,2.9005,2.9005,2.9005,2.9005,2.9005,2.9396,-0.2097,-0.2001,-0.1791,-0.1855,-0.1717,-0.1476,-0.1072,-0.1003,-0.0911,-0.0485,-0.0486,-0.0526,-0.0418,-0.0401,-0.0461,-0.0649,-0.0374,0.0,0.0,0.0,0.0,-0.0235,-0.0101,0.0238,0.0,0.0,0.2224,0.3409,0.4025,0.4899,0.6136,0.6541,0.7252,0.8378,0.9119,0.9805,1.0456,1.0819,1.1494,1.2508,1.2626,1.351,1.5035,1.5618,1.6819,1.8424,1.8882,1.9816,2.1056,2.1799,2.2507,2.3181,2.3912,2.3908,2.3618,2.4469,2.3408,2.162,2.2509,2.1696,2.0304,2.0302,2.0359,2.0418,2.048,2.0538,2.0564,2.0564,2.0585,2.0605,2.0605,2.0605,2.0605,2.0605,2.0605,2.0605,2.0605,2.0486,2.0408,2.0408,2.0359,2.0385,2.0635,2.137,2.2216,2.3086,2.3932,2.4678,2.5231,2.5308,2.5165,2.484,2.4804,2.4968,2.5369,2.6135,2.6943,2.7761,2.8558,2.9005,2.9005,2.9005,2.9005,2.9005,2.9005,2.9005,2.9005,2.9005,2.9574,3.0632,3.0368,3.0769,0.0,-0.1882,-0.1889,-0.1761,-0.1724,-0.1618,-0.1194,-0.1104,-0.099,-0.0593,-0.0552,-0.0548,-0.0424,-0.0505,-0.064,-0.0802,-0.066,-0.0636,0.0,0.0,0.0,-0.0428,0.0,0.0,0.0,0.0776,0.1339,0.2443,0.3127,0.4004,0.512,0.5825,0.652,0.7238,0.8329,0.9222,0.9923,1.0283,1.1046,1.2228,1.2228,1.2946,1.4292,1.4708,1.567,1.7054,1.762,1.8647,0.0,2.119,2.2046,2.2709,2.3783,2.4111,2.4066,2.4608,2.3617,2.2066,2.2647,2.1714,2.0308,2.0359,2.0425,2.0481,2.0536,2.0564,2.0605,2.0605,2.0605,2.0684,2.1016,2.0859,2.0684,2.1016,2.084,2.0605,2.0605,2.0486,2.0408,2.0408,2.0588,2.0654,2.0346,2.1235,2.2177,2.272,2.3548,2.4394,2.5192,2.5308,2.5165,2.484,2.4804,2.5099,2.5782,2.6319,2.7071,2.8172,2.8712,2.9005,2.9005,2.9005,2.9005,2.9005,2.9005,2.9005,2.9005,2.9005,2.9666,3.0944,3.0995,3.1387,0.0,-0.1645,-0.172,-0.1586,-0.1558,-0.1476,-0.1156,-0.1089,0.0,-0.0768,-0.0812,-0.0813,-0.0517,-0.0711,-0.0887,-0.0802,-0.0974,-0.0965,0.0,-0.0615,0.0,0.0,-0.0021,0.0,-0.0063,0.0482,0.0851,0.0895,0.2443,0.3413,0.35,0.5185,0.6157,0.6206,0.7259,0.8337,0.9379,0.9459,1.0244,1.1737,1.1774,1.2543,1.3901,1.3901,1.4525,0.0,1.6027,1.7181,1.891,2.0329,2.1547,2.2598,2.37,2.4407,2.4804,2.4804,2.3947,2.281,2.2886,2.1759,2.0316,2.0467,2.0541,2.0605,2.0605,2.0605,2.0605,2.0605,2.0605,2.0801,2.168,2.125,2.082,2.1699,2.123,2.0605,2.0605,2.0486,2.0408,2.0408,2.0995,2.1254,2.05,2.1735,2.2816,2.2874,2.3586,2.4394,2.5192,2.5308,2.5165,2.484,2.4804,2.5298,2.6507,2.6602,2.7281,2.8895,2.9005,2.9005,2.9005,2.9005,2.9005,2.9005,2.9005,2.9005,2.9005,2.906,2.95,3.0301,3.1109,3.1461,-0.1044,0.0,-0.1235,-0.1099,-0.1147,-0.117,0.0,-0.1025,-0.1052,0.0,0.0,-0.0937,-0.1065,-0.1066,-0.1196,-0.1628,-0.1447,-0.1304,-0.1446,0.0,0.0,-0.0688,-0.0286,-0.0177,-0.064,-0.0134,0.0404,0.0873,0.1717,0.2578,0.3456,0.4774,0.5723,0.6179,0.6859,0.7551,0.8275,0.9079,1.004,1.1124,1.1586,1.2543,1.3901,1.3901,1.4525,1.5619,1.6027,1.676,1.7804,1.943,2.0586,2.1501,2.2774,2.3905,2.4804,2.4804,2.3947,2.281,2.2886,2.1759,2.0316,2.0467,2.0541,2.0605,2.0605,2.0605,2.0605,2.0605,2.0605,2.0801,2.168,2.125,2.082,2.1699,2.123,2.0605,2.0605,2.0486,2.0408,2.0408,2.0995,2.1446,2.1254,2.21,2.3028,2.3682,2.3975,2.4394,2.5192,2.5308,2.5165,2.484,2.4804,2.5298,2.6507,2.6602,2.7281,2.8895,2.9005,2.9005,2.9005,2.9005,2.9005,2.9005,2.9005,2.9005,2.9005,2.961,3.0338,3.114,3.1935,3.2484,-0.1006,-0.1044,-0.1085,-0.1008,-0.1048,-0.1085,-0.1008,0.0,0.0,0.0,0.0,-0.1038,-0.1182,-0.1328,-0.1526,-0.1852,-0.187,0.0,0.0,0.0,-0.1138,-0.0932,-0.0605,-0.0426,0.0,-0.0202,0.0135,0.0471,0.1051,0.1782,0.2667,0.3829,0.4882,0.5766,0.6343,0.7048,0.7891,0.8716,0.9629,1.0597,1.1409,1.2306,1.3251,1.3467,1.4122,1.5108,1.5491,1.6177,1.7199,1.8882,2.0141,2.1133,2.2482,2.3737,2.4804,2.4804,2.42,2.3358,2.3047,2.1847,2.0443,2.0516,2.0565,2.0605,2.0605,2.0605,2.0605,2.0605,2.0605,2.0801,2.168,2.125,2.082,2.1699,2.123,2.0586,2.0563,2.0476,2.0383,2.0354,2.1297,2.1966,2.1562,2.2547,2.3567,2.4033,2.411,2.4394,2.5192,2.5308,2.5165,2.484,2.4804,2.5298,2.6507,2.6602,2.7281,2.8895,2.9005,2.9005,2.9005,2.9005,2.9005,2.9005,2.9005,2.9005,2.9005,2.9618,3.0434,3.1403,3.2041,3.2645,-0.1224,-0.1222,-0.1224,-0.1178,-0.1216,-0.1263,-0.1263,0.0,0.0,0.0,0.0,0.0,0.0,-0.1606,0.0,0.0,0.0,0.0,-0.2265,-0.1978,-0.1616,-0.1089,-0.0962,0.0,-0.018,-0.0045,0.0,0.0,0.056,0.1163,0.1762,0.2885,0.4004,0.513,0.583,0.6668,0.7642,0.8255,0.9082,1.0089,1.1092,1.1891,1.2508,1.2908,1.3602,1.4533,1.4898,0.0,1.6924,1.854,1.9826,2.0955,2.23,2.3552,2.4615,2.4747,2.4504,2.3994,2.3129,2.1846,2.0605,2.0605,2.0605,2.0605,2.0605,2.0605,2.0605,2.0605,2.0605,2.0801,2.168,2.125,2.082,2.1699,2.123,2.0565,2.0512,2.0437,2.0361,2.0302,2.1551,2.2408,2.1793,2.3028,2.4149,2.4259,2.4279,2.4519,2.5168,2.5274,2.5154,2.4797,2.4782,2.5298,2.6507,2.6602,2.7281,2.8895,2.9005,2.9005,2.9005,2.9005,2.9005,2.9005,2.9005,2.906,2.9189,2.9662,3.0457,3.1586,3.2056,3.2712,-0.1624,-0.1769,-0.1793,-0.1511,-0.1741,-0.2033,-0.2033,0.0,0.0,0.0,0.0,0.0,0.0,-0.2165,-0.2235,0.0,0.0,-0.2299,0.0,0.0,-0.1764,-0.1665,0.0,-0.0873,-0.0761,-0.0292,0.0,0.0,0.056,0.1163,0.1762,0.2885,0.3811,0.4517,0.561,0.6285,0.6456,0.751,0.8525,0.9533,1.0147,1.1175,1.2508,1.2579,1.3289,1.4535,0.0,1.594,1.6904,1.8194,1.9214,2.0113,2.1462,2.2694,2.3791,2.4521,2.4536,2.3967,2.2502,2.1378,2.0605,2.0605,2.0605,2.0605,2.0605,2.0605,2.0605,2.0605,2.0605,2.0801,2.168,2.125,2.082,2.1699,2.1188,2.0512,2.0509,2.0391,2.0305,2.0294,2.1069,2.1889,2.2509,2.3432,2.4336,2.5,2.5115,2.5095,2.5057,2.5184,2.5115,2.4599,2.47,2.5298,2.6507,2.6602,2.7281,2.8895,2.9005,2.9005,2.9005,2.9005,2.9005,2.9005,2.9005,2.9335,3.0026,3.0766,3.1572,3.2417,3.3185,3.3964,-0.1627,-0.1868,-0.2054,-0.1825,-0.1933,-0.211,-0.2183,0.0,0.0,0.0,0.0,0.0,0.0,0.0,-0.2455,-0.2767,0.0,-0.2829,-0.2915,-0.2841,-0.2642,0.0,0.0,-0.1252,-0.094,-0.0359,0.0,0.0,0.0247,0.0672,0.1274,0.2115,0.2998,0.3876,0.5082,0.5873,0.62,0.7006,0.7807,0.859,0.9689,1.0702,1.1663,1.2234,1.3238,1.4533,1.4836,1.5663,1.6863,1.7669,1.8703,1.989,2.076,2.208,2.3624,2.4713,2.4456,2.3445,2.275,2.1672,2.0605,2.0605,2.0605,2.0605,2.0605,2.0605,2.0605,2.0605,2.0605,2.0683,2.1051,2.0854,2.0637,2.0997,2.0767,2.0435,2.0408,2.0337,2.0298,2.0308,2.0955,2.1639,2.2023,2.2816,2.3682,2.4524,2.4639,2.4749,2.4971,2.5082,2.4974,2.4543,2.4575,2.5164,2.6497,2.6602,2.7281,2.8895,2.9005,2.9005,2.9005,2.9005,2.9005,2.9005,2.9427,2.9831,3.021,3.123,3.1906,3.2301,3.3098,3.3916,-0.1693,-0.1968,-0.2289,-0.2266,0.0,-0.2276,-0.2351,0.0,0.0,0.0,0.0,0.0,0.0,-0.2443,0.0,-0.292,-0.3189,-0.336,-0.336,-0.3507,-0.3376,-0.2763,-0.2162,-0.1563,-0.0962,-0.0359,0.0,0.0,0.0,0.0269,0.0873,0.1474,0.2271,0.3281,0.447,0.5373,0.5986,0.6535,0.7175,0.7912,0.9224,1.0224,1.0927,1.1904,1.3084,1.4374,1.4537,1.5389,1.6719,1.7372,1.8381,1.9577,2.0233,2.1726,2.3619,2.4503,2.4066,2.2974,2.2862,2.1831,2.0605,2.0605,2.0605,2.0605,2.0605,2.0586,2.0585,2.0585,2.0564,2.0541,2.0511,2.0483,2.0451,2.0418,2.0398,2.0357,2.0302,2.0295,2.0299,2.0304,2.0808,2.1273,2.1466,2.2216,2.3105,2.3975,2.4259,2.4528,2.4898,2.4986,2.4839,2.4478,2.4469,2.5068,2.6486,2.6778,2.7493,2.8913,2.9005,2.9005,2.9005,2.9005,2.9097,2.928,2.9886,3.0393,3.076,3.1683,3.2248,3.2448,3.306,3.3876,-0.209,-0.2355,-0.2639,-0.2948,-0.3017,0.0,-0.2869,-0.3017,0.0,-0.3036,0.0,0.0,0.0,-0.2963,-0.306,-0.3081,-0.3361,-0.3587,-0.3587,0.0,-0.3376,-0.2763,-0.2162,-0.1563,-0.0962,-0.0359,0.0,0.0,0.0,0.0269,0.0873,0.1474,0.2095,0.2738,0.3858,0.4761,0.5351,0.5959,0.6816,0.7919,0.8513,0.9532,1.0927,1.1557,1.2614,1.397,1.4666,1.5447,1.6338,1.7563,1.8308,1.8811,2.0033,2.1726,2.3474,2.325,2.3103,2.2901,2.2219,2.1387,2.0605,2.0605,2.0605,2.0605,2.0605,2.0563,2.0511,2.0511,2.0451,2.043,2.0482,2.0446,2.0414,2.0391,2.0347,2.0316,2.0291,2.0304,2.0296,2.0308,2.0346,2.0615,2.137,2.2216,2.3105,2.3975,2.4736,2.5119,2.4849,2.4911,2.4792,2.4284,2.4393,2.5068,2.6486,2.7273,2.8081,2.895,2.9005,2.9005,2.9005,2.9005,2.9354,3.0099,3.0173,3.0931,3.2436,3.2502,3.2941,3.3675,3.373,3.461,-0.1923,-0.2085,-0.2274,-0.2484,0.0,0.0,0.0,-0.2973,-0.2977,-0.3187,-0.3023,0.0,0.0,0.0,-0.3101,-0.3101,-0.3378,-0.3604,-0.3604,-0.3604,-0.3512,-0.3284,-0.2388,-0.1719,-0.1474,-0.0583,0.0,0.0,0.0,0.009,0.0337,0.0918,0.1518,0.2117,0.324,0.4317,0.5281,0.5894,0.6583,0.7363,0.8267,0.9473,1.0927,1.152,1.2561,1.3934,1.4458,1.5272,1.6271,1.716,1.7969,1.875,2.0289,2.1348,2.209,2.2743,2.2996,2.2892,2.2163,2.168,2.1328,2.0781,2.0565,2.0539,2.0539,2.0484,2.0437,2.0437,2.0381,2.0337,2.0363,2.0757,2.1017,2.0466,2.0697,2.0904,2.0403,2.0296,2.0308,2.0308,2.0308,2.0404,2.0692,2.1023,2.1523,2.235,2.3108,2.3658,2.3943,2.4407,2.4564,2.4237,2.5159,2.6016,2.6539,2.7794,2.8675,2.8987,2.9005,2.9225,2.9721,2.9739,3.0118,3.0925,3.1439,3.1977,3.2601,3.3096,3.3213,3.3011,3.355,3.4393,-0.18,-0.1992,-0.2235,0.0,0.0,0.0,0.0,-0.3302,-0.3224,-0.3356,-0.3184,0.0,0.0,0.0,0.0,0.0,-0.3409,-0.3604,-0.3604,-0.3604,-0.3604,-0.3604,-0.2544,-0.1808,-0.1808,-0.0716,0.0,0.0,0.0,0.0,0.0,0.0583,0.1185,0.1784,0.2733,0.3811,0.5,0.561,0.6273,0.7007,0.8157,0.9304,1.0473,1.139,1.2413,1.3505,1.42,1.5063,1.6035,1.6856,1.7832,1.8913,2.0197,2.0887,2.1241,2.1936,2.2356,2.2485,2.1753,2.1484,2.1387,2.076,2.0539,2.0506,2.0477,2.0425,2.0363,2.0363,2.0333,2.0308,2.0308,2.0927,2.1412,2.0828,2.1312,2.1754,2.1216,2.0865,2.075,2.1043,2.0865,2.0673,2.0673,2.0908,2.1177,2.1466,2.2306,2.3055,2.345,2.4094,2.4409,2.4218,2.5199,2.6062,2.6547,2.7611,2.8455,2.8968,2.9244,2.9629,3.0173,3.0448,3.0894,3.1584,3.2256,3.2659,3.2789,3.3478,3.3433,3.2729,3.3328,3.4151,-0.1809,-0.2194,-0.268,0.0,0.0,0.0,-0.4163,-0.4208,-0.4088,-0.369,0.0,-0.3493,-0.317,0.0,0.0,-0.3344,-0.348,-0.3604,-0.3604,-0.3604,-0.3604,-0.3604,-0.2544,-0.1808,-0.1808,-0.0716,0.0,0.0,0.0,0.0,0.0,0.056,0.1163,0.1784,0.2386,0.3243,0.4387,0.5,0.5878,0.7008,0.8149,0.8941,0.9455,1.1062,1.2048,1.2567,1.3911,1.4882,1.5599,1.6736,1.7993,1.9235,1.9645,2.0421,2.1216,2.0629,2.0951,2.1584,2.0854,2.0605,2.0605,2.0516,2.0508,2.0482,2.0423,2.0347,2.0307,2.0307,2.0304,2.0308,2.0308,2.0904,2.1504,2.1485,2.2158,2.2797,2.2797,2.212,2.1773,2.2624,2.21,2.1504,2.1504,2.2216,2.2485,2.1635,2.2809,2.3707,2.3519,2.4075,2.4428,2.4218,2.4208,2.485,2.6455,2.6602,2.7281,2.8895,2.9769,3.021,3.021,3.098,3.1602,3.1996,3.2411,3.2812,3.3199,3.3592,3.3578,3.3199,3.3199,3.4063,-0.2079,-0.2129,0.0,-0.2825,0.0,0.0,0.0,-0.4208,0.0,0.0,-0.3683,-0.36,-0.3171,0.0,0.0,-0.3385,-0.3501,-0.3604,-0.3604,-0.3604,-0.3604,-0.3604,-0.2544,-0.1808,-0.1808,-0.0716,0.0,0.0,0.0,0.0,0.0,0.018,0.0739,0.1762,0.1984,0.2824,0.4387,0.5,0.569,0.645,0.7586,0.878,0.9992,1.1242,1.2048,1.2567,1.3911,1.4882,1.564,1.7451,1.8471,1.8978,1.9563,2.0037,2.0398,2.0399,2.0955,2.1595,2.0855,2.0996,2.1406,2.0711,2.0474,2.0422,2.0345,2.0328,2.0295,2.0295,2.0292,2.0308,2.0308,2.0904,2.137,2.0788,2.1754,2.2624,2.2023,2.2158,2.2489,2.2759,2.2586,2.2408,2.2408,2.2034,2.1651,2.1402,2.1549,2.2039,2.3013,2.3823,2.4275,2.4199,2.4713,2.5466,2.6521,2.7126,2.7897,2.8932,2.9769,3.0448,3.1029,3.1825,3.2424,3.2838,3.3232,3.3355,3.3199,3.3317,3.3151,3.2697,3.2697,3.3583,-0.2043,-0.2102,0.0,-0.2775,-0.3433,-0.4023,-0.43,0.0,0.0,0.0,0.0,-0.3767,-0.3371,-0.3492,0.0,-0.3496,-0.3542,-0.3604,-0.3604,-0.3604,-0.3604,-0.3604,-0.2746,-0.2073,-0.183,-0.0918,-0.0269,-0.0022,0.0,0.0,0.0,0.0,0.056,0.1762,0.1808,0.2539,0.4071,0.4652,0.5238,0.5852,0.6993,0.8264,0.964,1.0883,1.1733,1.2324,1.4121,1.5316,1.6155,1.7881,1.8708,1.8937,1.9551,1.9936,2.0135,2.0332,2.0724,2.113,2.0738,2.0937,2.1245,2.0656,2.04,2.0342,2.0305,2.0299,2.0308,2.0308,2.0308,2.0308,2.0308,2.0654,2.0981,2.0827,2.2081,2.3163,2.2643,2.2951,2.3413,2.3735,2.3463,2.3199,2.3199,2.2639,2.1943,2.1284,2.1241,2.1805,2.329,2.3896,2.419,2.419,2.4915,2.5723,2.6539,2.7346,2.8136,2.895,2.9613,3.0399,3.1347,3.2173,3.2689,3.2919,3.349,3.3522,3.2919,3.3105,3.3113,3.2926,3.2773,3.3653,-0.1842,0.0,0.0,-0.2847,-0.356,0.0,-0.4467,-0.4431,-0.4279,-0.404,0.0,-0.3889,-0.3639,-0.3801,-0.3892,-0.3642,-0.3604,-0.3604,-0.3604,-0.3604,-0.3604,-0.3604,-0.3056,-0.2495,-0.194,-0.1297,-0.0672,-0.0112,-0.0022,0.0,0.0,0.0,0.0556,0.1743,0.1787,0.2361,0.3537,0.4089,0.4651,0.5208,0.6346,0.7507,0.8667,1.0205,1.1321,1.2175,1.4483,1.6006,1.6939,1.8115,1.877,1.9081,1.9601,1.9992,2.0307,2.0386,2.0395,2.0416,2.0544,2.0541,2.048,2.0418,2.0345,2.0295,2.03,2.0308,2.0308,2.0308,2.0281,2.0277,2.0277,2.0277,2.0446,2.1167,2.2621,2.3842,2.3842,2.3962,2.4279,2.5009,2.4473,2.3906,2.3888,2.3663,2.2924,2.1311,2.1659,2.2588,2.3924,2.4153,2.419,2.419,2.4915,2.5723,2.6539,2.7346,2.8136,2.895,2.9317,3.0031,3.1225,3.2054,3.2502,3.25,3.3284,3.327,3.2434,3.2856,3.3251,3.3547,3.3134,3.401,0.0,-0.2098,0.0,0.0,-0.3639,-0.4011,-0.3853,-0.3875,-0.3906,-0.3847,-0.3755,-0.3669,-0.3619,-0.3639,-0.3672,-0.3619,-0.3604,-0.3604,-0.3604,-0.3604,-0.3604,-0.3604,-0.3056,-0.2652,-0.2517,-0.1541,-0.0851,-0.0716,-0.0269,0.0,0.0,0.0,0.0504,0.1615,0.1634,0.2154,0.3199,0.3786,0.42,0.4456,0.5592,0.6787,0.8069,1.0002,1.1993,1.3979,1.5051,1.6109,1.7185,1.818,1.8882,1.9339,1.9663,2.0007,2.0314,2.0383,2.0394,2.0408,2.0483,2.0478,2.0418,2.0337,2.0305,2.0295,2.03,2.0308,2.0308,2.0308,2.0193,2.0069,2.0069,2.0069,2.0079,2.0145,2.1045,2.1909,2.1909,2.2952,2.3875,2.3879,2.4359,2.4714,2.4597,2.3885,2.2946,2.1805,2.2284,2.2904,2.3217,2.3804,2.419,2.419,2.4915,2.5723,2.6539,2.7346,2.8136,2.895,2.8778,2.9207,3.0418,3.1217,3.1927,3.2483,3.2681,3.25,3.1951,3.2057,3.2458,3.3116,3.2657,3.3542,0.0,0.0,0.0,0.0,0.0,0.0,-0.3488,-0.3587,-0.3633,-0.3414,-0.3485,-0.3604,-0.3604,-0.3604,-0.3604,-0.3604,-0.3604,-0.3604,-0.3604,-0.3604,-0.3604,-0.3604,-0.3328,-0.3012,-0.2719,-0.1873,-0.1207,-0.0918,-0.033,0.0,0.0,0.0,0.0382,0.1234,0.1488,0.1995,0.2811,0.3309,0.3742,0.4112,0.491,0.6363,0.8451,1.0429,1.2366,1.4208,1.511,1.6147,1.7276,1.821,1.8916,1.943,1.9693,2.0007,2.0305,2.034,2.0376,2.041,2.0443,2.0416,2.0342,2.0302,2.0237,2.0162,2.0273,2.0237,2.0156,2.0156,2.0078,1.9993,1.9927,1.9893,1.9985,2.0292,2.1134,2.1864,2.1797,2.2765,2.374,2.4058,2.415,2.4292,2.4602,2.3824,2.3111,2.2969,2.2978,2.3134,2.3529,2.3933,2.4337,2.4732,2.5503,2.63,2.7108,2.7915,2.8471,2.87,2.8373,2.8622,2.9633,3.0057,3.0764,3.1901,3.2306,3.2264,3.1807,3.1807,3.2205,3.3002,3.2892,3.3721,0.0,0.0,0.0,0.0,0.0,0.0,-0.3212,-0.3338,-0.3369,-0.2978,-0.3246,-0.3541,-0.3541,-0.3583,-0.3604,-0.3604,-0.3604,-0.3604,-0.3604,-0.3604,-0.3604,-0.3604,-0.3604,-0.3376,-0.2763,-0.2162,-0.1558,-0.0952,-0.0343,0.0,0.0,0.0,0.0289,0.0953,0.1354,0.1869,0.2536,0.2857,0.3301,0.3824,0.4446,0.6157,0.8812,1.0614,1.2293,1.386,1.5007,1.6173,1.7324,1.823,1.8932,1.9494,1.9705,2.0021,2.0327,2.0309,2.0348,2.0405,2.0388,2.0354,2.0308,2.0308,2.0158,2.0031,2.0237,2.0161,1.9988,1.9988,1.9974,1.9924,1.979,1.9862,2.0095,2.059,2.1683,2.2546,2.2311,2.2881,2.3679,2.437,2.3923,2.3663,2.4332,2.3758,2.3428,2.4098,2.3639,2.3456,2.4116,2.4318,2.4658,2.5319,2.6245,2.709,2.7732,2.8528,2.8839,2.8433,2.8088,2.8195,2.8876,2.8956,2.9625,3.0959,3.1842,3.2074,3.1696,3.1696,3.2093,3.2886,3.324,3.4031,0.0,0.0,0.0,0.0,0.0,-0.3212,0.0,0.0,-0.2978,0.0,-0.3141,-0.3336,-0.3336,-0.349,-0.3604,-0.3604,-0.3604,-0.3604,-0.3604,-0.3604,-0.3604,-0.3604,-0.3604,-0.3376,-0.2763,-0.2162,-0.1561,-0.0955,-0.0337,0.0,0.0,0.0,0.0378,0.1216,0.13,0.1763,0.2673,0.2723,0.2857,0.3064,0.4635,0.6222,0.7839,0.9321,1.1385,1.386,1.5007,1.6242,1.7512,1.8283,1.9041,1.9742,1.9784,2.0031,2.0387,2.0319,2.0332,2.0383,2.0335,2.0312,2.0308,2.0308,2.0154,2.0031,2.0237,2.0161,1.9988,1.9988,1.9922,1.9803,1.9656,2.0145,2.0476,1.9712,2.1357,2.2916,2.2185,2.2719,2.3303,2.3241,2.3695,2.4118,2.4228,2.4126,2.408,2.4171,2.4116,2.408,2.419,2.4805,2.5283,2.5393,2.6751,2.7677,2.7787,2.8528,2.8839,2.8433,2.8088,2.795,2.8053,2.8663,2.9227,2.9745,3.0824,3.1349,3.1291,3.1291,3.1664,3.2411,3.3093,3.3838,-0.1797,-0.2093,-0.2391,0.0,0.0,0.0,-0.2728,0.0,-0.2781,-0.2781,-0.2936,-0.3115,-0.3279,-0.3455,-0.3604,-0.3604,-0.3604,-0.3604,-0.3604,-0.3604,-0.3604,-0.3604,-0.3306,-0.299,-0.2719,-0.1855,-0.1176,-0.0924,-0.034,0.0,0.0,0.0,0.0172,0.0553,0.1037,0.1507,0.1907,0.2444,0.2981,0.353,0.4285,0.5602,0.7357,0.8278,1.0268,1.3063,1.4026,1.5596,1.7534,1.785,1.8695,1.979,1.979,2.0039,2.0398,2.0318,2.0345,2.0396,2.0324,2.0307,2.0308,2.0308,2.0116,1.9917,2.0088,1.9967,1.978,1.978,1.9726,1.9762,2.0033,2.0369,2.0715,2.1076,2.2148,2.3103,2.3214,2.3176,2.3103,2.3024,2.3657,2.419,2.419,2.419,2.419,2.419,2.4585,2.4879,2.4879,2.5566,2.6256,2.6696,2.7376,2.797,2.8429,2.8585,2.8502,2.8143,2.7765,2.7454,2.7241,2.8373,2.9066,2.9211,3.0508,3.119,3.119,3.119,3.136,3.1701,3.2425,3.3169,-0.1797,-0.1942,-0.2111,-0.2144,0.0,0.0,0.0,0.0,-0.2664,0.0,-0.2801,-0.2956,-0.3155,-0.3371,-0.352,-0.3542,-0.3576,-0.3604,-0.3604,-0.3604,-0.3542,-0.3396,-0.297,-0.2585,-0.227,-0.1419,-0.0831,-0.069,-0.0247,0.0,0.0,0.0,0.005,0.0168,0.0904,0.1355,0.1473,0.2294,0.3076,0.3826,0.3945,0.497,0.6787,0.7508,0.934,1.2047,1.3029,1.4739,1.6876,1.7316,1.8298,1.9513,1.9715,2.0039,2.0383,2.0327,2.0338,2.0394,2.032,2.0308,2.0285,2.0241,2.0031,1.9813,1.9927,1.9792,1.9608,1.9608,1.9757,2.0006,2.0394,2.0823,2.1355,2.2198,2.285,2.3474,2.4061,2.3731,2.3299,2.3299,2.3786,2.419,2.419,2.419,2.419,2.419,2.4879,2.5393,2.5393,2.6282,2.7126,2.7732,2.7885,2.8205,2.8796,2.8489,2.8129,2.7765,2.7472,2.7115,2.6708,2.818,2.8993,2.8993,3.0446,3.119,3.119,3.119,3.119,3.1207,3.1955,3.2699,-0.18,-0.2083,0.0,-0.2076,0.0,0.0,0.0,0.0,-0.2553,-0.2669,-0.2801,-0.2895,-0.2909,-0.3129,-0.334,-0.3406,-0.3508,-0.3604,-0.3604,-0.3604,-0.3396,-0.2812,-0.2721,-0.2244,-0.1111,-0.0941,-0.0668,-0.0092,-0.0018,0.0,0.0,0.0,0.0202,0.0655,0.1072,0.1507,0.1964,0.2447,0.2907,0.3339,0.3793,0.4654,0.5906,0.7082,0.8806,1.0957,1.2421,1.3786,1.5164,1.6824,1.7961,1.8731,1.9494,2.0039,2.0383,2.0327,2.0338,2.0394,2.032,2.0308,2.0273,2.0073,1.9922,1.979,1.9802,1.9701,1.9608,1.9608,2.0148,2.0693,2.0541,2.1685,2.2694,2.2014,2.3024,2.4153,2.419,2.4171,2.4135,2.4135,2.4171,2.419,2.419,2.419,2.419,2.419,2.4879,2.5393,2.5393,2.677,2.7761,2.7798,2.8131,2.8397,2.8433,2.8116,2.7768,2.7365,2.7319,2.7115,2.6708,2.818,2.8993,2.8993,3.0446,3.119,3.119,3.119,3.119,3.1207,3.1955,3.2699,-0.1643,-0.1712,0.0,0.0,-0.1938,-0.2136,-0.2173,-0.2345,-0.2515,-0.257,-0.2672,-0.2781,-0.2781,-0.3064,-0.3306,-0.333,-0.348,-0.3604,-0.3604,-0.3493,-0.324,-0.2754,-0.228,-0.1703,-0.0981,-0.0542,-0.0227,-0.0018,0.0,0.0,0.0,0.0,0.0084,0.0252,0.0937,0.1673,0.2447,0.2613,0.2907,0.3306,0.3772,0.4626,0.583,0.6789,0.8181,0.9909,1.12,1.3022,1.5091,1.5705,1.6939,1.8442,1.8873,1.9558,2.032,2.031,2.0327,2.0311,2.0168,2.0197,2.0241,1.9967,1.9836,1.9773,1.9701,1.955,1.9523,2.0033,2.0402,2.0839,2.1831,2.2547,2.3061,2.329,2.3557,2.3827,2.4123,2.419,2.419,2.419,2.419,2.419,2.419,2.4016,2.413,2.4849,2.5468,2.6023,2.649,2.7737,2.8478,2.8209,2.8321,2.8407,2.8407,2.7848,2.7454,2.7319,2.7051,2.6841,2.6708,2.818,2.8993,2.8993,3.0446,3.119,3.119,3.119,3.119,3.1207,3.1461,3.2005,-0.1538,0.0,0.0,0.0,0.0,-0.1836,-0.1966,0.0,-0.2311,-0.2467,-0.2565,-0.2651,-0.2689,-0.2946,-0.3162,-0.3162,-0.3307,-0.3383,-0.3256,-0.311,-0.2806,-0.2165,-0.1658,-0.1159,-0.0654,-0.0239,0.0,0.0,0.0,0.0,0.0,0.0,0.0134,0.0419,0.1004,0.1757,0.2696,0.2696,0.2828,0.3101,0.3712,0.4563,0.563,0.6706,0.8032,0.9523,1.0668,1.2329,1.4245,1.4853,1.6208,1.7952,1.8431,1.9325,2.0322,2.0312,2.0316,2.0305,2.0088,2.0102,2.0143,1.9832,1.9726,1.9695,1.9562,1.942,1.9481,2.0272,2.0713,2.1263,2.2639,2.3124,2.3377,2.3916,2.3703,2.3522,2.3937,2.4026,2.4026,2.4026,2.4026,2.3996,2.3886,2.3682,2.379,2.4555,2.5165,2.5799,2.6516,2.7591,2.8256,2.8228,2.8112,2.8029,2.8029,2.7452,2.7099,2.7099,2.6841,2.681,2.7063,2.8316,2.9128,2.9347,3.0565,3.119,3.119,3.119,3.119,3.119,3.119,3.1616,0.0,0.0,0.0,0.0,0.0,0.0,-0.1948,0.0,-0.1926,-0.2391,-0.2487,-0.2539,-0.2662,-0.2798,-0.2903,-0.2903,-0.3007,-0.2946,-0.2559,-0.2479,-0.2087,-0.1021,-0.0889,-0.0657,-0.0051,0.0,0.0,0.0,0.0,0.0,0.0,0.0,0.0402,0.1271,0.1305,0.1757,0.2696,0.2696,0.2696,0.2716,0.3586,0.4419,0.5251,0.686,0.8393,0.9843,1.0878,1.173,1.253,1.4309,1.5837,1.7155,1.8241,1.9368,2.0352,2.0311,2.0348,2.0361,2.0086,2.0007,1.9944,1.9682,1.9608,1.9555,1.9357,1.9297,1.9481,2.0309,2.1135,2.196,2.2786,2.3353,2.3692,2.3692,2.3408,2.3253,2.361,2.3664,2.3646,2.3682,2.3682,2.3577,2.3265,2.3189,2.3206,2.3224,2.3891,2.4653,2.5388,2.6264,2.7075,2.7759,2.753,2.7303,2.7303,2.6939,2.6691,2.6691,2.6691,2.7012,2.7739,2.8552,2.9348,3.0057,3.0818,3.119,3.119,3.119,3.119,3.119,3.119,3.1616,-0.1266,0.0,0.0,0.0,0.0,0.0,0.0,0.0,-0.1744,-0.2075,-0.2221,-0.234,-0.252,-0.2675,-0.2761,-0.2761,-0.2698,-0.2617,-0.252,-0.2123,-0.1605,-0.0981,-0.0819,-0.0556,-0.0051,0.0,0.0,0.0,0.0,0.0,0.0,0.0,0.0402,0.1271,0.1305,0.1757,0.2696,0.2696,0.2696,0.2716,0.3586,0.4419,0.5251,0.686,0.8276,0.9523,1.0902,1.1772,1.2276,1.3463,1.4722,1.606,1.7343,1.8472,1.9451,2.0069,2.0307,2.0283,1.9968,1.9927,1.9929,1.9532,1.9485,1.9555,1.9357,1.9297,1.9609,2.1041,2.1434,2.1702,2.2841,2.3415,2.3649,2.3392,2.267,2.2282,2.3152,2.2729,2.2418,2.3193,2.3346,2.3311,2.323,2.3009,2.3128,2.3938,2.4088,2.4383,2.5121,2.613,2.6766,2.6679,2.705,2.7303,2.7303,2.6939,2.6691,2.6691,2.6691,2.6793,2.6996,2.8299,2.9094,2.9314,3.0548,3.119,3.119,3.119,3.119,3.119,3.119,3.1616,-0.1365,0.0,0.0,0.0,0.0,0.0,-0.1379,-0.1455,-0.1577,0.0,-0.2066,-0.2174,-0.2337,-0.2341,-0.2326,-0.2319,-0.1999,-0.181,-0.1979,-0.1558,-0.1055,-0.058,-0.0462,-0.0303,-0.0034,0.0,0.0,0.0,0.0,0.0,0.0,0.0,0.0319,0.1022,0.1056,0.1492,0.2397,0.2414,0.2513,0.2716,0.3586,0.4419,0.5251,0.6697,0.8066,0.9365,1.0554,1.1446,1.2172,1.3025,1.4204,1.5608,1.66,1.7847,1.9101,1.9607,2.0007,2.0258,1.9912,1.9852,1.9844,1.9422,1.9372,1.9442,1.9246,1.9227,1.9533,2.0644,2.13,2.1707,2.2,2.2446,2.2697,2.2177,2.1491,2.1229,2.2305,2.1948,2.1741,2.2795,2.2996,2.2947,2.2845,2.2669,2.2758,2.3415,2.3386,2.3557,2.4296,2.5242,2.5875,2.5934,2.6622,2.7051,2.7051,2.6824,2.6691,2.6691,2.6691,2.6843,2.7148,2.8027,2.8789,2.9467,3.0294,3.0886,3.119,3.119,3.119,3.119,3.119,3.1427,-0.1634,-0.1469,0.0,0.0,-0.1225,0.0,-0.1504,-0.1429,-0.1416,0.0,-0.1925,-0.1968,-0.211,-0.1968,-0.1827,-0.1819,-0.1212,-0.0857,-0.1195,-0.0873,-0.0471,-0.005,0.0,0.0,0.0,0.0,0.0,0.0,0.0,0.0,0.0,0.0,0.0219,0.0689,0.0706,0.1125,0.1997,0.1997,0.2264,0.2779,0.3597,0.4451,0.5313,0.6467,0.7816,0.9285,0.9982,1.0956,1.2096,1.2869,1.4043,1.5436,1.6066,1.733,1.8824,1.8927,1.9466,2.0109,1.9762,1.9715,1.9737,1.9405,1.9297,1.9259,1.906,1.9142,1.9376,1.97,2.0894,2.1863,2.0842,2.1101,2.1425,2.0731,2.0216,2.0187,2.1315,2.1293,2.1385,2.2453,2.266,2.2573,2.2335,2.2296,2.2296,2.2296,2.2296,2.2533,2.319,2.3915,2.466,2.5406,2.6133,2.6607,2.6691,2.6691,2.6691,2.6691,2.6691,2.6996,2.7655,2.7756,2.8432,2.9818,3.0004,3.0463,3.119,3.119,3.119,3.119,3.119,3.119,-0.1641,-0.157,-0.1505,-0.1336,-0.1402,0.0,-0.138,-0.1326,-0.133,0.0,-0.1432,-0.1497,-0.1682,-0.1846,-0.196,-0.196,-0.1431,-0.0981,-0.0844,-0.042,-0.0101,-0.0017,0.0,0.0,0.0,0.0,0.0,0.0,0.0,0.0,0.0,0.0,0.0219,0.0689,0.0706,0.1125,0.1997,0.1997,0.2391,0.3196,0.3744,0.4594,0.5707,0.6595,0.7703,0.8944,0.9831,1.0787,1.1762,1.2724,1.3679,1.4657,1.5833,1.659,1.7109,1.7866,1.861,1.9219,1.8861,1.9207,1.9737,1.9405,1.9297,1.9259,1.906,1.9142,1.9368,1.9652,2.088,2.193,2.1241,2.1331,2.152,2.1156,2.0073,1.951,2.096,2.0738,2.0666,2.2088,2.2374,2.236,2.231,2.2296,2.2296,2.2296,2.2296,2.2347,2.2499,2.3156,2.3915,2.4643,2.5372,2.6048,2.664,2.6691,2.6691,2.6691,2.6691,2.6759,2.6911,2.7486,2.7942,2.8246,2.9463,3.0463,3.119,3.119,3.119,3.119,3.119,3.119,-0.1758,-0.1696,-0.1679,-0.158,0.0,0.0,0.0,-0.1418,-0.1369,-0.1598,-0.1468,-0.1381,-0.1655,-0.1615,-0.155,-0.1555,-0.1101,-0.0708,-0.0567,-0.0227,0.0,0.0,0.0,0.0,0.0,0.0,0.0,0.0,0.0,0.0,0.0,0.0,0.0101,0.0336,0.0353,0.0772,0.1642,0.1659,0.2106,0.3003,0.3679,0.4424,0.5233,0.628,0.7395,0.8549,0.9393,1.0455,1.1668,1.253,1.3447,1.4383,1.5295,1.6008,1.656,1.7064,1.7726,1.8363,1.8467,1.8781,1.9174,1.9268,1.9297,1.9235,1.8887,1.868,1.8639,1.9045,1.9805,2.035,1.9685,1.9875,2.0125,1.9619,1.891,1.8758,2.0281,2.0285,2.0458,2.1992,2.2296,2.2296,2.2296,2.2296,2.2296,2.2296,2.2296,2.2296,2.2296,2.2936,2.3678,2.4423,2.5152,2.5896,2.664,2.6691,2.6691,2.6691,2.6691,2.6691,2.6691,2.7063,2.7621,2.8383,2.9533,3.0463,3.119,3.119,3.119,3.119,3.119,3.119,-0.199,-0.1901,-0.1873,-0.1843,0.0,-0.1727,0.0,0.0,0.0,-0.1795,-0.1561,0.0,0.0,0.0,0.0,-0.1134,0.0,0.0,0.0,-0.024,0.0,0.0,0.0,0.0,0.0,0.0,0.0,0.0,0.0,0.0,0.0,0.0,0.0,0.0,0.0,0.0419,0.1288,0.1305,0.1804,0.2828,0.3532,0.4172,0.4748,0.5852,0.7038,0.8234,0.891,1.008,1.1608,1.2316,1.3236,1.4265,1.4793,1.5516,1.6267,1.6323,1.681,1.7514,1.7913,1.8248,1.8549,1.8886,1.9034,1.904,1.8762,1.827,1.7894,1.8391,1.8702,1.8758,1.8166,1.8454,1.8792,1.8324,1.8003,1.8256,1.9879,2.0116,2.0458,2.1992,2.2296,2.2296,2.2296,2.2296,2.2296,2.2296,2.2296,2.2296,2.2296,2.2818,2.3528,2.4406,2.5033,2.5693,2.642,2.6623,2.664,2.6488,2.6623,2.6691,2.6691,2.6691,2.7351,2.8756,2.9364,3.0108,3.0987,3.0987,3.1055,3.119,3.119,3.119,0.0,0.0,0.0,0.0,-0.2059,-0.2037,-0.1703,0.0,-0.1672,-0.1431,0.0,0.0,0.0,0.0,0.0,0.0,0.0,0.0,-0.0702,-0.0486,-0.0262,-0.0025,0.0,0.0,0.0,0.0,0.0,0.0,0.0,0.0,0.0,0.0,0.0,0.0,0.0,0.0419,0.1288,0.1305,0.1951,0.3229,0.3327,0.3995,0.5152,0.566,0.6729,0.8231,0.867,0.9792,1.138,1.1989,1.2913,1.4022,1.4711,1.5138,1.5351,1.5416,1.5948,1.6612,1.6426,1.7307,1.8438,1.8012,1.8075,1.8393,1.8825,1.841,1.7867,1.8156,1.8567,1.8877,1.8804,1.8843,1.9046,1.9608,1.8746,1.8391,2.0598,2.05,2.0458,2.1992,2.2296,2.2296,2.2296,2.2296,2.2296,2.2296,2.2296,2.2296,2.2296,2.2364,2.297,2.4355,2.4575,2.4915,2.5659,2.6319,2.642,2.5778,2.6336,2.6691,2.6691,2.6691,2.7097,2.7925,2.8027,2.877,3.0207,3.0207,3.0565,3.119,3.119,3.119,0.0,0.0,0.0,0.0,0.0,0.0,-0.1869,-0.1751,-0.1693,0.0,0.0,0.0,0.0,0.0,0.0,0.0,-0.1011,0.0,0.0,0.0,-0.0124,-0.0011,0.0,0.0,0.0,0.0,0.0,0.0,0.0,0.0,0.0,0.0,0.0,0.0,0.0,0.0302,0.094,0.1189,0.1721,0.2557,0.3064,0.373,0.4526,0.5168,0.6325,0.7871,0.8273,0.9537,1.1339,1.1826,1.2774,1.3968,1.4584,1.4977,1.5195,1.52,1.5374,1.5654,1.5904,1.6426,1.7105,1.7719,1.8048,1.83,1.8852,1.844,1.7867,1.8114,1.8237,1.8268,1.8268,1.8589,1.8978,1.9299,1.922,1.9473,2.0886,2.073,2.0603,2.1699,2.1705,2.1554,2.1554,2.1976,2.2296,2.2296,2.2296,2.2296,2.2296,2.2046,2.2387,2.3716,2.3618,2.3856,2.4882,2.5642,2.593,2.5625,2.6285,2.6691,2.6691,2.6691,2.7046,2.779,2.7807,2.8348,2.9448,2.9888,3.026,3.0581,3.1004,3.119,-0.2373,0.0,0.0,0.0,-0.2127,-0.2039,-0.1967,-0.1826,-0.1751,-0.1913,0.0,0.0,0.0,0.0,0.0,0.0,0.0,-0.0616,0.0,-0.0208,0.0,0.0,0.0,0.0,0.0,0.0,0.0,0.0,0.0,0.0,0.0,0.0,0.0,0.0,0.0,0.0285,0.0856,0.1156,0.1607,0.2197,0.2838,0.3446,0.4026,0.4722,0.5861,0.7304,0.7928,0.9213,1.0917,1.1609,1.2646,1.3859,1.4466,1.4899,1.5194,1.512,1.5058,1.5057,1.545,1.5603,1.5882,1.7259,1.7727,1.7876,1.8332,1.8156,1.7845,1.8046,1.7949,1.785,1.8053,1.8504,1.9007,1.943,1.9685,2.0139,2.1265,2.0891,2.0579,2.145,2.1275,2.0991,2.0991,2.1615,2.2077,2.1959,2.2152,2.2237,2.212,2.1809,2.2014,2.3096,2.2902,2.3007,2.3777,2.4922,2.5628,2.5698,2.632,2.6641,2.6505,2.6641,2.6945,2.7486,2.7503,2.7892,2.867,2.9431,2.9905,3.0125,3.0852,3.119,-0.2686,-0.2682,-0.2614,-0.2281,-0.2194,-0.2127,-0.187,-0.1896,-0.1957,-0.1829,-0.1896,0.0,0.0,0.0,0.0,0.0,0.0,0.0,0.0,0.0,0.0,0.0,0.0,0.0,0.0,0.0,0.0,0.0,0.0,0.0,0.0,0.0,0.0,0.0,0.0,0.0419,0.1271,0.1288,0.1757,0.2679,0.2712,0.3171,0.401,0.444,0.5295,0.6505,0.7689,0.8788,0.9854,1.1306,1.2542,1.3589,1.4394,1.4899,1.5194,1.512,1.5058,1.4966,1.4794,1.4873,1.5201,1.6293,1.6686,1.6795,1.708,1.7456,1.78,1.7811,1.7811,1.7952,1.8674,1.8877,1.9278,2.0767,2.0257,1.9935,2.1855,2.1024,2.0252,2.139,2.1275,2.0991,2.0991,2.1353,2.1491,2.1102,2.1751,2.2135,2.1673,2.1613,2.1892,2.2647,2.2714,2.2572,2.2214,2.4281,2.5715,2.5966,2.6436,2.6504,2.6049,2.6453,2.6708,2.6725,2.6725,2.7097,2.7841,2.8636,2.9397,3.0125,3.0852,3.119,-0.2696,-0.2696,-0.2648,-0.2447,-0.2292,-0.2157,-0.1968,-0.1974,-0.1894,-0.1544,-0.1749,-0.1842,0.0,0.0,0.0,0.0,0.0,0.0,0.0,0.0,0.0,0.0,0.0,0.0,0.0,0.0,0.0,0.0,0.0,0.0,0.0,0.0,0.0,0.0,0.0,0.0291,0.0889,0.1173,0.1607,0.2247,0.2547,0.3155,0.401,0.4145,0.5288,0.7216,0.7632,0.8704,1.0243,1.1282,1.2274,1.3268,1.4143,1.4784,1.5194,1.5069,1.498,1.4892,1.4656,1.4759,1.5081,1.5631,1.6211,1.6751,1.7026,1.7418,1.78,1.78,1.78,1.7969,1.8707,1.9064,1.9502,2.0509,2.0592,2.0707,2.165,2.0956,2.0382,2.107,2.0632,2.0139,2.0139,2.0466,2.0813,2.0975,2.126,2.1385,2.1213,2.0943,2.0958,2.152,2.131,2.1354,2.1982,2.3899,2.5187,2.5454,2.5961,2.6174,2.6013,2.5817,2.6016,2.6691,2.6384,2.6518,2.708,2.7841,2.8602,2.9381,3.0125,3.0734,-0.2696,-0.258,-0.2413,-0.2289,-0.2024,-0.178,-0.1645,-0.1642,-0.1586,-0.1234,-0.1434,-0.1521,-0.1001,0.0,0.0,0.0,0.0,0.0,0.0,0.0,0.0,0.0,0.0,0.0,0.0,0.0,0.0037,0.0135,0.0054,0.0,0.0,0.0,0.0,0.0,0.0,0.0301,0.0906,0.1173,0.1623,0.2247,0.2547,0.3072,0.3756,0.3923,0.5004,0.678,0.7347,0.8442,0.9894,1.1096,1.216,1.3091,1.4031,1.4724,1.5174,1.5048,1.4893,1.4717,1.4481,1.4486,1.4624,1.472,1.5462,1.634,1.6502,1.713,1.78,1.78,1.7704,1.7876,1.8993,1.9253,1.9507,2.063,2.0811,2.0862,2.1291,2.0699,2.0227,2.0649,2.0174,1.9708,1.9708,1.9909,2.0193,2.0482,2.0797,2.0943,2.0764,2.0483,2.0416,2.0715,2.0483,2.0858,2.2266,2.3578,2.447,2.4902,2.5411,2.5633,2.543,2.5278,2.5489,2.6158,2.605,2.6156,2.6453,2.7365,2.806,2.8602,2.9617,3.0362]}]]